Time,TemperatureF,DewpointF,PressureIn,WindDirection,WindDirectionDegrees,WindSpeedMPH,WindSpeedGustMPH,Humidity,HourlyPrecipIn,Conditions,Clouds,dailyrainin,SoftwareType,DateUTC
2013-10-12 00:00:00,65.7,53.6,28.61,SE,135,6.9,6.9,65,0.00,CLR,,0.00,WeatherDisplay:10.37,2013-10-12 05:00:00,
2013-10-12 00:02:00,65.5,53.4,28.61,SE,135,4.6,4.6,65,0.00,CLR,,0.00,WeatherDisplay:10.37,2013-10-12 05:02:00,
2013-10-12 00:03:00,65.5,53.4,28.61,ESE,112,4.6,4.6,65,0.00,CLR,,0.00,WeatherDisplay:10.37,2013-10-12 05:03:00,
2013-10-12 00:04:00,65.5,53.4,28.61,SSE,158,3.5,3.5,65,0.00,CLR,,0.00,WeatherDisplay:10.37,2013-10-12 05:04:00,
2013-10-12 00:06:00,65.5,53.4,28.61,SSE,158,4.6,4.6,65,0.00,CLR,,0.00,WeatherDisplay:10.37,2013-10-12 05:06:00,
2013-10-12 00:07:00,65.5,53.4,28.61,SSE,158,4.6,4.6,65,0.00,CLR,,0.00,WeatherDisplay:10.37,2013-10-12 05:07:00,
2013-10-12 00:08:00,65.3,53.2,28.61,SE,135,4.6,4.6,65,0.00,CLR,,0.00,WeatherDisplay:10.37,2013-10-12 05:08:00,
2013-10-12 00:09:00,65.3,53.2,28.61,South,180,4.6,4.6,65,0.00,CLR,,0.00,WeatherDisplay:10.37,2013-10-12 05:09:00,
2013-10-12 00:11:00,65.5,53.4,28.64,SSE,158,9.2,9.2,65,0.00,CLR,,0.00,WeatherDisplay:10.37,2013-10-12 05:11:00,
2013-10-12 00:12:00,65.5,53.4,28.64,SSE,158,5.8,5.8,65,0.00,CLR,,0.00,WeatherDisplay:10.37,2013-10-12 05:12:00,
2013-10-12 00:13:00,65.5,53.4,28.64,SSE,158,3.5,3.5,65,0.00,CLR,,0.00,WeatherDisplay:10.37,2013-10-12 05:13:00,
2013-10-12 00:14:00,65.3,53.2,28.64,SSE,158,4.0,4.0,65,0.00,CLR,,0.00,WeatherDisplay:10.37,2013-10-12 05:14:00,
2013-10-12 00:16:00,65.3,53.2,28.64,SE,135,5.8,5.8,65,0.00,CLR,,0.00,WeatherDisplay:10.37,2013-10-12 05:16:00,
2013-10-12 00:17:00,65.5,53.4,28.64,SSE,158,5.8,5.8,65,0.00,CLR,,0.00,WeatherDisplay:10.37,2013-10-12 05:17:00,
2013-10-12 00:18:00,65.5,53.4,28.64,SSE,158,4.6,4.6,65,0.00,CLR,,0.00,WeatherDisplay:10.37,2013-10-12 05:18:00,
2013-10-12 00:19:00,65.3,53.2,28.64,South,180,4.6,4.6,65,0.00,CLR,,0.00,WeatherDisplay:10.37,2013-10-12 05:19:00,
2013-10-12 00:22:00,65.3,53.2,28.64,SE,135,5.9,5.9,65,0.00,CLR,,0.00,WeatherDisplay:10.37,2013-10-12 05:22:00,
2013-10-12 00:23:00,65.3,53.2,28.64,SSE,158,5.8,5.8,65,0.00,CLR,,0.00,WeatherDisplay:10.37,2013-10-12 05:23:00,
2013-10-12 00:24:00,65.3,53.2,28.64,SE,135,5.9,5.9,65,0.00,CLR,,0.00,WeatherDisplay:10.37,2013-10-12 05:24:00,
2013-10-12 00:25:00,65.3,53.2,28.61,SSE,158,5.8,5.8,65,0.00,CLR,,0.00,WeatherDisplay:10.37,2013-10-12 05:25:00,
2013-10-12 00:27:00,65.3,53.2,28.61,SE,135,4.6,4.6,65,0.00,CLR,,0.00,WeatherDisplay:10.37,2013-10-12 05:27:00,
2013-10-12 00:28:00,65.3,53.2,28.61,SSE,158,4.6,4.6,65,0.00,CLR,,0.00,WeatherDisplay:10.37,2013-10-12 05:28:00,
2013-10-12 00:29:00,65.3,53.2,28.61,SSE,158,4.6,4.6,65,0.00,CLR,,0.00,WeatherDisplay:10.37,2013-10-12 05:29:00,
2013-10-12 00:30:00,65.3,53.2,28.61,South,180,4.6,4.6,65,0.00,CLR,,0.00,WeatherDisplay:10.37,2013-10-12 05:30:00,
2013-10-12 00:32:00,65.1,53.5,28.61,SE,135,5.8,5.8,66,0.00,CLR,,0.00,WeatherDisplay:10.37,2013-10-12 05:32:00,
2013-10-12 00:33:00,65.1,53.5,28.61,ESE,112,4.6,4.6,66,0.00,CLR,,0.00,WeatherDisplay:10.37,2013-10-12 05:33:00,
2013-10-12 00:34:00,64.9,53.7,28.61,ESE,112,3.1,3.1,67,0.00,CLR,,0.00,WeatherDisplay:10.37,2013-10-12 05:34:00,
2013-10-12 00:35:00,64.9,53.7,28.61,ESE,112,3.5,3.5,67,0.00,CLR,,0.00,WeatherDisplay:10.37,2013-10-12 05:35:00,
2013-10-12 00:36:00,64.8,53.1,28.61,SSE,158,7.1,7.1,66,0.00,CLR,,0.00,WeatherDisplay:10.37,2013-10-12 05:36:00,
2013-10-12 00:37:00,64.8,53.1,28.61,SSE,158,7.4,7.4,66,0.00,CLR,,0.00,WeatherDisplay:10.37,2013-10-12 05:37:00,
2013-10-12 00:38:00,64.8,53.5,28.61,South,180,6.9,6.9,67,0.00,CLR,,0.00,WeatherDisplay:10.37,2013-10-12 05:38:00,
2013-10-12 00:39:00,64.9,53.3,28.61,SSE,158,9.2,9.2,66,0.00,CLR,,0.00,WeatherDisplay:10.37,2013-10-12 05:39:00,
2013-10-12 00:40:00,64.9,53.3,28.61,SSE,158,9.2,9.2,66,0.00,CLR,,0.00,WeatherDisplay:10.37,2013-10-12 05:40:00,
2013-10-12 00:41:00,64.9,53.3,28.61,SE,135,6.9,6.9,66,0.00,CLR,,0.00,WeatherDisplay:10.37,2013-10-12 05:41:00,
2013-10-12 00:43:00,64.9,53.3,28.61,SSE,158,6.9,6.9,66,0.00,CLR,,0.00,WeatherDisplay:10.37,2013-10-12 05:43:00,
2013-10-12 00:44:00,64.9,53.3,28.61,SSE,158,5.8,5.8,66,0.00,CLR,,0.00,WeatherDisplay:10.37,2013-10-12 05:44:00,
2013-10-12 00:45:00,64.8,53.1,28.61,SSW,202,5.8,5.8,66,0.00,CLR,,0.00,WeatherDisplay:10.37,2013-10-12 05:45:00,
2013-10-12 00:46:00,64.8,53.1,28.61,SSE,158,4.6,4.6,66,0.00,CLR,,0.00,WeatherDisplay:10.37,2013-10-12 05:46:00,
2013-10-12 00:48:00,64.8,53.1,28.61,SSE,158,5.8,5.8,66,0.00,CLR,,0.00,WeatherDisplay:10.37,2013-10-12 05:48:00,
2013-10-12 00:49:00,64.8,53.1,28.61,SSE,158,6.2,6.2,66,0.00,CLR,,0.00,WeatherDisplay:10.37,2013-10-12 05:49:00,
2013-10-12 00:50:00,64.8,53.1,28.61,SSE,158,8.1,8.1,66,0.00,CLR,,0.00,WeatherDisplay:10.37,2013-10-12 05:50:00,
2013-10-12 00:51:00,64.8,53.1,28.61,SSE,158,5.8,5.8,66,0.00,CLR,,0.00,WeatherDisplay:10.37,2013-10-12 05:51:00,
2013-10-12 00:52:00,64.8,53.1,28.61,SE,135,5.8,5.8,66,0.00,CLR,,0.00,WeatherDisplay:10.37,2013-10-12 05:52:00,
2013-10-12 00:53:00,64.8,53.1,28.61,SE,135,4.6,4.6,66,0.00,CLR,,0.00,WeatherDisplay:10.37,2013-10-12 05:53:00,
2013-10-12 00:54:00,64.8,53.1,28.61,SSE,158,5.4,5.4,66,0.00,CLR,,0.00,WeatherDisplay:10.37,2013-10-12 05:54:00,
2013-10-12 00:55:00,64.8,53.1,28.61,SSE,158,5.9,5.9,66,0.00,CLR,,0.00,WeatherDisplay:10.37,2013-10-12 05:55:00,
2013-10-12 00:56:00,64.8,53.1,28.61,SSE,158,5.8,5.8,66,0.00,CLR,,0.00,WeatherDisplay:10.37,2013-10-12 05:56:00,
2013-10-12 00:57:00,64.8,53.1,28.61,SSE,158,4.6,4.6,66,0.00,CLR,,0.00,WeatherDisplay:10.37,2013-10-12 05:57:00,
2013-10-12 00:59:00,64.8,53.5,28.61,SSE,158,3.5,3.5,67,0.00,CLR,,0.00,WeatherDisplay:10.37,2013-10-12 05:59:00,
2013-10-12 01:00:00,64.8,53.1,28.61,SSE,158,6.9,6.9,66,0.00,CLR,,0.00,WeatherDisplay:10.37,2013-10-12 06:00:00,
2013-10-12 01:01:00,64.8,53.1,28.61,SSE,158,6.9,6.9,66,0.00,CLR,,0.00,WeatherDisplay:10.37,2013-10-12 06:01:00,
2013-10-12 01:02:00,64.8,53.1,28.61,South,180,5.8,5.8,66,0.00,CLR,,0.00,WeatherDisplay:10.37,2013-10-12 06:02:00,
2013-10-12 01:04:00,64.9,53.3,28.61,SSE,158,4.6,4.6,66,0.00,CLR,,0.00,WeatherDisplay:10.37,2013-10-12 06:04:00,
2013-10-12 01:05:00,64.9,53.3,28.61,SE,135,4.6,4.6,66,0.00,CLR,,0.00,WeatherDisplay:10.37,2013-10-12 06:05:00,
2013-10-12 01:06:00,64.8,53.1,28.61,South,180,6.4,6.4,66,0.00,CLR,,0.00,WeatherDisplay:10.37,2013-10-12 06:06:00,
2013-10-12 01:07:00,64.9,52.9,28.61,SSE,158,9.2,9.2,65,0.00,CLR,,0.00,WeatherDisplay:10.37,2013-10-12 06:07:00,
2013-10-12 01:09:00,65.1,53.1,28.61,SSE,158,8.1,8.1,65,0.00,CLR,,0.00,WeatherDisplay:10.37,2013-10-12 06:09:00,
2013-10-12 01:10:00,65.1,53.1,28.61,SSE,158,8.1,8.1,65,0.00,CLR,,0.00,WeatherDisplay:10.37,2013-10-12 06:10:00,
2013-10-12 01:11:00,65.1,53.1,28.61,SE,135,6.9,6.9,65,0.00,CLR,,0.00,WeatherDisplay:10.37,2013-10-12 06:11:00,
2013-10-12 01:12:00,65.1,53.1,28.61,SSE,158,6.9,6.9,65,0.00,CLR,,0.00,WeatherDisplay:10.37,2013-10-12 06:12:00,
2013-10-12 01:13:00,65.1,53.1,28.61,SSE,158,4.6,4.6,65,0.00,CLR,,0.00,WeatherDisplay:10.37,2013-10-12 06:13:00,
2013-10-12 01:14:00,65.1,53.1,28.61,South,180,5.8,5.8,65,0.00,CLR,,0.00,WeatherDisplay:10.37,2013-10-12 06:14:00,
2013-10-12 01:15:00,65.1,53.1,28.61,SSE,158,5.8,5.8,65,0.00,CLR,,0.00,WeatherDisplay:10.37,2013-10-12 06:15:00,
2013-10-12 01:17:00,65.1,53.1,28.61,SSE,158,8.1,8.1,65,0.00,CLR,,0.00,WeatherDisplay:10.37,2013-10-12 06:17:00,
2013-10-12 01:18:00,65.3,53.2,28.61,SSE,158,9.2,9.2,65,0.00,CLR,,0.00,WeatherDisplay:10.37,2013-10-12 06:18:00,
2013-10-12 01:19:00,65.3,53.2,28.61,South,180,5.8,5.8,65,0.00,CLR,,0.00,WeatherDisplay:10.37,2013-10-12 06:19:00,
2013-10-12 01:20:00,65.3,53.2,28.61,SSE,158,7.8,7.8,65,0.00,CLR,,0.00,WeatherDisplay:10.37,2013-10-12 06:20:00,
2013-10-12 01:22:00,65.5,53.0,28.61,SSE,158,9.2,9.2,64,0.00,CLR,,0.00,WeatherDisplay:10.37,2013-10-12 06:22:00,
2013-10-12 01:23:00,65.5,53.0,28.61,South,180,8.1,8.1,64,0.00,CLR,,0.00,WeatherDisplay:10.37,2013-10-12 06:23:00,
2013-10-12 01:24:00,65.5,53.0,28.61,SSE,158,8.1,8.1,64,0.00,CLR,,0.00,WeatherDisplay:10.37,2013-10-12 06:24:00,
2013-10-12 01:25:00,65.5,53.0,28.61,SSW,202,8.1,8.1,64,0.00,CLR,,0.00,WeatherDisplay:10.37,2013-10-12 06:25:00,
2013-10-12 01:27:00,65.7,53.1,28.61,SE,135,10.4,10.4,64,0.00,CLR,,0.00,WeatherDisplay:10.37,2013-10-12 06:27:00,
2013-10-12 01:28:00,65.7,53.1,28.61,SSE,158,8.1,8.1,64,0.00,CLR,,0.00,WeatherDisplay:10.37,2013-10-12 06:28:00,
2013-10-12 01:29:00,65.7,53.1,28.61,SSE,158,8.1,8.1,64,0.00,CLR,,0.00,WeatherDisplay:10.37,2013-10-12 06:29:00,
2013-10-12 01:30:00,65.5,53.0,28.61,SSE,158,9.2,9.2,64,0.00,CLR,,0.00,WeatherDisplay:10.37,2013-10-12 06:30:00,
2013-10-12 01:31:00,65.7,53.1,28.61,SSE,158,9.2,9.2,64,0.00,CLR,,0.00,WeatherDisplay:10.37,2013-10-12 06:31:00,
2013-10-12 01:32:00,65.7,53.1,28.61,SSE,158,8.1,8.1,64,0.00,CLR,,0.00,WeatherDisplay:10.37,2013-10-12 06:32:00,
2013-10-12 01:33:00,65.5,53.0,28.61,SSE,158,8.1,8.1,64,0.00,CLR,,0.00,WeatherDisplay:10.37,2013-10-12 06:33:00,
2013-10-12 01:35:00,65.7,53.1,28.61,SW,225,8.1,8.1,64,0.00,CLR,,0.00,WeatherDisplay:10.37,2013-10-12 06:35:00,
2013-10-12 01:36:00,65.5,53.0,28.61,WSW,248,5.8,5.8,64,0.00,CLR,,0.00,WeatherDisplay:10.37,2013-10-12 06:36:00,
2013-10-12 01:37:00,65.5,53.0,28.61,SSE,158,5.9,5.9,64,0.00,CLR,,0.00,WeatherDisplay:10.37,2013-10-12 06:37:00,
2013-10-12 01:39:00,65.5,53.0,28.61,South,180,5.6,5.6,64,0.00,CLR,,0.00,WeatherDisplay:10.37,2013-10-12 06:39:00,
2013-10-12 01:40:00,65.5,53.4,28.61,SSE,158,5.8,5.8,65,0.00,CLR,,0.00,WeatherDisplay:10.37,2013-10-12 06:40:00,
2013-10-12 01:41:00,65.5,53.4,28.61,SE,135,4.6,4.6,65,0.00,CLR,,0.00,WeatherDisplay:10.37,2013-10-12 06:41:00,
2013-10-12 01:42:00,65.3,53.2,28.61,South,180,4.6,4.6,65,0.00,CLR,,0.00,WeatherDisplay:10.37,2013-10-12 06:42:00,
2013-10-12 01:44:00,65.3,53.2,28.61,SSE,158,9.2,9.2,65,0.00,CLR,,0.00,WeatherDisplay:10.37,2013-10-12 06:44:00,
2013-10-12 01:45:00,65.1,53.1,28.61,SSE,158,4.6,4.6,65,0.00,CLR,,0.00,WeatherDisplay:10.37,2013-10-12 06:45:00,
2013-10-12 01:46:00,65.1,53.1,28.61,SSE,158,2.3,2.3,65,0.00,CLR,,0.00,WeatherDisplay:10.37,2013-10-12 06:46:00,
2013-10-12 01:47:00,65.1,53.1,28.61,SSE,158,2.3,2.3,65,0.00,CLR,,0.00,WeatherDisplay:10.37,2013-10-12 06:47:00,
2013-10-12 01:50:00,64.9,53.3,28.61,SSE,158,4.6,4.6,66,0.00,CLR,,0.00,WeatherDisplay:10.37,2013-10-12 06:50:00,
2013-10-12 01:51:00,64.9,53.3,28.61,SSE,158,5.8,5.8,66,0.00,CLR,,0.00,WeatherDisplay:10.37,2013-10-12 06:51:00,
2013-10-12 01:52:00,64.9,53.3,28.61,SSE,158,5.9,5.9,66,0.00,CLR,,0.00,WeatherDisplay:10.37,2013-10-12 06:52:00,
2013-10-12 01:55:00,64.9,53.3,28.61,SSE,158,8.1,8.1,66,0.00,CLR,,0.00,WeatherDisplay:10.37,2013-10-12 06:55:00,
2013-10-12 01:56:00,64.9,53.3,28.61,SSE,158,4.6,4.6,66,0.00,CLR,,0.00,WeatherDisplay:10.37,2013-10-12 06:56:00,
2013-10-12 01:57:00,64.9,53.3,28.61,SE,135,6.4,6.4,66,0.00,CLR,,0.00,WeatherDisplay:10.37,2013-10-12 06:57:00,
2013-10-12 02:00:00,64.9,53.3,28.61,SSE,158,4.0,4.0,66,0.00,CLR,,0.00,WeatherDisplay:10.37,2013-10-12 07:00:00,
2013-10-12 02:01:00,64.9,53.3,28.61,South,180,5.8,5.8,66,0.00,CLR,,0.00,WeatherDisplay:10.37,2013-10-12 07:01:00,
2013-10-12 02:02:00,64.8,53.1,28.61,SSE,158,5.8,5.8,66,0.00,CLR,,0.00,WeatherDisplay:10.37,2013-10-12 07:02:00,
2013-10-12 02:06:00,64.8,53.1,28.61,South,180,5.9,5.9,66,0.00,CLR,,0.00,WeatherDisplay:10.37,2013-10-12 07:06:00,
2013-10-12 02:07:00,64.8,53.1,28.61,SE,135,5.8,5.8,66,0.00,CLR,,0.00,WeatherDisplay:10.37,2013-10-12 07:07:00,
2013-10-12 02:08:00,64.9,53.3,28.61,SSE,158,5.8,5.8,66,0.00,CLR,,0.00,WeatherDisplay:10.37,2013-10-12 07:08:00,
2013-10-12 02:11:00,64.9,53.3,28.61,SE,135,3.6,3.6,66,0.00,CLR,,0.00,WeatherDisplay:10.37,2013-10-12 07:11:00,
2013-10-12 02:12:00,64.9,53.3,28.61,ESE,112,3.6,3.6,66,0.00,CLR,,0.00,WeatherDisplay:10.37,2013-10-12 07:12:00,
2013-10-12 02:13:00,64.9,53.3,28.61,SSW,202,4.7,4.7,66,0.00,CLR,,0.00,WeatherDisplay:10.37,2013-10-12 07:13:00,
2013-10-12 02:16:00,64.9,53.3,28.61,SE,135,6.9,6.9,66,0.00,CLR,,0.00,WeatherDisplay:10.37,2013-10-12 07:16:00,
2013-10-12 02:17:00,64.9,53.3,28.61,SSE,158,6.9,6.9,66,0.00,CLR,,0.00,WeatherDisplay:10.37,2013-10-12 07:17:00,
2013-10-12 02:18:00,64.9,53.3,28.61,WSW,248,5.8,5.8,66,0.00,CLR,,0.00,WeatherDisplay:10.37,2013-10-12 07:18:00,
2013-10-12 02:21:00,64.9,53.3,28.61,SSE,158,5.8,5.8,66,0.00,CLR,,0.00,WeatherDisplay:10.37,2013-10-12 07:21:00,
2013-10-12 02:22:00,64.9,53.3,28.61,SSE,158,5.8,5.8,66,0.00,CLR,,0.00,WeatherDisplay:10.37,2013-10-12 07:22:00,
2013-10-12 02:23:00,64.9,53.3,28.61,SE,135,5.8,5.8,66,0.00,CLR,,0.00,WeatherDisplay:10.37,2013-10-12 07:23:00,
2013-10-12 02:24:00,64.9,53.3,28.61,SSE,158,6.0,6.0,66,0.00,CLR,,0.00,WeatherDisplay:10.37,2013-10-12 07:24:00,
2013-10-12 02:27:00,64.8,53.1,28.61,SE,135,3.5,3.5,66,0.00,CLR,,0.00,WeatherDisplay:10.37,2013-10-12 07:27:00,
2013-10-12 02:28:00,64.8,53.5,28.61,SSE,158,5.8,5.8,67,0.00,CLR,,0.00,WeatherDisplay:10.37,2013-10-12 07:28:00,
2013-10-12 02:29:00,64.8,53.5,28.61,SE,135,6.9,6.9,67,0.00,CLR,,0.00,WeatherDisplay:10.37,2013-10-12 07:29:00,
2013-10-12 02:32:00,64.6,53.4,28.61,SSE,158,5.8,5.8,67,0.00,CLR,,0.00,WeatherDisplay:10.37,2013-10-12 07:32:00,
2013-10-12 02:33:00,64.6,53.4,28.61,South,180,5.8,5.8,67,0.00,CLR,,0.00,WeatherDisplay:10.37,2013-10-12 07:33:00,
2013-10-12 02:34:00,64.6,53.4,28.61,SSE,158,5.8,5.8,67,0.00,CLR,,0.00,WeatherDisplay:10.37,2013-10-12 07:34:00,
2013-10-12 02:37:00,64.4,53.2,28.61,SSE,158,5.8,5.8,67,0.00,CLR,,0.00,WeatherDisplay:10.37,2013-10-12 07:37:00,
2013-10-12 02:38:00,64.4,53.6,28.61,SSW,202,5.8,5.9,68,0.00,CLR,,0.00,WeatherDisplay:10.37,2013-10-12 07:38:00,
2013-10-12 02:39:00,64.4,53.6,28.61,SSW,202,10.4,10.4,68,0.00,CLR,,0.00,WeatherDisplay:10.37,2013-10-12 07:39:00,
2013-10-12 02:40:00,64.4,53.6,28.61,South,173,5.0,10.0,68,0.00,CLR,,0.00,WeatherDisplay:10.37,2013-10-12 07:40:00,
2013-10-12 02:42:00,64.4,53.6,28.61,SSE,158,6.9,6.9,68,0.00,CLR,,0.00,WeatherDisplay:10.37,2013-10-12 07:42:00,
2013-10-12 02:43:00,64.2,53.4,28.61,SSE,158,6.9,6.9,68,0.00,CLR,,0.00,WeatherDisplay:10.37,2013-10-12 07:43:00,
2013-10-12 02:44:00,64.2,53.4,28.61,South,180,4.6,4.7,68,0.00,CLR,,0.00,WeatherDisplay:10.37,2013-10-12 07:44:00,
2013-10-12 02:45:00,64.0,53.7,28.61,SSE,158,3.5,3.5,69,0.00,CLR,,0.00,WeatherDisplay:10.37,2013-10-12 07:45:00,
2013-10-12 02:48:00,63.9,53.5,28.61,SSE,158,5.8,5.8,69,0.00,CLR,,0.00,WeatherDisplay:10.37,2013-10-12 07:48:00,
2013-10-12 02:49:00,63.9,53.5,28.61,SSE,158,5.8,5.8,69,0.00,CLR,,0.00,WeatherDisplay:10.37,2013-10-12 07:49:00,
2013-10-12 02:50:00,63.9,53.9,28.61,SSE,158,5.8,5.8,70,0.00,CLR,,0.00,WeatherDisplay:10.37,2013-10-12 07:50:00,
2013-10-12 02:53:00,63.7,53.7,28.61,SSE,158,4.6,4.6,70,0.00,CLR,,0.00,WeatherDisplay:10.37,2013-10-12 07:53:00,
2013-10-12 02:54:00,63.7,53.7,28.61,South,180,4.6,4.6,70,0.00,CLR,,0.00,WeatherDisplay:10.37,2013-10-12 07:54:00,
2013-10-12 02:55:00,63.7,53.7,28.61,SSE,158,5.9,5.9,70,0.00,CLR,,0.00,WeatherDisplay:10.37,2013-10-12 07:55:00,
2013-10-12 02:58:00,63.5,53.9,28.61,SSE,158,5.8,5.8,71,0.00,CLR,,0.00,WeatherDisplay:10.37,2013-10-12 07:58:00,
2013-10-12 02:59:00,63.5,53.9,28.61,South,180,5.8,5.8,71,0.00,CLR,,0.00,WeatherDisplay:10.37,2013-10-12 07:59:00,
2013-10-12 03:00:00,63.5,53.9,28.61,SSE,158,6.7,6.7,71,0.00,CLR,,0.00,WeatherDisplay:10.37,2013-10-12 08:00:00,
2013-10-12 03:03:00,63.3,53.8,28.61,SSE,158,4.6,4.6,71,0.00,CLR,,0.00,WeatherDisplay:10.37,2013-10-12 08:03:00,
2013-10-12 03:04:00,63.3,53.8,28.61,SSE,158,2.9,2.9,71,0.00,CLR,,0.00,WeatherDisplay:10.37,2013-10-12 08:04:00,
2013-10-12 03:05:00,63.1,53.6,28.61,SW,225,2.9,2.9,71,0.00,CLR,,0.00,WeatherDisplay:10.37,2013-10-12 08:05:00,
2013-10-12 03:06:00,63.1,53.6,28.61,SE,135,3.5,3.5,71,0.00,CLR,,0.00,WeatherDisplay:10.37,2013-10-12 08:06:00,
2013-10-12 03:08:00,63.0,53.8,28.61,WSW,248,2.9,2.9,72,0.00,CLR,,0.00,WeatherDisplay:10.37,2013-10-12 08:08:00,
2013-10-12 03:09:00,63.0,53.8,28.61,SSW,202,4.6,4.6,72,0.00,CLR,,0.00,WeatherDisplay:10.37,2013-10-12 08:09:00,
2013-10-12 03:10:00,62.8,53.6,28.61,SSE,158,4.9,4.9,72,0.00,CLR,,0.00,WeatherDisplay:10.37,2013-10-12 08:10:00,
2013-10-12 03:11:00,62.8,53.6,28.61,SSE,158,4.7,4.7,72,0.00,CLR,,0.00,WeatherDisplay:10.37,2013-10-12 08:11:00,
2013-10-12 03:14:00,62.8,54.0,28.61,SW,225,5.8,5.8,73,0.00,CLR,,0.00,WeatherDisplay:10.37,2013-10-12 08:14:00,
2013-10-12 03:15:00,62.8,54.0,28.61,South,180,4.6,4.6,73,0.00,CLR,,0.00,WeatherDisplay:10.37,2013-10-12 08:15:00,
2013-10-12 03:16:00,62.6,53.4,28.61,West,270,3.5,3.5,72,0.00,CLR,,0.00,WeatherDisplay:10.37,2013-10-12 08:16:00,
2013-10-12 03:17:00,62.6,53.4,28.61,South,180,2.3,2.3,72,0.00,CLR,,0.00,WeatherDisplay:10.37,2013-10-12 08:17:00,
2013-10-12 03:19:00,62.6,53.8,28.61,SSE,158,5.8,5.8,73,0.00,CLR,,0.00,WeatherDisplay:10.37,2013-10-12 08:19:00,
2013-10-12 03:20:00,62.4,53.6,28.61,WSW,248,5.8,5.8,73,0.00,CLR,,0.00,WeatherDisplay:10.37,2013-10-12 08:20:00,
2013-10-12 03:21:00,62.4,53.6,28.61,SSE,158,5.6,5.6,73,0.00,CLR,,0.00,WeatherDisplay:10.37,2013-10-12 08:21:00,
2013-10-12 03:23:00,62.4,54.0,28.61,WSW,248,8.1,8.1,74,0.00,CLR,,0.00,WeatherDisplay:10.37,2013-10-12 08:23:00,
2013-10-12 03:24:00,62.4,54.0,28.61,SSW,202,3.5,3.5,74,0.00,CLR,,0.00,WeatherDisplay:10.37,2013-10-12 08:24:00,
2013-10-12 03:25:00,62.4,54.0,28.58,SSE,158,6.9,6.9,74,0.00,CLR,,0.00,WeatherDisplay:10.37,2013-10-12 08:25:00,
2013-10-12 03:27:00,62.4,54.0,28.58,South,180,6.9,6.9,74,0.00,CLR,,0.00,WeatherDisplay:10.37,2013-10-12 08:27:00,
2013-10-12 03:28:00,62.4,54.0,28.58,South,180,5.8,5.8,74,0.00,CLR,,0.00,WeatherDisplay:10.37,2013-10-12 08:28:00,
2013-10-12 03:29:00,62.4,54.0,28.58,South,180,3.5,3.5,74,0.00,CLR,,0.00,WeatherDisplay:10.37,2013-10-12 08:29:00,
2013-10-12 03:30:00,62.4,54.0,28.58,SSW,202,4.0,4.0,74,0.00,CLR,,0.00,WeatherDisplay:10.37,2013-10-12 08:30:00,
2013-10-12 03:31:00,62.4,54.0,28.58,South,180,5.8,5.8,74,0.00,CLR,,0.00,WeatherDisplay:10.37,2013-10-12 08:31:00,
2013-10-12 03:32:00,62.2,53.8,28.58,South,180,4.3,4.3,74,0.00,CLR,,0.00,WeatherDisplay:10.37,2013-10-12 08:32:00,
2013-10-12 03:33:00,62.2,53.8,28.58,SE,135,5.8,5.8,74,0.00,CLR,,0.00,WeatherDisplay:10.37,2013-10-12 08:33:00,
2013-10-12 03:34:00,62.2,53.8,28.58,South,180,5.8,5.8,74,0.00,CLR,,0.00,WeatherDisplay:10.37,2013-10-12 08:34:00,
2013-10-12 03:35:00,62.2,53.8,28.58,SSE,158,4.9,4.9,74,0.00,CLR,,0.00,WeatherDisplay:10.37,2013-10-12 08:35:00,
2013-10-12 03:36:00,62.2,53.8,28.58,SSE,158,3.8,3.8,74,0.00,CLR,,0.00,WeatherDisplay:10.37,2013-10-12 08:36:00,
2013-10-12 03:37:00,62.2,54.2,28.58,SSE,158,5.8,5.8,75,0.00,CLR,,0.00,WeatherDisplay:10.37,2013-10-12 08:37:00,
2013-10-12 03:38:00,62.2,53.8,28.58,SSE,158,4.6,4.6,74,0.00,CLR,,0.00,WeatherDisplay:10.37,2013-10-12 08:38:00,
2013-10-12 03:39:00,62.2,53.8,28.61,SSE,158,4.0,4.0,74,0.00,CLR,,0.00,WeatherDisplay:10.37,2013-10-12 08:39:00,
2013-10-12 03:40:00,62.2,53.8,28.61,SSE,158,5.8,5.8,74,0.00,CLR,,0.00,WeatherDisplay:10.37,2013-10-12 08:40:00,
2013-10-12 03:41:00,62.2,53.8,28.61,South,180,5.8,5.8,74,0.00,CLR,,0.00,WeatherDisplay:10.37,2013-10-12 08:41:00,
2013-10-12 03:42:00,62.2,53.8,28.61,SE,135,6.9,6.9,74,0.00,CLR,,0.00,WeatherDisplay:10.37,2013-10-12 08:42:00,
2013-10-12 03:44:00,62.1,53.7,28.61,SSW,202,4.7,4.7,74,0.00,CLR,,0.00,WeatherDisplay:10.37,2013-10-12 08:44:00,
2013-10-12 03:45:00,62.1,53.7,28.61,South,180,6.9,6.9,74,0.00,CLR,,0.00,WeatherDisplay:10.37,2013-10-12 08:45:00,
2013-10-12 03:47:00,62.1,53.7,28.61,SSE,158,4.6,4.6,74,0.00,CLR,,0.00,WeatherDisplay:10.37,2013-10-12 08:47:00,
2013-10-12 03:49:00,62.1,54.0,28.61,SSW,202,5.8,5.8,75,0.00,CLR,,0.00,WeatherDisplay:10.37,2013-10-12 08:49:00,
2013-10-12 03:51:00,62.1,54.0,28.61,South,180,4.6,4.6,75,0.00,CLR,,0.00,WeatherDisplay:10.37,2013-10-12 08:51:00,
2013-10-12 03:52:00,62.1,54.0,28.61,NNW,338,4.6,4.6,75,0.00,CLR,,0.00,WeatherDisplay:10.37,2013-10-12 08:52:00,
2013-10-12 03:54:00,61.9,53.9,28.61,SSE,158,5.8,5.8,75,0.00,CLR,,0.00,WeatherDisplay:10.37,2013-10-12 08:54:00,
2013-10-12 03:56:00,62.1,54.0,28.61,SSE,158,5.8,5.8,75,0.00,CLR,,0.00,WeatherDisplay:10.37,2013-10-12 08:56:00,
2013-10-12 03:57:00,62.1,54.0,28.61,South,180,4.6,4.6,75,0.00,CLR,,0.00,WeatherDisplay:10.37,2013-10-12 08:57:00,
2013-10-12 03:58:00,62.1,54.0,28.61,SSW,202,4.6,4.6,75,0.00,CLR,,0.00,WeatherDisplay:10.37,2013-10-12 08:58:00,
2013-10-12 03:59:00,61.9,53.9,28.61,SSW,202,4.6,4.6,75,0.00,CLR,,0.00,WeatherDisplay:10.37,2013-10-12 08:59:00,
2013-10-12 04:00:00,61.9,53.9,28.61,SSW,202,4.6,4.6,75,0.00,CLR,,0.00,WeatherDisplay:10.37,2013-10-12 09:00:00,
2013-10-12 04:01:00,61.9,53.9,28.61,SSE,158,5.8,5.8,75,0.00,CLR,,0.00,WeatherDisplay:10.37,2013-10-12 09:01:00,
2013-10-12 04:02:00,61.9,53.9,28.61,SSE,158,4.6,4.6,75,0.00,CLR,,0.00,WeatherDisplay:10.37,2013-10-12 09:02:00,
2013-10-12 04:03:00,61.9,53.9,28.61,SSE,158,4.9,4.9,75,0.00,CLR,,0.00,WeatherDisplay:10.37,2013-10-12 09:03:00,
2013-10-12 04:05:00,61.9,53.9,28.61,South,171,3.0,6.0,75,0.00,CLR,,0.00,WeatherDisplay:10.37,2013-10-12 09:05:00,
2013-10-12 04:06:00,61.9,53.9,28.61,South,180,3.8,3.8,75,0.00,CLR,,0.00,WeatherDisplay:10.37,2013-10-12 09:06:00,
2013-10-12 04:07:00,61.9,53.9,28.61,SW,225,4.6,4.6,75,0.00,CLR,,0.00,WeatherDisplay:10.37,2013-10-12 09:07:00,
2013-10-12 04:09:00,61.9,53.9,28.61,South,180,4.3,4.3,75,0.00,CLR,,0.00,WeatherDisplay:10.37,2013-10-12 09:09:00,
2013-10-12 04:10:00,61.9,53.9,28.61,SSE,158,6.9,6.9,75,0.00,CLR,,0.00,WeatherDisplay:10.37,2013-10-12 09:10:00,
2013-10-12 04:11:00,62.1,54.0,28.61,SE,135,6.9,6.9,75,0.00,CLR,,0.00,WeatherDisplay:10.37,2013-10-12 09:11:00,
2013-10-12 04:13:00,61.9,53.9,28.61,SSE,158,3.5,3.5,75,0.00,CLR,,0.00,WeatherDisplay:10.37,2013-10-12 09:13:00,
2013-10-12 04:14:00,61.9,53.9,28.61,SSW,202,3.5,3.5,75,0.00,CLR,,0.00,WeatherDisplay:10.37,2013-10-12 09:14:00,
2013-10-12 04:15:00,61.9,53.9,28.61,South,170,3.0,7.0,75,0.00,CLR,,0.00,WeatherDisplay:10.37,2013-10-12 09:15:00,
2013-10-12 04:16:00,61.9,53.9,28.61,South,180,4.9,4.9,75,0.00,CLR,,0.00,WeatherDisplay:10.37,2013-10-12 09:16:00,
2013-10-12 04:18:00,62.1,54.0,28.61,SSE,158,3.5,3.5,75,0.00,CLR,,0.00,WeatherDisplay:10.37,2013-10-12 09:18:00,
2013-10-12 04:19:00,61.9,53.9,28.61,South,180,3.5,3.5,75,0.00,CLR,,0.00,WeatherDisplay:10.37,2013-10-12 09:19:00,
2013-10-12 04:20:00,61.9,53.9,28.61,SW,225,3.5,3.5,75,0.00,CLR,,0.00,WeatherDisplay:10.37,2013-10-12 09:20:00,
2013-10-12 04:21:00,61.9,53.9,28.61,South,180,2.3,2.3,75,0.00,CLR,,0.00,WeatherDisplay:10.37,2013-10-12 09:21:00,
2013-10-12 04:23:00,61.9,54.2,28.61,SSW,202,3.5,3.5,76,0.00,CLR,,0.00,WeatherDisplay:10.37,2013-10-12 09:23:00,
2013-10-12 04:25:00,61.7,53.7,28.61,SSW,202,2.3,3.1,75,0.00,CLR,,0.00,WeatherDisplay:10.37,2013-10-12 09:25:00,
2013-10-12 04:26:00,61.9,54.2,28.61,SSW,202,5.8,5.8,76,0.00,CLR,,0.00,WeatherDisplay:10.37,2013-10-12 09:26:00,
2013-10-12 04:29:00,61.9,54.2,28.61,SW,225,4.6,4.6,76,0.00,CLR,,0.00,WeatherDisplay:10.37,2013-10-12 09:29:00,
2013-10-12 04:30:00,62.1,54.4,28.61,SSW,202,3.5,3.5,76,0.00,CLR,,0.00,WeatherDisplay:10.37,2013-10-12 09:30:00,
2013-10-12 04:31:00,62.1,54.4,28.61,SSE,158,3.5,3.5,76,0.00,CLR,,0.00,WeatherDisplay:10.37,2013-10-12 09:31:00,
2013-10-12 04:32:00,62.1,54.4,28.61,SSE,158,4.9,4.9,76,0.00,CLR,,0.00,WeatherDisplay:10.37,2013-10-12 09:32:00,
2013-10-12 04:34:00,62.2,54.6,28.61,SSE,158,4.9,4.9,76,0.00,CLR,,0.00,WeatherDisplay:10.37,2013-10-12 09:34:00,
2013-10-12 04:35:00,62.2,54.6,28.61,South,180,4.6,4.6,76,0.00,CLR,,0.00,WeatherDisplay:10.37,2013-10-12 09:35:00,
2013-10-12 04:37:00,62.4,54.8,28.61,SSE,158,4.6,4.6,76,0.00,CLR,,0.00,WeatherDisplay:10.37,2013-10-12 09:37:00,
2013-10-12 04:39:00,62.6,54.6,28.61,SSE,158,4.6,4.6,75,0.00,CLR,,0.00,WeatherDisplay:10.37,2013-10-12 09:39:00,
2013-10-12 04:40:00,62.6,54.9,28.61,SSE,158,4.6,4.6,76,0.00,CLR,,0.00,WeatherDisplay:10.37,2013-10-12 09:40:00,
2013-10-12 04:42:00,62.6,54.6,28.61,SW,225,4.6,4.6,75,0.00,CLR,,0.00,WeatherDisplay:10.37,2013-10-12 09:42:00,
2013-10-12 04:43:00,62.6,54.6,28.61,South,180,4.6,4.6,75,0.00,CLR,,0.00,WeatherDisplay:10.37,2013-10-12 09:43:00,
2013-10-12 04:44:00,62.6,54.6,28.61,South,180,4.6,4.6,75,0.00,CLR,,0.00,WeatherDisplay:10.37,2013-10-12 09:44:00,
2013-10-12 04:45:00,62.8,54.7,28.61,South,180,3.5,3.6,75,0.00,CLR,,0.00,WeatherDisplay:10.37,2013-10-12 09:45:00,
2013-10-12 04:46:00,62.8,54.7,28.61,SSW,202,4.6,4.6,75,0.00,CLR,,0.00,WeatherDisplay:10.37,2013-10-12 09:46:00,
2013-10-12 04:47:00,62.8,54.7,28.61,SSE,158,4.3,4.3,75,0.00,CLR,,0.00,WeatherDisplay:10.37,2013-10-12 09:47:00,
2013-10-12 04:48:00,62.8,54.7,28.61,SSE,158,4.6,4.6,75,0.00,CLR,,0.00,WeatherDisplay:10.37,2013-10-12 09:48:00,
2013-10-12 04:49:00,62.8,54.7,28.61,South,180,4.6,4.6,75,0.00,CLR,,0.00,WeatherDisplay:10.37,2013-10-12 09:49:00,
2013-10-12 04:51:00,62.8,54.7,28.61,South,180,4.7,4.7,75,0.00,CLR,,0.00,WeatherDisplay:10.37,2013-10-12 09:51:00,
2013-10-12 04:52:00,62.8,54.7,28.61,SW,225,4.6,4.6,75,0.00,CLR,,0.00,WeatherDisplay:10.37,2013-10-12 09:52:00,
2013-10-12 04:53:00,62.8,54.7,28.61,SSW,202,5.8,5.8,75,0.00,CLR,,0.00,WeatherDisplay:10.37,2013-10-12 09:53:00,
2013-10-12 04:54:00,62.8,54.7,28.61,SW,225,5.8,5.8,75,0.00,CLR,,0.00,WeatherDisplay:10.37,2013-10-12 09:54:00,
2013-10-12 04:56:00,62.8,54.7,28.58,SSE,158,8.1,8.1,75,0.00,CLR,,0.00,WeatherDisplay:10.37,2013-10-12 09:56:00,
2013-10-12 04:57:00,63.0,54.9,28.58,SSE,158,8.1,8.1,75,0.00,CLR,,0.00,WeatherDisplay:10.37,2013-10-12 09:57:00,
2013-10-12 04:59:00,63.0,54.5,28.58,SSE,158,5.8,5.8,74,0.00,CLR,,0.00,WeatherDisplay:10.37,2013-10-12 09:59:00,
2013-10-12 05:01:00,62.6,54.2,28.58,South,180,7.4,7.4,74,0.00,CLR,,0.00,WeatherDisplay:10.37,2013-10-12 10:01:00,
2013-10-12 05:02:00,62.6,54.6,28.58,SSE,158,7.1,7.1,75,0.00,CLR,,0.00,WeatherDisplay:10.37,2013-10-12 10:02:00,
2013-10-12 05:04:00,62.8,54.7,28.58,SSE,158,5.8,5.8,75,0.00,CLR,,0.00,WeatherDisplay:10.37,2013-10-12 10:04:00,
2013-10-12 05:05:00,62.8,54.7,28.58,South,180,5.8,5.8,75,0.00,CLR,,0.00,WeatherDisplay:10.37,2013-10-12 10:05:00,
2013-10-12 05:06:00,62.6,54.6,28.58,SSE,158,6.4,6.4,75,0.00,CLR,,0.00,WeatherDisplay:10.37,2013-10-12 10:06:00,
2013-10-12 05:07:00,62.6,54.6,28.58,SSE,158,6.9,6.9,75,0.00,CLR,,0.00,WeatherDisplay:10.37,2013-10-12 10:07:00,
2013-10-12 05:08:00,62.6,54.6,28.58,South,180,6.9,6.9,75,0.00,CLR,,0.00,WeatherDisplay:10.37,2013-10-12 10:08:00,
2013-10-12 05:09:00,62.6,54.6,28.58,SSE,158,5.8,5.8,75,0.00,CLR,,0.00,WeatherDisplay:10.37,2013-10-12 10:09:00,
2013-10-12 05:10:00,62.6,54.6,28.58,SSE,158,6.9,6.9,75,0.00,CLR,,0.00,WeatherDisplay:10.37,2013-10-12 10:10:00,
2013-10-12 05:12:00,62.4,54.4,28.58,South,180,4.9,4.9,75,0.00,CLR,,0.00,WeatherDisplay:10.37,2013-10-12 10:12:00,
2013-10-12 05:13:00,62.4,54.8,28.58,SSE,158,5.8,5.8,76,0.00,CLR,,0.00,WeatherDisplay:10.37,2013-10-12 10:13:00,
2013-10-12 05:14:00,62.2,54.6,28.58,South,180,4.6,4.6,76,0.00,CLR,,0.00,WeatherDisplay:10.37,2013-10-12 10:14:00,
2013-10-12 05:16:00,62.2,54.6,28.58,South,180,4.6,4.6,76,0.00,CLR,,0.00,WeatherDisplay:10.37,2013-10-12 10:16:00,
2013-10-12 05:17:00,62.2,54.6,28.58,SSE,158,4.6,4.6,76,0.00,CLR,,0.00,WeatherDisplay:10.37,2013-10-12 10:17:00,
2013-10-12 05:18:00,62.2,54.6,28.58,South,180,4.6,4.6,76,0.00,CLR,,0.00,WeatherDisplay:10.37,2013-10-12 10:18:00,
2013-10-12 05:19:00,62.2,54.6,28.58,South,180,5.8,5.8,76,0.00,CLR,,0.00,WeatherDisplay:10.37,2013-10-12 10:19:00,
2013-10-12 05:20:00,62.2,54.6,28.58,SSE,158,5.8,5.8,76,0.00,CLR,,0.00,WeatherDisplay:10.37,2013-10-12 10:20:00,
2013-10-12 05:21:00,62.2,54.9,28.58,SSE,158,5.8,5.8,77,0.00,CLR,,0.00,WeatherDisplay:10.37,2013-10-12 10:21:00,
2013-10-12 05:23:00,62.2,54.9,28.58,SE,135,5.8,5.8,77,0.00,CLR,,0.00,WeatherDisplay:10.37,2013-10-12 10:23:00,
2013-10-12 05:24:00,62.2,54.9,28.58,SE,135,4.6,4.6,77,0.00,CLR,,0.00,WeatherDisplay:10.37,2013-10-12 10:24:00,
2013-10-12 05:25:00,62.2,54.9,28.60,SSE,154,3.0,6.0,77,0.00,CLR,,0.00,WeatherDisplay:10.37,2013-10-12 10:25:00,
2013-10-12 05:26:00,62.2,54.9,28.61,ESE,112,5.8,5.8,77,0.00,CLR,,0.00,WeatherDisplay:10.37,2013-10-12 10:26:00,
2013-10-12 05:28:00,62.1,54.8,28.61,SE,135,5.8,5.8,77,0.00,CLR,,0.00,WeatherDisplay:10.37,2013-10-12 10:28:00,
2013-10-12 05:29:00,62.1,54.8,28.61,SSE,158,5.8,5.8,77,0.00,CLR,,0.00,WeatherDisplay:10.37,2013-10-12 10:29:00,
2013-10-12 05:30:00,62.1,54.8,28.61,SSE,158,3.5,3.5,77,0.00,CLR,,0.00,WeatherDisplay:10.37,2013-10-12 10:30:00,
2013-10-12 05:31:00,62.1,55.1,28.61,SSE,158,4.6,4.6,78,0.00,CLR,,0.00,WeatherDisplay:10.37,2013-10-12 10:31:00,
2013-10-12 05:33:00,62.1,55.1,28.61,SSW,202,5.8,5.8,78,0.00,CLR,,0.00,WeatherDisplay:10.37,2013-10-12 10:33:00,
2013-10-12 05:34:00,62.2,55.3,28.61,SE,135,4.6,4.6,78,0.00,CLR,,0.00,WeatherDisplay:10.37,2013-10-12 10:34:00,
2013-10-12 05:35:00,62.2,55.3,28.61,SSE,158,4.9,4.9,78,0.00,CLR,,0.00,WeatherDisplay:10.37,2013-10-12 10:35:00,
2013-10-12 05:36:00,62.2,55.3,28.61,ESE,112,4.6,4.6,78,0.00,CLR,,0.00,WeatherDisplay:10.37,2013-10-12 10:36:00,
2013-10-12 05:38:00,62.2,55.3,28.61,SSE,158,3.5,3.5,78,0.00,CLR,,0.00,WeatherDisplay:10.37,2013-10-12 10:38:00,
2013-10-12 05:39:00,62.2,54.9,28.61,SE,135,3.5,3.5,77,0.00,CLR,,0.00,WeatherDisplay:10.37,2013-10-12 10:39:00,
2013-10-12 05:40:00,62.1,55.1,28.61,SE,135,3.5,3.5,78,0.00,CLR,,0.00,WeatherDisplay:10.37,2013-10-12 10:40:00,
2013-10-12 05:41:00,62.1,55.1,28.61,SSE,158,3.5,3.5,78,0.00,CLR,,0.00,WeatherDisplay:10.37,2013-10-12 10:41:00,
2013-10-12 05:43:00,62.1,55.1,28.61,WSW,248,3.5,3.5,78,0.00,CLR,,0.00,WeatherDisplay:10.37,2013-10-12 10:43:00,
2013-10-12 05:44:00,61.9,54.9,28.61,SSW,202,2.6,2.6,78,0.00,CLR,,0.00,WeatherDisplay:10.37,2013-10-12 10:44:00,
2013-10-12 05:45:00,61.9,54.9,28.61,SSW,202,2.9,2.9,78,0.00,CLR,,0.00,WeatherDisplay:10.37,2013-10-12 10:45:00,
2013-10-12 05:46:00,61.9,54.9,28.61,SSW,202,4.6,4.6,78,0.00,CLR,,0.00,WeatherDisplay:10.37,2013-10-12 10:46:00,
2013-10-12 05:48:00,61.9,54.9,28.61,WSW,248,2.3,2.3,78,0.00,CLR,,0.00,WeatherDisplay:10.37,2013-10-12 10:48:00,
2013-10-12 05:49:00,61.9,55.3,28.61,West,270,3.5,3.5,79,0.00,CLR,,0.00,WeatherDisplay:10.37,2013-10-12 10:49:00,
2013-10-12 05:50:00,61.9,55.3,28.61,West,270,4.6,4.6,79,0.00,CLR,,0.00,WeatherDisplay:10.37,2013-10-12 10:50:00,
2013-10-12 05:51:00,61.9,55.3,28.61,WNW,292,4.6,4.6,79,0.00,CLR,,0.00,WeatherDisplay:10.37,2013-10-12 10:51:00,
2013-10-12 05:52:00,61.9,55.3,28.61,SSE,158,4.6,4.6,79,0.00,CLR,,0.00,WeatherDisplay:10.37,2013-10-12 10:52:00,
2013-10-12 05:53:00,62.1,55.5,28.61,South,180,5.8,5.8,79,0.00,CLR,,0.00,WeatherDisplay:10.37,2013-10-12 10:53:00,
2013-10-12 05:55:00,62.1,55.5,28.58,SSW,202,5.8,5.8,79,0.00,CLR,,0.00,WeatherDisplay:10.37,2013-10-12 10:55:00,
2013-10-12 05:56:00,62.2,55.6,28.58,SE,135,4.9,4.9,79,0.00,CLR,,0.00,WeatherDisplay:10.37,2013-10-12 10:56:00,
2013-10-12 05:57:00,62.2,55.6,28.58,SSW,202,7.4,7.4,79,0.00,CLR,,0.00,WeatherDisplay:10.37,2013-10-12 10:57:00,
2013-10-12 05:58:00,62.2,55.6,28.58,SSW,202,6.9,6.9,79,0.00,CLR,,0.00,WeatherDisplay:10.37,2013-10-12 10:58:00,
2013-10-12 06:00:00,62.2,55.6,28.58,SSE,158,3.5,3.5,79,0.00,CLR,,0.00,WeatherDisplay:10.37,2013-10-12 11:00:00,
2013-10-12 06:01:00,62.4,55.8,28.58,South,180,3.5,3.5,79,0.00,CLR,,0.00,WeatherDisplay:10.37,2013-10-12 11:01:00,
2013-10-12 06:02:00,62.4,55.8,28.58,SSE,158,5.8,5.8,79,0.00,CLR,,0.00,WeatherDisplay:10.37,2013-10-12 11:02:00,
2013-10-12 06:03:00,62.4,55.8,28.58,SSE,158,4.6,4.6,79,0.00,CLR,,0.00,WeatherDisplay:10.37,2013-10-12 11:03:00,
2013-10-12 06:05:00,62.6,55.6,28.58,SE,135,5.8,5.8,78,0.00,CLR,,0.00,WeatherDisplay:10.37,2013-10-12 11:05:00,
2013-10-12 06:06:00,62.4,55.5,28.58,SSW,202,2.3,2.3,78,0.00,CLR,,0.00,WeatherDisplay:10.37,2013-10-12 11:06:00,
2013-10-12 06:07:00,62.4,55.5,28.58,SSE,158,6.9,6.9,78,0.00,CLR,,0.00,WeatherDisplay:10.37,2013-10-12 11:07:00,
2013-10-12 06:08:00,62.4,55.5,28.58,SSE,158,6.9,6.9,78,0.00,CLR,,0.00,WeatherDisplay:10.37,2013-10-12 11:08:00,
2013-10-12 06:10:00,62.4,55.5,28.58,SSE,158,4.6,4.6,78,0.00,CLR,,0.00,WeatherDisplay:10.37,2013-10-12 11:10:00,
2013-10-12 06:11:00,62.4,55.5,28.58,WSW,248,4.6,4.6,78,0.00,CLR,,0.00,WeatherDisplay:10.37,2013-10-12 11:11:00,
2013-10-12 06:12:00,62.4,55.5,28.58,SSE,158,4.6,4.6,78,0.00,CLR,,0.00,WeatherDisplay:10.37,2013-10-12 11:12:00,
2013-10-12 06:13:00,62.4,55.5,28.58,SSE,158,6.9,6.9,78,0.00,CLR,,0.00,WeatherDisplay:10.37,2013-10-12 11:13:00,
2013-10-12 06:14:00,62.4,55.5,28.58,South,180,5.8,5.8,78,0.00,CLR,,0.00,WeatherDisplay:10.37,2013-10-12 11:14:00,
2013-10-12 06:15:00,62.4,55.5,28.58,SSE,158,6.9,6.9,78,0.00,CLR,,0.00,WeatherDisplay:10.37,2013-10-12 11:15:00,
2013-10-12 06:16:00,62.4,55.5,28.58,SSW,202,4.6,4.6,78,0.00,CLR,,0.00,WeatherDisplay:10.37,2013-10-12 11:16:00,
2013-10-12 06:17:00,62.4,55.8,28.58,SE,135,5.8,5.8,79,0.00,CLR,,0.00,WeatherDisplay:10.37,2013-10-12 11:17:00,
2013-10-12 06:18:00,62.6,55.6,28.58,South,180,5.8,5.8,78,0.00,CLR,,0.00,WeatherDisplay:10.37,2013-10-12 11:18:00,
2013-10-12 06:19:00,62.6,55.6,28.58,South,180,5.8,5.8,78,0.00,CLR,,0.00,WeatherDisplay:10.37,2013-10-12 11:19:00,
2013-10-12 06:20:00,62.6,55.6,28.58,SW,225,4.6,4.6,78,0.00,CLR,,0.00,WeatherDisplay:10.37,2013-10-12 11:20:00,
2013-10-12 06:21:00,62.6,55.6,28.58,South,180,7.6,7.6,78,0.00,CLR,,0.00,WeatherDisplay:10.37,2013-10-12 11:21:00,
2013-10-12 06:23:00,62.6,55.6,28.58,SE,135,8.5,8.5,78,0.00,CLR,,0.00,WeatherDisplay:10.37,2013-10-12 11:23:00,
2013-10-12 06:24:00,62.6,55.6,28.58,SSE,158,8.1,8.1,78,0.00,CLR,,0.00,WeatherDisplay:10.37,2013-10-12 11:24:00,
2013-10-12 06:25:00,62.8,55.8,28.61,SSE,158,8.1,8.1,78,0.00,CLR,,0.00,WeatherDisplay:10.37,2013-10-12 11:25:00,
2013-10-12 06:26:00,62.8,55.8,28.61,SSE,158,9.2,9.2,78,0.00,CLR,,0.00,WeatherDisplay:10.37,2013-10-12 11:26:00,
2013-10-12 06:28:00,62.8,55.8,28.61,WNW,292,5.8,5.8,78,0.00,CLR,,0.00,WeatherDisplay:10.37,2013-10-12 11:28:00,
2013-10-12 06:29:00,63.0,55.6,28.61,SSW,202,5.8,5.8,77,0.00,CLR,,0.00,WeatherDisplay:10.37,2013-10-12 11:29:00,
2013-10-12 06:31:00,63.0,55.6,28.61,SW,225,3.5,3.5,77,0.00,CLR,,0.00,WeatherDisplay:10.37,2013-10-12 11:31:00,
2013-10-12 06:33:00,63.0,55.6,28.61,SSW,202,4.6,4.6,77,0.00,CLR,,0.00,WeatherDisplay:10.37,2013-10-12 11:33:00,
2013-10-12 06:34:00,63.0,55.6,28.61,SSW,202,4.6,4.6,77,0.00,CLR,,0.00,WeatherDisplay:10.37,2013-10-12 11:34:00,
2013-10-12 06:35:00,63.0,55.6,28.61,SSE,158,2.3,3.1,77,0.00,CLR,,0.00,WeatherDisplay:10.37,2013-10-12 11:35:00,
2013-10-12 06:36:00,63.0,55.6,28.61,SSW,202,6.9,6.9,77,0.00,CLR,,0.00,WeatherDisplay:10.37,2013-10-12 11:36:00,
2013-10-12 06:38:00,63.0,55.6,28.61,SSW,202,5.8,5.8,77,0.00,CLR,,0.00,WeatherDisplay:10.37,2013-10-12 11:38:00,
2013-10-12 06:39:00,63.1,55.8,28.61,SSW,202,8.1,8.1,77,0.00,CLR,,0.00,WeatherDisplay:10.37,2013-10-12 11:39:00,
2013-10-12 06:40:00,63.1,55.8,28.61,SSE,158,5.8,5.8,77,0.00,CLR,,0.00,WeatherDisplay:10.37,2013-10-12 11:40:00,
2013-10-12 06:41:00,63.1,55.8,28.61,West,270,6.9,6.9,77,0.00,CLR,,0.00,WeatherDisplay:10.37,2013-10-12 11:41:00,
2013-10-12 06:42:00,63.1,55.8,28.61,SSE,158,6.9,6.9,77,0.00,CLR,,0.00,WeatherDisplay:10.37,2013-10-12 11:42:00,
2013-10-12 06:44:00,63.1,55.8,28.61,SW,225,5.8,5.8,77,0.00,CLR,,0.00,WeatherDisplay:10.37,2013-10-12 11:44:00,
2013-10-12 06:45:00,63.1,55.8,28.61,South,180,6.9,6.9,77,0.00,CLR,,0.00,WeatherDisplay:10.37,2013-10-12 11:45:00,
2013-10-12 06:46:00,63.1,55.8,28.61,South,180,4.6,4.6,77,0.00,CLR,,0.00,WeatherDisplay:10.37,2013-10-12 11:46:00,
2013-10-12 06:47:00,63.1,55.8,28.61,SSE,158,3.8,3.8,77,0.00,CLR,,0.00,WeatherDisplay:10.37,2013-10-12 11:47:00,
2013-10-12 06:49:00,63.1,55.8,28.61,SW,225,4.6,4.6,77,0.00,CLR,,0.00,WeatherDisplay:10.37,2013-10-12 11:49:00,
2013-10-12 06:50:00,63.1,55.8,28.61,South,180,4.6,4.6,77,0.00,CLR,,0.00,WeatherDisplay:10.37,2013-10-12 11:50:00,
2013-10-12 06:51:00,63.1,55.8,28.61,SSE,158,4.6,4.6,77,0.00,CLR,,0.00,WeatherDisplay:10.37,2013-10-12 11:51:00,
2013-10-12 06:52:00,63.1,55.8,28.61,SSW,202,4.6,4.6,77,0.00,CLR,,0.00,WeatherDisplay:10.37,2013-10-12 11:52:00,
2013-10-12 06:54:00,63.1,55.8,28.61,SSW,202,4.6,4.6,77,0.00,CLR,,0.00,WeatherDisplay:10.37,2013-10-12 11:54:00,
2013-10-12 06:56:00,63.1,55.8,28.64,SSE,158,5.8,5.8,77,0.00,CLR,,0.00,WeatherDisplay:10.37,2013-10-12 11:56:00,
2013-10-12 06:57:00,63.3,56.0,28.64,SE,135,8.1,8.1,77,0.00,CLR,,0.00,WeatherDisplay:10.37,2013-10-12 11:57:00,
2013-10-12 06:58:00,63.3,56.0,28.64,SSW,202,8.1,8.1,77,0.00,CLR,,0.00,WeatherDisplay:10.37,2013-10-12 11:58:00,
2013-10-12 06:59:00,63.3,56.0,28.64,South,180,5.8,5.8,77,0.00,CLR,,0.00,WeatherDisplay:10.37,2013-10-12 11:59:00,
2013-10-12 07:01:00,63.1,55.8,28.64,SE,135,4.6,4.6,77,0.00,CLR,,0.00,WeatherDisplay:10.37,2013-10-12 12:01:00,
2013-10-12 07:02:00,63.1,55.8,28.64,SW,225,4.6,4.6,77,0.00,CLR,,0.00,WeatherDisplay:10.37,2013-10-12 12:02:00,
2013-10-12 07:03:00,63.1,55.8,28.64,SSE,158,4.6,4.6,77,0.00,CLR,,0.00,WeatherDisplay:10.37,2013-10-12 12:03:00,
2013-10-12 07:04:00,63.1,55.8,28.64,SSE,158,6.9,6.9,77,0.00,CLR,,0.00,WeatherDisplay:10.37,2013-10-12 12:04:00,
2013-10-12 07:06:00,63.1,55.8,28.64,South,180,5.8,5.8,77,0.00,CLR,,0.00,WeatherDisplay:10.37,2013-10-12 12:06:00,
2013-10-12 07:07:00,63.1,55.8,28.64,South,180,4.6,4.6,77,0.00,CLR,,0.00,WeatherDisplay:10.37,2013-10-12 12:07:00,
2013-10-12 07:08:00,63.1,55.8,28.64,WSW,248,3.5,3.5,77,0.00,CLR,,0.00,WeatherDisplay:10.37,2013-10-12 12:08:00,
2013-10-12 07:09:00,63.1,55.8,28.64,SSW,202,4.6,4.6,77,0.00,CLR,,0.00,WeatherDisplay:10.37,2013-10-12 12:09:00,
2013-10-12 07:10:00,63.1,55.8,28.64,SSW,202,2.3,3.1,77,0.00,CLR,,0.00,WeatherDisplay:10.37,2013-10-12 12:10:00,
2013-10-12 07:11:00,63.1,55.8,28.64,South,180,3.5,3.5,77,0.00,CLR,,0.00,WeatherDisplay:10.37,2013-10-12 12:11:00,
2013-10-12 07:12:00,63.1,55.8,28.64,SSE,158,5.9,5.9,77,0.00,CLR,,0.00,WeatherDisplay:10.37,2013-10-12 12:12:00,
2013-10-12 07:13:00,63.1,55.8,28.64,SW,225,9.2,9.2,77,0.00,CLR,,0.00,WeatherDisplay:10.37,2013-10-12 12:13:00,
2013-10-12 07:14:00,63.1,55.8,28.64,WNW,292,8.1,8.1,77,0.00,CLR,,0.00,WeatherDisplay:10.37,2013-10-12 12:14:00,
2013-10-12 07:15:00,63.1,55.8,28.64,South,180,5.8,5.8,77,0.00,CLR,,0.00,WeatherDisplay:10.37,2013-10-12 12:15:00,
2013-10-12 07:16:00,63.1,55.8,28.64,WSW,248,4.6,4.6,77,0.00,CLR,,0.00,WeatherDisplay:10.37,2013-10-12 12:16:00,
2013-10-12 07:18:00,63.1,55.8,28.64,SW,225,3.5,3.5,77,0.00,CLR,,0.00,WeatherDisplay:10.37,2013-10-12 12:18:00,
2013-10-12 07:19:00,63.3,56.0,28.64,SSW,202,5.8,5.8,77,0.00,CLR,,0.00,WeatherDisplay:10.37,2013-10-12 12:19:00,
2013-10-12 07:20:00,63.3,56.0,28.64,South,180,5.8,5.8,77,0.00,CLR,,0.00,WeatherDisplay:10.37,2013-10-12 12:20:00,
2013-10-12 07:21:00,63.3,56.0,28.64,SSW,202,3.8,3.8,77,0.00,CLR,,0.00,WeatherDisplay:10.37,2013-10-12 12:21:00,
2013-10-12 07:23:00,63.3,56.0,28.64,SW,225,3.5,3.5,77,0.00,CLR,,0.00,WeatherDisplay:10.37,2013-10-12 12:23:00,
2013-10-12 07:25:00,63.1,55.8,28.64,WSW,248,2.4,2.4,77,0.00,CLR,,0.00,WeatherDisplay:10.37,2013-10-12 12:25:00,
2013-10-12 07:26:00,63.1,55.8,28.64,SSW,202,3.5,3.5,77,0.00,CLR,,0.00,WeatherDisplay:10.37,2013-10-12 12:26:00,
2013-10-12 07:28:00,63.1,55.8,28.64,SSE,158,3.1,3.1,77,0.00,CLR,,0.00,WeatherDisplay:10.37,2013-10-12 12:28:00,
2013-10-12 07:29:00,63.1,55.8,28.64,South,180,3.5,3.5,77,0.00,CLR,,0.00,WeatherDisplay:10.37,2013-10-12 12:29:00,
2013-10-12 07:30:00,63.1,55.8,28.64,South,180,5.8,5.8,77,0.00,CLR,,0.00,WeatherDisplay:10.37,2013-10-12 12:30:00,
2013-10-12 07:31:00,63.3,56.0,28.64,South,180,5.8,5.8,77,0.00,CLR,,0.00,WeatherDisplay:10.37,2013-10-12 12:31:00,
2013-10-12 07:32:00,63.3,56.0,28.64,SSW,202,3.8,3.8,77,0.00,CLR,,0.00,WeatherDisplay:10.37,2013-10-12 12:32:00,
2013-10-12 07:33:00,63.3,56.3,28.64,SW,225,8.1,8.1,78,0.00,CLR,,0.00,WeatherDisplay:10.37,2013-10-12 12:33:00,
2013-10-12 07:34:00,63.3,56.3,28.64,South,180,8.1,8.1,78,0.00,CLR,,0.00,WeatherDisplay:10.37,2013-10-12 12:34:00,
2013-10-12 07:36:00,63.3,56.0,28.64,ESE,112,5.8,5.8,77,0.00,CLR,,0.00,WeatherDisplay:10.37,2013-10-12 12:36:00,
2013-10-12 07:37:00,63.3,56.0,28.64,SW,225,5.8,5.8,77,0.00,CLR,,0.00,WeatherDisplay:10.37,2013-10-12 12:37:00,
2013-10-12 07:38:00,63.5,56.2,28.64,West,270,5.8,5.8,77,0.00,CLR,,0.00,WeatherDisplay:10.37,2013-10-12 12:38:00,
2013-10-12 07:39:00,63.5,56.2,28.64,SSW,202,4.6,4.6,77,0.00,CLR,,0.00,WeatherDisplay:10.37,2013-10-12 12:39:00,
2013-10-12 07:41:00,63.3,56.0,28.64,SW,225,3.3,3.3,77,0.00,CLR,,0.00,WeatherDisplay:10.37,2013-10-12 12:41:00,
2013-10-12 07:42:00,63.3,56.3,28.64,SSE,158,5.8,5.8,78,0.00,CLR,,0.00,WeatherDisplay:10.37,2013-10-12 12:42:00,
2013-10-12 07:43:00,63.3,56.3,28.64,SSW,202,6.9,6.9,78,0.00,CLR,,0.00,WeatherDisplay:10.37,2013-10-12 12:43:00,
2013-10-12 07:44:00,63.3,56.0,28.64,SSW,202,5.8,5.8,77,0.00,CLR,,0.00,WeatherDisplay:10.37,2013-10-12 12:44:00,
2013-10-12 07:46:00,63.3,56.0,28.64,SSW,202,5.8,5.8,77,0.00,CLR,,0.00,WeatherDisplay:10.37,2013-10-12 12:46:00,
2013-10-12 07:47:00,63.3,56.0,28.64,SSW,202,2.3,2.6,77,0.00,CLR,,0.00,WeatherDisplay:10.37,2013-10-12 12:47:00,
2013-10-12 07:48:00,63.3,56.0,28.64,South,180,2.3,2.6,77,0.00,CLR,,0.00,WeatherDisplay:10.37,2013-10-12 12:48:00,
2013-10-12 07:49:00,63.3,56.3,28.64,SW,225,2.9,2.9,78,0.00,CLR,,0.00,WeatherDisplay:10.37,2013-10-12 12:49:00,
2013-10-12 07:52:00,63.3,56.3,28.64,SSW,202,5.8,5.8,78,0.00,CLR,,0.00,WeatherDisplay:10.37,2013-10-12 12:52:00,
2013-10-12 07:53:00,63.3,56.3,28.64,SSE,158,5.8,5.8,78,0.00,CLR,,0.00,WeatherDisplay:10.37,2013-10-12 12:53:00,
2013-10-12 07:54:00,63.3,56.3,28.64,South,180,4.6,4.6,78,0.00,CLR,,0.00,WeatherDisplay:10.37,2013-10-12 12:54:00,
2013-10-12 07:57:00,63.3,56.3,28.64,SSW,202,4.7,4.7,78,0.00,CLR,,0.00,WeatherDisplay:10.37,2013-10-12 12:57:00,
2013-10-12 07:58:00,63.3,56.3,28.64,SSE,158,4.6,4.6,78,0.00,CLR,,0.00,WeatherDisplay:10.37,2013-10-12 12:58:00,
2013-10-12 07:59:00,63.3,56.3,28.64,SSW,202,4.3,4.3,78,0.00,CLR,,0.00,WeatherDisplay:10.37,2013-10-12 12:59:00,
2013-10-12 08:02:00,63.1,56.2,28.64,SSW,202,4.6,4.6,78,0.00,CLR,,0.00,WeatherDisplay:10.37,2013-10-12 13:02:00,
2013-10-12 08:03:00,63.1,56.2,28.64,SSE,158,4.6,4.6,78,0.00,CLR,,0.00,WeatherDisplay:10.37,2013-10-12 13:03:00,
2013-10-12 08:04:00,63.1,56.2,28.64,West,270,3.6,3.6,78,0.00,CLR,,0.00,WeatherDisplay:10.37,2013-10-12 13:04:00,
2013-10-12 08:05:00,63.1,56.2,28.64,SSW,202,3.5,3.5,78,0.00,CLR,,0.00,WeatherDisplay:10.37,2013-10-12 13:05:00,
2013-10-12 08:07:00,63.1,56.2,28.64,SSW,202,2.3,2.3,78,0.00,CLR,,0.00,WeatherDisplay:10.37,2013-10-12 13:07:00,
2013-10-12 08:08:00,63.1,56.2,28.64,WSW,248,2.3,2.3,78,0.00,CLR,,0.00,WeatherDisplay:10.37,2013-10-12 13:08:00,
2013-10-12 08:09:00,63.1,56.2,28.64,WSW,248,2.3,2.3,78,0.00,CLR,,0.00,WeatherDisplay:10.37,2013-10-12 13:09:00,
2013-10-12 08:10:00,63.1,56.2,28.67,WSW,248,2.3,2.3,78,0.00,CLR,,0.00,WeatherDisplay:10.37,2013-10-12 13:10:00,
2013-10-12 08:12:00,63.1,56.2,28.67,SW,225,2.3,2.3,78,0.00,CLR,,0.00,WeatherDisplay:10.37,2013-10-12 13:12:00,
2013-10-12 08:13:00,63.1,56.2,28.67,WNW,292,2.3,2.3,78,0.00,CLR,,0.00,WeatherDisplay:10.37,2013-10-12 13:13:00,
2013-10-12 08:14:00,63.1,56.2,28.67,WSW,248,2.3,2.3,78,0.00,CLR,,0.00,WeatherDisplay:10.37,2013-10-12 13:14:00,
2013-10-12 08:15:00,63.1,56.2,28.67,SW,225,3.5,3.5,78,0.00,CLR,,0.00,WeatherDisplay:10.37,2013-10-12 13:15:00,
2013-10-12 08:18:00,63.1,56.2,28.67,WSW,248,3.5,3.5,78,0.00,CLR,,0.00,WeatherDisplay:10.37,2013-10-12 13:18:00,
2013-10-12 08:19:00,63.1,56.2,28.67,South,180,2.3,2.3,78,0.00,CLR,,0.00,WeatherDisplay:10.37,2013-10-12 13:19:00,
2013-10-12 08:20:00,63.1,56.2,28.67,WSW,248,1.2,1.2,78,0.00,CLR,,0.00,WeatherDisplay:10.37,2013-10-12 13:20:00,
2013-10-12 08:23:00,63.1,56.5,28.67,NE,45,2.9,2.9,79,0.00,CLR,,0.00,WeatherDisplay:10.37,2013-10-12 13:23:00,
2013-10-12 08:24:00,63.1,56.5,28.67,South,180,2.3,2.3,79,0.00,CLR,,0.00,WeatherDisplay:10.37,2013-10-12 13:24:00,
2013-10-12 08:25:00,63.1,56.5,28.67,South,180,2.3,2.3,79,0.00,CLR,,0.00,WeatherDisplay:10.37,2013-10-12 13:25:00,
2013-10-12 08:26:00,63.1,56.5,28.67,SW,225,2.3,2.3,79,0.00,CLR,,0.00,WeatherDisplay:10.37,2013-10-12 13:26:00,
2013-10-12 08:28:00,63.1,56.2,28.67,SE,135,4.6,4.6,78,0.00,CLR,,0.00,WeatherDisplay:10.37,2013-10-12 13:28:00,
2013-10-12 08:29:00,63.0,56.0,28.67,WNW,292,7.4,7.4,78,0.00,CLR,,0.00,WeatherDisplay:10.37,2013-10-12 13:29:00,
2013-10-12 08:30:00,63.0,56.0,28.67,WSW,248,6.9,6.9,78,0.00,CLR,,0.00,WeatherDisplay:10.37,2013-10-12 13:30:00,
2013-10-12 08:31:00,63.0,54.9,28.67,WNW,292,8.1,8.1,75,0.00,CLR,,0.00,WeatherDisplay:10.37,2013-10-12 13:31:00,
2013-10-12 08:34:00,62.8,53.2,28.67,SW,225,5.8,5.8,71,0.00,CLR,,0.00,WeatherDisplay:10.37,2013-10-12 13:34:00,
2013-10-12 08:35:00,62.6,52.7,28.67,West,270,8.1,8.1,70,0.00,CLR,,0.00,WeatherDisplay:10.37,2013-10-12 13:35:00,
2013-10-12 08:36:00,62.6,52.7,28.67,WSW,248,8.1,8.1,70,0.00,CLR,,0.00,WeatherDisplay:10.37,2013-10-12 13:36:00,
2013-10-12 08:37:00,62.6,52.3,28.67,West,270,8.1,8.1,69,0.00,CLR,,0.00,WeatherDisplay:10.37,2013-10-12 13:37:00,
2013-10-12 08:39:00,62.4,51.3,28.67,West,270,10.4,10.4,67,0.00,CLR,,0.00,WeatherDisplay:10.37,2013-10-12 13:39:00,
2013-10-12 08:40:00,62.4,51.7,28.67,SSW,202,3.5,3.5,68,0.00,CLR,,0.00,WeatherDisplay:10.37,2013-10-12 13:40:00,
2013-10-12 08:41:00,62.4,51.7,28.67,SW,225,3.5,3.5,68,0.00,CLR,,0.00,WeatherDisplay:10.37,2013-10-12 13:41:00,
2013-10-12 08:42:00,62.2,51.5,28.67,SW,225,3.5,3.5,68,0.00,CLR,,0.00,WeatherDisplay:10.37,2013-10-12 13:42:00,
2013-10-12 08:44:00,62.2,51.1,28.67,West,270,4.6,4.6,67,0.00,CLR,,0.00,WeatherDisplay:10.37,2013-10-12 13:44:00,
2013-10-12 08:46:00,62.2,51.1,28.67,NW,315,4.6,4.6,67,0.00,CLR,,0.00,WeatherDisplay:10.37,2013-10-12 13:46:00,
2013-10-12 08:47:00,62.2,51.5,28.67,WNW,292,2.3,2.3,68,0.00,CLR,,0.00,WeatherDisplay:10.37,2013-10-12 13:47:00,
2013-10-12 08:49:00,61.9,50.8,28.67,WSW,248,7.6,7.6,67,0.00,CLR,,0.00,WeatherDisplay:10.37,2013-10-12 13:49:00,
2013-10-12 08:50:00,62.0,51.3,28.67,WSW,243,2.0,8.0,68,0.00,CLR,,0.00,WeatherDisplay:10.37,2013-10-12 13:50:00,
2013-10-12 08:51:00,61.9,50.4,28.67,West,270,8.1,8.1,66,0.00,CLR,,0.00,WeatherDisplay:10.37,2013-10-12 13:51:00,
2013-10-12 08:52:00,61.9,50.4,28.67,SSW,202,5.8,5.8,66,0.00,CLR,,0.00,WeatherDisplay:10.37,2013-10-12 13:52:00,
2013-10-12 08:55:00,61.9,50.4,28.67,West,270,3.6,3.6,66,0.00,CLR,,0.00,WeatherDisplay:10.37,2013-10-12 13:55:00,
2013-10-12 08:56:00,61.7,50.2,28.67,West,270,5.8,5.8,66,0.00,CLR,,0.00,WeatherDisplay:10.37,2013-10-12 13:56:00,
2013-10-12 08:59:00,61.7,50.2,28.67,WSW,248,1.4,0.0,66,0.00,CLR,,0.00,WeatherDisplay:10.37,2013-10-12 13:59:00,
2013-10-12 09:00:00,61.7,50.2,28.67,WSW,248,2.4,0.0,66,0.00,CLR,,0.00,WeatherDisplay:10.37,2013-10-12 14:00:00,
2013-10-12 09:01:00,61.7,50.2,28.67,West,270,2.3,2.3,66,0.00,CLR,,0.00,WeatherDisplay:10.37,2013-10-12 14:01:00,
2013-10-12 09:02:00,61.7,50.2,28.67,West,270,2.6,2.6,66,0.00,CLR,,0.00,WeatherDisplay:10.37,2013-10-12 14:02:00,
2013-10-12 09:04:00,61.5,50.1,28.67,WNW,292,3.5,3.5,66,0.00,CLR,,0.00,WeatherDisplay:10.37,2013-10-12 14:04:00,
2013-10-12 09:05:00,61.3,49.9,28.67,SSW,202,3.5,3.5,66,0.00,CLR,,0.00,WeatherDisplay:10.37,2013-10-12 14:05:00,
2013-10-12 09:06:00,61.3,49.5,28.67,West,270,2.6,2.6,65,0.00,CLR,,0.00,WeatherDisplay:10.37,2013-10-12 14:06:00,
2013-10-12 09:07:00,61.3,49.5,28.67,WSW,248,2.3,2.3,65,0.00,CLR,,0.00,WeatherDisplay:10.37,2013-10-12 14:07:00,
2013-10-12 09:08:00,61.3,49.9,28.67,SW,225,2.3,2.3,66,0.00,CLR,,0.00,WeatherDisplay:10.37,2013-10-12 14:08:00,
2013-10-12 09:09:00,61.3,49.9,28.67,SSW,202,2.3,2.3,66,0.00,CLR,,0.00,WeatherDisplay:10.37,2013-10-12 14:09:00,
2013-10-12 09:11:00,61.2,49.7,28.67,WSW,248,4.9,4.9,66,0.00,CLR,,0.00,WeatherDisplay:10.37,2013-10-12 14:11:00,
2013-10-12 09:12:00,61.2,48.9,28.67,West,270,4.6,4.6,64,0.00,CLR,,0.00,WeatherDisplay:10.37,2013-10-12 14:12:00,
2013-10-12 09:13:00,61.0,48.7,28.67,West,270,4.6,4.6,64,0.00,CLR,,0.00,WeatherDisplay:10.37,2013-10-12 14:13:00,
2013-10-12 09:15:00,61.0,48.3,28.67,WSW,248,4.6,4.6,63,0.00,CLR,,0.00,WeatherDisplay:10.37,2013-10-12 14:15:00,
2013-10-12 09:16:00,61.0,48.7,28.67,SW,225,2.3,2.3,64,0.00,CLR,,0.00,WeatherDisplay:10.37,2013-10-12 14:16:00,
2013-10-12 09:17:00,60.8,48.5,28.67,West,270,4.6,4.6,64,0.00,CLR,,0.00,WeatherDisplay:10.37,2013-10-12 14:17:00,
2013-10-12 09:18:00,60.8,48.5,28.67,West,270,4.6,4.6,64,0.00,CLR,,0.00,WeatherDisplay:10.37,2013-10-12 14:18:00,
2013-10-12 09:19:00,60.8,49.0,28.67,WSW,248,2.3,2.3,65,0.00,CLR,,0.00,WeatherDisplay:10.37,2013-10-12 14:19:00,
2013-10-12 09:20:00,60.8,49.0,28.67,West,270,2.3,2.3,65,0.00,CLR,,0.00,WeatherDisplay:10.37,2013-10-12 14:20:00,
2013-10-12 09:21:00,60.8,49.0,28.67,WSW,248,2.3,2.3,65,0.00,CLR,,0.00,WeatherDisplay:10.37,2013-10-12 14:21:00,
2013-10-12 09:23:00,60.8,49.0,28.67,West,270,4.0,4.0,65,0.00,CLR,,0.00,WeatherDisplay:10.37,2013-10-12 14:23:00,
2013-10-12 09:24:00,60.8,48.5,28.67,SSW,202,4.6,4.6,64,0.00,CLR,,0.00,WeatherDisplay:10.37,2013-10-12 14:24:00,
2013-10-12 09:25:00,61.0,48.7,28.67,SSW,202,2.4,2.4,64,0.00,CLR,,0.00,WeatherDisplay:10.37,2013-10-12 14:25:00,
2013-10-12 09:26:00,61.0,49.1,28.67,West,270,4.0,4.0,65,0.00,CLR,,0.00,WeatherDisplay:10.37,2013-10-12 14:26:00,
2013-10-12 09:28:00,61.0,48.7,28.67,WSW,248,2.3,2.3,64,0.00,CLR,,0.00,WeatherDisplay:10.37,2013-10-12 14:28:00,
2013-10-12 09:29:00,61.0,48.7,28.67,SW,225,2.3,2.3,64,0.00,CLR,,0.00,WeatherDisplay:10.37,2013-10-12 14:29:00,
2013-10-12 09:30:00,61.2,48.9,28.67,SE,135,4.6,4.6,64,0.00,CLR,,0.00,WeatherDisplay:10.37,2013-10-12 14:30:00,
2013-10-12 09:31:00,61.2,48.9,28.67,SSW,202,3.5,3.5,64,0.00,CLR,,0.00,WeatherDisplay:10.37,2013-10-12 14:31:00,
2013-10-12 09:32:00,61.3,49.1,28.67,WNW,292,3.3,3.3,64,0.00,CLR,,0.00,WeatherDisplay:10.37,2013-10-12 14:32:00,
2013-10-12 09:33:00,61.3,49.1,28.67,West,270,4.6,4.6,64,0.00,CLR,,0.00,WeatherDisplay:10.37,2013-10-12 14:33:00,
2013-10-12 09:34:00,61.3,49.1,28.67,SSW,202,3.5,3.5,64,0.00,CLR,,0.00,WeatherDisplay:10.37,2013-10-12 14:34:00,
2013-10-12 09:35:00,61.2,48.9,28.67,WSW,248,3.5,3.5,64,0.00,CLR,,0.00,WeatherDisplay:10.37,2013-10-12 14:35:00,
2013-10-12 09:36:00,61.2,48.9,28.67,WSW,248,2.6,2.6,64,0.00,CLR,,0.00,WeatherDisplay:10.37,2013-10-12 14:36:00,
2013-10-12 09:37:00,61.2,48.9,28.67,West,270,5.8,5.8,64,0.00,CLR,,0.00,WeatherDisplay:10.37,2013-10-12 14:37:00,
2013-10-12 09:38:00,61.2,49.3,28.67,NNE,22,3.5,3.5,65,0.00,CLR,,0.00,WeatherDisplay:10.37,2013-10-12 14:38:00,
2013-10-12 09:39:00,61.2,49.3,28.67,NNE,22,2.3,2.3,65,0.00,CLR,,0.00,WeatherDisplay:10.37,2013-10-12 14:39:00,
2013-10-12 09:41:00,61.2,49.3,28.67,West,270,4.6,4.6,65,0.00,CLR,,0.00,WeatherDisplay:10.37,2013-10-12 14:41:00,
2013-10-12 09:42:00,61.5,49.6,28.67,WSW,248,3.5,3.6,65,0.00,CLR,,0.00,WeatherDisplay:10.37,2013-10-12 14:42:00,
2013-10-12 09:44:00,62.2,49.9,28.67,West,270,6.9,6.9,64,0.00,CLR,,0.00,WeatherDisplay:10.37,2013-10-12 14:44:00,
2013-10-12 09:46:00,62.2,49.1,28.67,SSW,202,5.8,5.8,62,0.00,CLR,,0.00,WeatherDisplay:10.37,2013-10-12 14:46:00,
2013-10-12 09:47:00,62.8,49.6,28.67,North,0,4.6,4.6,62,0.00,CLR,,0.00,WeatherDisplay:10.37,2013-10-12 14:47:00,
2013-10-12 09:49:00,63.5,50.7,28.67,SSW,202,4.0,4.0,63,0.00,CLR,,0.00,WeatherDisplay:10.37,2013-10-12 14:49:00,
2013-10-12 09:50:00,63.7,49.5,28.67,WSW,248,8.7,8.7,60,0.00,CLR,,0.00,WeatherDisplay:10.37,2013-10-12 14:50:00,
2013-10-12 09:51:00,63.9,48.3,28.67,North,0,9.2,9.2,57,0.00,CLR,,0.00,WeatherDisplay:10.37,2013-10-12 14:51:00,
2013-10-12 09:52:00,63.9,48.3,28.67,SW,225,8.1,8.1,57,0.00,CLR,,0.00,WeatherDisplay:10.37,2013-10-12 14:52:00,
2013-10-12 09:54:00,64.4,48.8,28.67,East,90,4.6,4.6,57,0.00,CLR,,0.00,WeatherDisplay:10.37,2013-10-12 14:54:00,
2013-10-12 09:55:00,64.4,48.8,28.67,WSW,248,3.5,3.5,57,0.00,CLR,,0.00,WeatherDisplay:10.37,2013-10-12 14:55:00,
2013-10-12 09:56:00,64.8,49.2,28.67,SSW,202,5.8,5.8,57,0.00,CLR,,0.00,WeatherDisplay:10.37,2013-10-12 14:56:00,
2013-10-12 09:57:00,64.9,49.3,28.67,WSW,248,5.8,5.8,57,0.00,CLR,,0.00,WeatherDisplay:10.37,2013-10-12 14:57:00,
2013-10-12 10:00:00,65.1,48.1,28.67,WNW,292,10.4,10.4,54,0.00,CLR,,0.00,WeatherDisplay:10.37,2013-10-12 15:00:00,
2013-10-12 10:01:00,65.1,47.6,28.67,South,180,8.1,8.1,53,0.00,CLR,,0.00,WeatherDisplay:10.37,2013-10-12 15:01:00,
2013-10-12 10:02:00,65.1,47.6,28.67,SW,225,10.0,10.0,53,0.00,CLR,,0.00,WeatherDisplay:10.37,2013-10-12 15:02:00,
2013-10-12 10:03:00,64.8,45.7,28.67,West,270,10.4,10.4,50,0.00,CLR,,0.00,WeatherDisplay:10.37,2013-10-12 15:03:00,
2013-10-12 10:05:00,64.9,45.8,28.67,SSW,202,11.5,11.5,50,0.00,CLR,,0.00,WeatherDisplay:10.37,2013-10-12 15:05:00,
2013-10-12 10:06:00,64.9,45.3,28.67,South,180,10.7,10.7,49,0.00,CLR,,0.00,WeatherDisplay:10.37,2013-10-12 15:06:00,
2013-10-12 10:07:00,64.9,45.3,28.67,SSE,158,10.4,10.4,49,0.00,CLR,,0.00,WeatherDisplay:10.37,2013-10-12 15:07:00,
2013-10-12 10:09:00,65.1,45.5,28.67,WSW,248,9.2,9.2,49,0.00,CLR,,0.00,WeatherDisplay:10.37,2013-10-12 15:09:00,
2013-10-12 10:10:00,65.1,44.9,28.70,West,270,8.1,8.1,48,0.00,CLR,,0.00,WeatherDisplay:10.37,2013-10-12 15:10:00,
2013-10-12 10:11:00,65.3,45.1,28.70,West,270,10.4,10.4,48,0.00,CLR,,0.00,WeatherDisplay:10.37,2013-10-12 15:11:00,
2013-10-12 10:12:00,65.5,45.3,28.70,SSW,202,10.4,10.4,48,0.00,CLR,,0.00,WeatherDisplay:10.37,2013-10-12 15:12:00,
2013-10-12 10:13:00,65.3,45.1,28.70,SSW,202,6.0,6.0,48,0.00,CLR,,0.00,WeatherDisplay:10.37,2013-10-12 15:13:00,
2013-10-12 10:14:00,65.5,44.7,28.70,WSW,248,8.1,8.1,47,0.00,CLR,,0.00,WeatherDisplay:10.37,2013-10-12 15:14:00,
2013-10-12 10:16:00,65.7,44.9,28.70,WSW,248,6.9,6.9,47,0.00,CLR,,0.00,WeatherDisplay:10.37,2013-10-12 15:16:00,
2013-10-12 10:17:00,65.8,45.6,28.70,NNW,338,6.9,6.9,48,0.00,CLR,,0.00,WeatherDisplay:10.37,2013-10-12 15:17:00,
2013-10-12 10:18:00,66.0,45.8,28.70,North,0,6.9,6.9,48,0.00,CLR,,0.00,WeatherDisplay:10.37,2013-10-12 15:18:00,
2013-10-12 10:19:00,66.0,45.8,28.70,WSW,248,5.8,5.8,48,0.00,CLR,,0.00,WeatherDisplay:10.37,2013-10-12 15:19:00,
2013-10-12 10:21:00,66.2,45.9,28.70,SW,225,5.8,5.8,48,0.00,CLR,,0.00,WeatherDisplay:10.37,2013-10-12 15:21:00,
2013-10-12 10:22:00,66.2,45.9,28.70,WSW,248,4.6,4.6,48,0.00,CLR,,0.00,WeatherDisplay:10.37,2013-10-12 15:22:00,
2013-10-12 10:23:00,66.0,46.3,28.70,SSE,158,6.9,6.9,49,0.00,CLR,,0.00,WeatherDisplay:10.37,2013-10-12 15:23:00,
2013-10-12 10:24:00,66.0,46.3,28.70,South,180,6.9,6.9,49,0.00,CLR,,0.00,WeatherDisplay:10.37,2013-10-12 15:24:00,
2013-10-12 10:26:00,66.7,46.4,28.70,West,270,7.6,7.6,48,0.00,CLR,,0.00,WeatherDisplay:10.37,2013-10-12 15:26:00,
2013-10-12 10:28:00,66.7,45.3,28.70,West,270,5.6,5.6,46,0.00,CLR,,0.00,WeatherDisplay:10.37,2013-10-12 15:28:00,
2013-10-12 10:29:00,66.7,45.3,28.70,West,270,10.4,10.4,46,0.00,CLR,,0.00,WeatherDisplay:10.37,2013-10-12 15:29:00,
2013-10-12 10:30:00,66.7,45.9,28.70,North,0,6.9,6.9,47,0.00,CLR,,0.00,WeatherDisplay:10.37,2013-10-12 15:30:00,
2013-10-12 10:31:00,66.6,45.1,28.70,SW,225,7.6,7.6,46,0.00,CLR,,0.00,WeatherDisplay:10.37,2013-10-12 15:31:00,
2013-10-12 10:33:00,66.6,45.1,28.70,WSW,248,9.2,9.2,46,0.00,CLR,,0.00,WeatherDisplay:10.37,2013-10-12 15:33:00,
2013-10-12 10:34:00,66.6,45.1,28.70,WSW,248,8.1,8.1,46,0.00,CLR,,0.00,WeatherDisplay:10.37,2013-10-12 15:34:00,
2013-10-12 10:35:00,66.7,45.9,28.70,NNW,338,3.5,3.5,47,0.00,CLR,,0.00,WeatherDisplay:10.37,2013-10-12 15:35:00,
2013-10-12 10:36:00,66.9,46.0,28.70,SSW,202,2.3,2.4,47,0.00,CLR,,0.00,WeatherDisplay:10.37,2013-10-12 15:36:00,
2013-10-12 10:39:00,67.1,45.0,28.70,South,180,9.2,9.2,45,0.00,CLR,,0.00,WeatherDisplay:10.37,2013-10-12 15:39:00,
2013-10-12 10:40:00,67.1,45.0,28.70,WSW,254,5.0,13.0,45,0.00,CLR,,0.00,WeatherDisplay:10.37,2013-10-12 15:40:00,
2013-10-12 10:41:00,66.9,44.9,28.70,WSW,248,8.1,8.1,45,0.00,CLR,,0.00,WeatherDisplay:10.37,2013-10-12 15:41:00,
2013-10-12 10:44:00,66.7,44.7,28.70,WSW,248,10.2,10.2,45,0.00,CLR,,0.00,WeatherDisplay:10.37,2013-10-12 15:44:00,
2013-10-12 10:45:00,66.7,44.7,28.70,East,90,10.5,10.5,45,0.00,CLR,,0.00,WeatherDisplay:10.37,2013-10-12 15:45:00,
2013-10-12 10:46:00,66.6,44.5,28.70,SSW,202,10.4,10.4,45,0.00,CLR,,0.00,WeatherDisplay:10.37,2013-10-12 15:46:00,
2013-10-12 10:49:00,66.9,45.5,28.70,WNW,292,8.1,8.1,46,0.00,CLR,,0.00,WeatherDisplay:10.37,2013-10-12 15:49:00,
2013-10-12 10:50:00,66.9,45.5,28.70,North,0,9.2,9.2,46,0.00,CLR,,0.00,WeatherDisplay:10.37,2013-10-12 15:50:00,
2013-10-12 10:51:00,67.3,45.2,28.70,SW,225,9.2,9.2,45,0.00,CLR,,0.00,WeatherDisplay:10.37,2013-10-12 15:51:00,
2013-10-12 10:54:00,67.3,45.8,28.70,West,270,6.9,6.9,46,0.00,CLR,,0.00,WeatherDisplay:10.37,2013-10-12 15:54:00,
2013-10-12 10:55:00,67.1,45.6,28.70,SSW,202,4.6,4.6,46,0.00,CLR,,0.00,WeatherDisplay:10.37,2013-10-12 15:55:00,
2013-10-12 10:56:00,67.1,45.0,28.70,SW,225,4.6,4.6,45,0.00,CLR,,0.00,WeatherDisplay:10.37,2013-10-12 15:56:00,
2013-10-12 10:57:00,67.1,45.6,28.70,West,270,5.8,5.8,46,0.00,CLR,,0.00,WeatherDisplay:10.37,2013-10-12 15:57:00,
2013-10-12 10:59:00,67.5,44.8,28.70,West,270,5.8,5.8,44,0.00,CLR,,0.00,WeatherDisplay:10.37,2013-10-12 15:59:00,
2013-10-12 11:00:00,67.5,44.8,28.70,SSW,202,5.8,5.8,44,0.00,CLR,,0.00,WeatherDisplay:10.37,2013-10-12 16:00:00,
2013-10-12 11:01:00,67.3,45.2,28.70,NW,315,6.2,6.2,45,0.00,CLR,,0.00,WeatherDisplay:10.37,2013-10-12 16:01:00,
2013-10-12 11:02:00,67.3,45.2,28.70,SSE,158,5.8,5.8,45,0.00,CLR,,0.00,WeatherDisplay:10.37,2013-10-12 16:02:00,
2013-10-12 11:05:00,67.5,44.8,28.70,WSW,248,6.9,6.9,44,0.00,CLR,,0.00,WeatherDisplay:10.37,2013-10-12 16:05:00,
2013-10-12 11:06:00,67.5,44.8,28.70,NNW,338,5.8,5.8,44,0.00,CLR,,0.00,WeatherDisplay:10.37,2013-10-12 16:06:00,
2013-10-12 11:07:00,67.3,44.0,28.70,SSW,202,5.8,5.8,43,0.00,CLR,,0.00,WeatherDisplay:10.37,2013-10-12 16:07:00,
2013-10-12 11:08:00,67.3,44.0,28.70,NW,315,5.8,5.8,43,0.00,CLR,,0.00,WeatherDisplay:10.37,2013-10-12 16:08:00,
2013-10-12 11:10:00,67.5,43.6,28.70,NW,315,5.8,5.8,42,0.00,CLR,,0.00,WeatherDisplay:10.37,2013-10-12 16:10:00,
2013-10-12 11:11:00,67.8,43.9,28.70,West,270,5.8,5.8,42,0.00,CLR,,0.00,WeatherDisplay:10.37,2013-10-12 16:11:00,
2013-10-12 11:12:00,67.8,43.9,28.70,WNW,292,9.2,9.2,42,0.00,CLR,,0.00,WeatherDisplay:10.37,2013-10-12 16:12:00,
2013-10-12 11:13:00,68.0,44.0,28.70,WNW,292,3.6,3.6,42,0.00,CLR,,0.00,WeatherDisplay:10.37,2013-10-12 16:13:00,
2013-10-12 11:15:00,68.0,43.4,28.70,West,270,8.1,8.1,41,0.00,CLR,,0.00,WeatherDisplay:10.37,2013-10-12 16:15:00,
2013-10-12 11:17:00,67.8,42.6,28.70,West,270,8.1,8.1,40,0.00,CLR,,0.00,WeatherDisplay:10.37,2013-10-12 16:17:00,
2013-10-12 11:18:00,67.5,42.3,28.70,SW,225,10.4,10.4,40,0.00,CLR,,0.00,WeatherDisplay:10.37,2013-10-12 16:18:00,
2013-10-12 11:19:00,66.9,41.8,28.70,SSW,202,10.4,10.4,40,0.00,CLR,,0.00,WeatherDisplay:10.37,2013-10-12 16:19:00,
2013-10-12 11:20:00,66.6,41.5,28.70,South,180,6.9,6.9,40,0.00,CLR,,0.00,WeatherDisplay:10.37,2013-10-12 16:20:00,
2013-10-12 11:22:00,67.5,42.9,28.70,SSE,158,3.5,3.5,41,0.00,CLR,,0.00,WeatherDisplay:10.37,2013-10-12 16:22:00,
2013-10-12 11:23:00,67.5,42.9,28.70,ENE,68,2.3,2.3,41,0.00,CLR,,0.00,WeatherDisplay:10.37,2013-10-12 16:23:00,
2013-10-12 11:24:00,67.6,43.7,28.70,North,0,2.3,2.3,42,0.00,CLR,,0.00,WeatherDisplay:10.37,2013-10-12 16:24:00,
2013-10-12 11:25:00,68.4,44.4,28.73,West,270,3.5,3.5,42,0.00,CLR,,0.00,WeatherDisplay:10.37,2013-10-12 16:25:00,
2013-10-12 11:27:00,68.4,43.1,28.73,South,180,5.8,5.8,40,0.00,CLR,,0.00,WeatherDisplay:10.37,2013-10-12 16:27:00,
2013-10-12 11:28:00,67.8,41.9,28.73,SSW,202,5.8,5.8,39,0.00,CLR,,0.00,WeatherDisplay:10.37,2013-10-12 16:28:00,
2013-10-12 11:30:00,67.5,41.0,28.73,SSW,202,6.9,6.9,38,0.00,CLR,,0.00,WeatherDisplay:10.37,2013-10-12 16:30:00,
2013-10-12 11:33:00,67.1,40.6,28.73,NNE,22,8.1,8.1,38,0.00,CLR,,0.00,WeatherDisplay:10.37,2013-10-12 16:33:00,
2013-10-12 11:35:00,66.7,40.3,28.73,WSW,248,4.6,4.6,38,0.00,CLR,,0.00,WeatherDisplay:10.37,2013-10-12 16:35:00,
2013-10-12 11:36:00,66.7,40.3,28.73,WSW,248,4.6,4.6,38,0.00,CLR,,0.00,WeatherDisplay:10.37,2013-10-12 16:36:00,
2013-10-12 11:38:00,66.9,41.1,28.73,SW,225,5.8,5.8,39,0.00,CLR,,0.00,WeatherDisplay:10.37,2013-10-12 16:38:00,
2013-10-12 11:39:00,67.1,40.6,28.73,South,180,5.8,5.8,38,0.00,CLR,,0.00,WeatherDisplay:10.37,2013-10-12 16:39:00,
2013-10-12 11:40:00,67.5,41.6,28.73,NW,315,3.5,3.5,39,0.00,CLR,,0.00,WeatherDisplay:10.37,2013-10-12 16:40:00,
2013-10-12 11:41:00,67.8,41.9,28.73,South,180,4.6,4.6,39,0.00,CLR,,0.00,WeatherDisplay:10.37,2013-10-12 16:41:00,
2013-10-12 11:43:00,68.0,41.4,28.73,NNW,338,6.4,6.4,38,0.00,CLR,,0.00,WeatherDisplay:10.37,2013-10-12 16:43:00,
2013-10-12 11:44:00,68.0,41.4,28.73,WSW,248,6.9,6.9,38,0.00,CLR,,0.00,WeatherDisplay:10.37,2013-10-12 16:44:00,
2013-10-12 11:45:00,67.8,41.3,28.73,SW,224,5.0,7.0,38,0.00,CLR,,0.00,WeatherDisplay:10.37,2013-10-12 16:45:00,
2013-10-12 11:46:00,67.3,39.4,28.73,WSW,248,9.2,9.2,36,0.00,CLR,,0.00,WeatherDisplay:10.37,2013-10-12 16:46:00,
2013-10-12 11:48:00,67.1,39.2,28.73,WSW,248,10.5,10.5,36,0.00,CLR,,0.00,WeatherDisplay:10.37,2013-10-12 16:48:00,
2013-10-12 11:49:00,67.1,39.2,28.73,WSW,248,10.4,10.4,36,0.00,CLR,,0.00,WeatherDisplay:10.37,2013-10-12 16:49:00,
2013-10-12 11:50:00,67.1,39.2,28.73,West,259,5.0,14.0,36,0.00,CLR,,0.00,WeatherDisplay:10.37,2013-10-12 16:50:00,
2013-10-12 11:51:00,66.6,38.8,28.73,SSW,202,11.5,11.5,36,0.00,CLR,,0.00,WeatherDisplay:10.37,2013-10-12 16:51:00,
2013-10-12 11:52:00,66.9,39.8,28.73,SW,225,4.6,4.6,37,0.00,CLR,,0.00,WeatherDisplay:10.37,2013-10-12 16:52:00,
2013-10-12 11:53:00,67.1,39.9,28.73,West,270,3.5,3.5,37,0.00,CLR,,0.00,WeatherDisplay:10.37,2013-10-12 16:53:00,
2013-10-12 11:54:00,66.9,39.1,28.73,West,270,10.0,10.0,36,0.00,CLR,,0.00,WeatherDisplay:10.37,2013-10-12 16:54:00,
2013-10-12 11:55:00,66.7,38.9,28.73,SW,225,10.4,10.4,36,0.00,CLR,,0.00,WeatherDisplay:10.37,2013-10-12 16:55:00,
2013-10-12 11:56:00,66.9,39.8,28.73,WSW,248,6.9,6.9,37,0.00,CLR,,0.00,WeatherDisplay:10.37,2013-10-12 16:56:00,
2013-10-12 11:57:00,66.7,38.9,28.73,WNW,292,9.2,9.2,36,0.00,CLR,,0.00,WeatherDisplay:10.37,2013-10-12 16:57:00,
2013-10-12 11:58:00,66.6,38.8,28.73,North,0,10.5,10.5,36,0.00,CLR,,0.00,WeatherDisplay:10.37,2013-10-12 16:58:00,
2013-10-12 11:59:00,66.4,38.6,28.73,SSW,202,10.4,10.4,36,0.00,CLR,,0.00,WeatherDisplay:10.37,2013-10-12 16:59:00,
2013-10-12 12:00:00,66.4,38.6,28.73,WNW,292,9.2,9.2,36,0.00,CLR,,0.00,WeatherDisplay:10.37,2013-10-12 17:00:00,
2013-10-12 12:01:00,66.9,40.5,28.73,WNW,292,4.6,4.6,38,0.00,CLR,,0.00,WeatherDisplay:10.37,2013-10-12 17:01:00,
2013-10-12 12:02:00,66.9,40.5,28.73,WSW,248,4.9,4.9,38,0.00,CLR,,0.00,WeatherDisplay:10.37,2013-10-12 17:02:00,
2013-10-12 12:04:00,66.4,39.3,28.73,NNW,338,12.7,12.7,37,0.00,CLR,,0.00,WeatherDisplay:10.37,2013-10-12 17:04:00,
2013-10-12 12:06:00,66.6,40.1,28.73,SW,225,5.8,5.8,38,0.00,CLR,,0.00,WeatherDisplay:10.37,2013-10-12 17:06:00,
2013-10-12 12:07:00,66.6,40.1,28.73,WSW,248,4.0,4.0,38,0.00,CLR,,0.00,WeatherDisplay:10.37,2013-10-12 17:07:00,
2013-10-12 12:09:00,66.4,39.3,28.73,SW,225,11.5,11.5,37,0.00,CLR,,0.00,WeatherDisplay:10.37,2013-10-12 17:09:00,
2013-10-12 12:11:00,66.6,40.1,28.73,WSW,248,7.4,7.4,38,0.00,CLR,,0.00,WeatherDisplay:10.37,2013-10-12 17:11:00,
2013-10-12 12:12:00,66.4,39.3,28.73,WNW,292,13.0,13.0,37,0.00,CLR,,0.00,WeatherDisplay:10.37,2013-10-12 17:12:00,
2013-10-12 12:14:00,66.4,39.3,28.73,NNW,338,6.9,6.9,37,0.00,CLR,,0.00,WeatherDisplay:10.37,2013-10-12 17:14:00,
2013-10-12 12:16:00,66.4,39.3,28.73,WNW,292,6.9,6.9,37,0.00,CLR,,0.00,WeatherDisplay:10.37,2013-10-12 17:16:00,
2013-10-12 12:17:00,66.6,39.5,28.73,West,270,6.9,6.9,37,0.00,CLR,,0.00,WeatherDisplay:10.37,2013-10-12 17:17:00,
2013-10-12 12:19:00,66.7,39.6,28.73,SSW,202,6.9,6.9,37,0.00,CLR,,0.00,WeatherDisplay:10.37,2013-10-12 17:19:00,
2013-10-12 12:20:00,66.7,39.6,28.73,SSW,202,6.9,6.9,37,0.00,CLR,,0.00,WeatherDisplay:10.37,2013-10-12 17:20:00,
2013-10-12 12:22:00,66.6,39.5,28.73,West,270,14.3,14.3,37,0.00,CLR,,0.00,WeatherDisplay:10.37,2013-10-12 17:22:00,
2013-10-12 12:23:00,66.0,39.0,28.73,West,270,13.8,13.8,37,0.00,CLR,,0.00,WeatherDisplay:10.37,2013-10-12 17:23:00,
2013-10-12 12:25:00,65.8,39.5,28.76,West,270,10.4,10.4,38,0.00,CLR,,0.00,WeatherDisplay:10.37,2013-10-12 17:25:00,
2013-10-12 12:27:00,65.7,39.3,28.76,WNW,292,12.7,12.7,38,0.00,CLR,,0.00,WeatherDisplay:10.37,2013-10-12 17:27:00,
2013-10-12 12:28:00,65.8,39.5,28.76,SSW,202,8.5,8.5,38,0.00,CLR,,0.00,WeatherDisplay:10.37,2013-10-12 17:28:00,
2013-10-12 12:30:00,65.8,39.5,28.76,SSE,158,9.0,9.0,38,0.00,CLR,,0.00,WeatherDisplay:10.37,2013-10-12 17:30:00,
2013-10-12 12:32:00,66.2,39.8,28.76,NW,315,4.3,4.3,38,0.00,CLR,,0.00,WeatherDisplay:10.37,2013-10-12 17:32:00,
2013-10-12 12:33:00,66.2,39.8,28.76,SW,225,8.5,8.5,38,0.00,CLR,,0.00,WeatherDisplay:10.37,2013-10-12 17:33:00,
2013-10-12 12:35:00,65.1,38.2,28.76,East,90,15.0,15.0,37,0.00,CLR,,0.00,WeatherDisplay:10.37,2013-10-12 17:35:00,
2013-10-12 12:36:00,65.1,38.2,28.76,WSW,248,6.9,6.9,37,0.00,CLR,,0.00,WeatherDisplay:10.37,2013-10-12 17:36:00,
2013-10-12 12:37:00,65.1,38.9,28.76,WNW,292,9.2,9.2,38,0.00,CLR,,0.00,WeatherDisplay:10.37,2013-10-12 17:37:00,
2013-10-12 12:38:00,65.1,38.9,28.76,SSW,202,9.2,9.2,38,0.00,CLR,,0.00,WeatherDisplay:10.37,2013-10-12 17:38:00,
2013-10-12 12:40:00,66.2,40.5,28.73,WSW,248,8.1,8.1,39,0.00,CLR,,0.00,WeatherDisplay:10.37,2013-10-12 17:40:00,
2013-10-12 12:41:00,66.4,40.7,28.73,SSW,202,3.5,3.5,39,0.00,CLR,,0.00,WeatherDisplay:10.37,2013-10-12 17:41:00,
2013-10-12 12:43:00,66.6,40.8,28.73,SSW,202,5.8,5.8,39,0.00,CLR,,0.00,WeatherDisplay:10.37,2013-10-12 17:43:00,
2013-10-12 12:44:00,66.4,40.0,28.73,East,90,8.1,8.1,38,0.00,CLR,,0.00,WeatherDisplay:10.37,2013-10-12 17:44:00,
2013-10-12 12:45:00,66.4,40.7,28.73,West,270,8.1,8.1,39,0.00,CLR,,0.00,WeatherDisplay:10.37,2013-10-12 17:45:00,
2013-10-12 12:46:00,66.7,41.0,28.73,SSW,202,3.5,3.5,39,0.00,CLR,,0.00,WeatherDisplay:10.37,2013-10-12 17:46:00,
2013-10-12 12:48:00,66.9,40.5,28.73,WSW,248,6.4,6.4,38,0.00,CLR,,0.00,WeatherDisplay:10.37,2013-10-12 17:48:00,
2013-10-12 12:49:00,66.7,40.3,28.73,WSW,248,6.9,6.9,38,0.00,CLR,,0.00,WeatherDisplay:10.37,2013-10-12 17:49:00,
2013-10-12 12:50:00,66.6,39.5,28.73,WSW,248,6.2,6.2,37,0.00,CLR,,0.00,WeatherDisplay:10.37,2013-10-12 17:50:00,
2013-10-12 12:51:00,66.2,38.4,28.73,North,0,15.0,15.0,36,0.00,CLR,,0.00,WeatherDisplay:10.37,2013-10-12 17:51:00,
2013-10-12 12:53:00,66.6,40.1,28.73,SW,225,6.9,6.9,38,0.00,CLR,,0.00,WeatherDisplay:10.37,2013-10-12 17:53:00,
2013-10-12 12:54:00,66.6,40.1,28.73,West,270,6.0,6.0,38,0.00,CLR,,0.00,WeatherDisplay:10.37,2013-10-12 17:54:00,
2013-10-12 12:55:00,66.6,39.5,28.73,NW,315,5.8,5.8,37,0.00,CLR,,0.00,WeatherDisplay:10.37,2013-10-12 17:55:00,
2013-10-12 12:57:00,66.9,39.8,28.73,WSW,248,9.2,9.2,37,0.00,CLR,,0.00,WeatherDisplay:10.37,2013-10-12 17:57:00,
2013-10-12 12:58:00,66.6,39.5,28.73,WSW,248,6.9,6.9,37,0.00,CLR,,0.00,WeatherDisplay:10.37,2013-10-12 17:58:00,
2013-10-12 12:59:00,66.2,39.1,28.73,NNW,338,9.2,9.2,37,0.00,CLR,,0.00,WeatherDisplay:10.37,2013-10-12 17:59:00,
2013-10-12 13:00:00,66.2,39.1,28.73,West,270,8.1,8.1,37,0.00,CLR,,0.00,WeatherDisplay:10.37,2013-10-12 18:00:00,
2013-10-12 13:01:00,66.6,39.5,28.73,West,270,8.1,8.1,37,0.00,CLR,,0.00,WeatherDisplay:10.37,2013-10-12 18:01:00,
2013-10-12 13:02:00,66.4,39.3,28.73,WSW,248,8.1,8.1,37,0.00,CLR,,0.00,WeatherDisplay:10.37,2013-10-12 18:02:00,
2013-10-12 13:03:00,66.2,39.1,28.73,West,270,6.9,6.9,37,0.00,CLR,,0.00,WeatherDisplay:10.37,2013-10-12 18:03:00,
2013-10-12 13:04:00,66.4,39.3,28.73,South,180,6.9,6.9,37,0.00,CLR,,0.00,WeatherDisplay:10.37,2013-10-12 18:04:00,
2013-10-12 13:05:00,66.6,39.5,28.73,West,270,6.9,6.9,37,0.00,CLR,,0.00,WeatherDisplay:10.37,2013-10-12 18:05:00,
2013-10-12 13:06:00,66.4,39.3,28.73,SW,225,6.9,6.9,37,0.00,CLR,,0.00,WeatherDisplay:10.37,2013-10-12 18:06:00,
2013-10-12 13:07:00,66.4,39.3,28.73,South,180,5.8,5.8,37,0.00,CLR,,0.00,WeatherDisplay:10.37,2013-10-12 18:07:00,
2013-10-12 13:08:00,66.4,39.3,28.73,SSW,202,5.8,5.8,37,0.00,CLR,,0.00,WeatherDisplay:10.37,2013-10-12 18:08:00,
2013-10-12 13:09:00,66.4,39.3,28.73,SW,225,8.7,8.7,37,0.00,CLR,,0.00,WeatherDisplay:10.37,2013-10-12 18:09:00,
2013-10-12 13:10:00,66.4,39.3,28.73,WNW,292,9.2,9.2,37,0.00,CLR,,0.00,WeatherDisplay:10.37,2013-10-12 18:10:00,
2013-10-12 13:11:00,66.4,39.3,28.73,SSW,202,12.7,12.7,37,0.00,CLR,,0.00,WeatherDisplay:10.37,2013-10-12 18:11:00,
2013-10-12 13:12:00,66.2,39.1,28.73,WSW,248,9.2,9.2,37,0.00,CLR,,0.00,WeatherDisplay:10.37,2013-10-12 18:12:00,
2013-10-12 13:13:00,66.4,39.3,28.73,WSW,248,9.8,9.8,37,0.00,CLR,,0.00,WeatherDisplay:10.37,2013-10-12 18:13:00,
2013-10-12 13:14:00,66.6,39.5,28.73,SSW,202,9.2,9.2,37,0.00,CLR,,0.00,WeatherDisplay:10.37,2013-10-12 18:14:00,
2013-10-12 13:15:00,66.7,39.6,28.73,WNW,292,5.8,5.8,37,0.00,CLR,,0.00,WeatherDisplay:10.37,2013-10-12 18:15:00,
2013-10-12 13:17:00,66.9,40.5,28.73,WSW,248,8.1,8.1,38,0.00,CLR,,0.00,WeatherDisplay:10.37,2013-10-12 18:17:00,
2013-10-12 13:18:00,66.9,39.8,28.73,NW,315,7.4,7.4,37,0.00,CLR,,0.00,WeatherDisplay:10.37,2013-10-12 18:18:00,
2013-10-12 13:20:00,66.9,39.8,28.73,WSW,257,5.0,10.0,37,0.00,CLR,,0.00,WeatherDisplay:10.37,2013-10-12 18:20:00,
2013-10-12 13:21:00,66.7,38.9,28.73,NE,45,8.1,8.1,36,0.00,CLR,,0.00,WeatherDisplay:10.37,2013-10-12 18:21:00,
2013-10-12 13:22:00,66.7,39.6,28.73,West,270,9.2,9.2,37,0.00,CLR,,0.00,WeatherDisplay:10.37,2013-10-12 18:22:00,
2013-10-12 13:23:00,66.7,39.6,28.73,WSW,248,9.2,9.2,37,0.00,CLR,,0.00,WeatherDisplay:10.37,2013-10-12 18:23:00,
2013-10-12 13:25:00,67.1,39.9,28.73,SW,225,3.5,3.6,37,0.00,CLR,,0.00,WeatherDisplay:10.37,2013-10-12 18:25:00,
2013-10-12 13:26:00,67.3,40.1,28.73,South,180,4.6,4.6,37,0.00,CLR,,0.00,WeatherDisplay:10.37,2013-10-12 18:26:00,
2013-10-12 13:27:00,67.6,40.4,28.73,NW,315,6.2,6.2,37,0.00,CLR,,0.00,WeatherDisplay:10.37,2013-10-12 18:27:00,
2013-10-12 13:28:00,67.6,40.4,28.73,NW,315,6.2,6.2,37,0.00,CLR,,0.00,WeatherDisplay:10.37,2013-10-12 18:28:00,
2013-10-12 13:29:00,67.5,39.6,28.73,WSW,248,15.0,15.0,36,0.00,CLR,,0.00,WeatherDisplay:10.37,2013-10-12 18:29:00,
2013-10-12 13:30:00,67.3,39.4,28.73,East,90,8.1,8.1,36,0.00,CLR,,0.00,WeatherDisplay:10.37,2013-10-12 18:30:00,
2013-10-12 13:31:00,67.5,39.6,28.73,WSW,248,10.4,10.4,36,0.00,CLR,,0.00,WeatherDisplay:10.37,2013-10-12 18:31:00,
2013-10-12 13:33:00,66.9,39.1,28.73,SSE,158,8.5,8.5,36,0.00,CLR,,0.00,WeatherDisplay:10.37,2013-10-12 18:33:00,
2013-10-12 13:34:00,66.9,39.1,28.73,WSW,248,10.4,10.4,36,0.00,CLR,,0.00,WeatherDisplay:10.37,2013-10-12 18:34:00,
2013-10-12 13:35:00,66.7,38.2,28.73,SW,225,12.7,12.7,35,0.00,CLR,,0.00,WeatherDisplay:10.37,2013-10-12 18:35:00,
2013-10-12 13:37:00,66.9,39.1,28.73,WNW,292,8.1,8.1,36,0.00,CLR,,0.00,WeatherDisplay:10.37,2013-10-12 18:37:00,
2013-10-12 13:38:00,67.1,39.2,28.73,NW,315,4.6,4.6,36,0.00,CLR,,0.00,WeatherDisplay:10.37,2013-10-12 18:38:00,
2013-10-12 13:39:00,67.3,39.4,28.73,WNW,292,10.9,10.9,36,0.00,CLR,,0.00,WeatherDisplay:10.37,2013-10-12 18:39:00,
2013-10-12 13:41:00,66.6,37.3,28.73,NW,315,12.7,12.7,34,0.00,CLR,,0.00,WeatherDisplay:10.37,2013-10-12 18:41:00,
2013-10-12 13:43:00,66.6,38.0,28.73,WSW,248,10.4,10.4,35,0.00,CLR,,0.00,WeatherDisplay:10.37,2013-10-12 18:43:00,
2013-10-12 13:44:00,66.6,38.0,28.73,WSW,248,10.4,10.4,35,0.00,CLR,,0.00,WeatherDisplay:10.37,2013-10-12 18:44:00,
2013-10-12 13:46:00,66.2,37.7,28.73,WSW,248,11.5,11.5,35,0.00,CLR,,0.00,WeatherDisplay:10.37,2013-10-12 18:46:00,
2013-10-12 13:49:00,66.4,37.9,28.73,West,270,15.0,15.0,35,0.00,CLR,,0.00,WeatherDisplay:10.37,2013-10-12 18:49:00,
2013-10-12 13:50:00,66.4,37.9,28.73,West,270,17.3,17.3,35,0.00,CLR,,0.00,WeatherDisplay:10.37,2013-10-12 18:50:00,
2013-10-12 13:51:00,65.8,37.4,28.73,WSW,248,12.7,12.7,35,0.00,CLR,,0.00,WeatherDisplay:10.37,2013-10-12 18:51:00,
2013-10-12 13:54:00,65.5,37.1,28.73,NW,315,20.7,20.7,35,0.00,CLR,,0.00,WeatherDisplay:10.37,2013-10-12 18:54:00,
2013-10-12 13:55:00,65.5,37.8,28.73,West,270,9.2,9.2,36,0.00,CLR,,0.00,WeatherDisplay:10.37,2013-10-12 18:55:00,
2013-10-12 13:56:00,65.7,38.0,28.73,WSW,248,9.2,9.2,36,0.00,CLR,,0.00,WeatherDisplay:10.37,2013-10-12 18:56:00,
2013-10-12 13:59:00,65.8,38.1,28.73,WNW,292,11.5,11.5,36,0.00,CLR,,0.00,WeatherDisplay:10.37,2013-10-12 18:59:00,
2013-10-12 14:00:00,65.8,38.1,28.73,ESE,112,8.1,8.1,36,0.00,CLR,,0.00,WeatherDisplay:10.37,2013-10-12 19:00:00,
2013-10-12 14:01:00,65.8,38.1,28.73,SW,225,11.2,11.2,36,0.00,CLR,,0.00,WeatherDisplay:10.37,2013-10-12 19:01:00,
2013-10-12 14:04:00,66.2,38.4,28.73,West,270,6.9,6.9,36,0.00,CLR,,0.00,WeatherDisplay:10.37,2013-10-12 19:04:00,
2013-10-12 14:05:00,66.2,37.7,28.73,WNW,292,5.8,5.8,35,0.00,CLR,,0.00,WeatherDisplay:10.37,2013-10-12 19:05:00,
2013-10-12 14:06:00,66.2,37.7,28.73,WNW,292,5.8,5.8,35,0.00,CLR,,0.00,WeatherDisplay:10.37,2013-10-12 19:06:00,
2013-10-12 14:07:00,66.6,38.8,28.73,West,270,3.5,3.5,36,0.00,CLR,,0.00,WeatherDisplay:10.37,2013-10-12 19:07:00,
2013-10-12 14:09:00,66.4,38.6,28.73,SSW,202,10.4,10.4,36,0.00,CLR,,0.00,WeatherDisplay:10.37,2013-10-12 19:09:00,
2013-10-12 14:10:00,66.5,38.7,28.73,WSW,253,6.0,10.0,36,0.00,CLR,,0.00,WeatherDisplay:10.37,2013-10-12 19:10:00,
2013-10-12 14:11:00,66.6,38.8,28.73,NW,315,6.9,6.9,36,0.00,CLR,,0.00,WeatherDisplay:10.37,2013-10-12 19:11:00,
2013-10-12 14:13:00,66.2,37.7,28.73,WNW,292,8.1,8.1,35,0.00,CLR,,0.00,WeatherDisplay:10.37,2013-10-12 19:13:00,
2013-10-12 14:14:00,66.0,38.3,28.73,WSW,248,12.7,12.7,36,0.00,CLR,,0.00,WeatherDisplay:10.37,2013-10-12 19:14:00,
2013-10-12 14:15:00,66.0,38.3,28.73,WSW,248,9.2,9.2,36,0.00,CLR,,0.00,WeatherDisplay:10.37,2013-10-12 19:15:00,
2013-10-12 14:16:00,66.0,38.3,28.73,SW,225,9.7,9.7,36,0.00,CLR,,0.00,WeatherDisplay:10.37,2013-10-12 19:16:00,
2013-10-12 14:19:00,65.7,38.0,28.73,WSW,248,6.9,6.9,36,0.00,CLR,,0.00,WeatherDisplay:10.37,2013-10-12 19:19:00,
2013-10-12 14:20:00,65.7,38.0,28.73,West,270,7.6,7.6,36,0.00,CLR,,0.00,WeatherDisplay:10.37,2013-10-12 19:20:00,
2013-10-12 14:21:00,66.0,38.3,28.73,West,270,9.2,9.2,36,0.00,CLR,,0.00,WeatherDisplay:10.37,2013-10-12 19:21:00,
2013-10-12 14:22:00,66.2,38.4,28.73,NW,315,6.9,6.9,36,0.00,CLR,,0.00,WeatherDisplay:10.37,2013-10-12 19:22:00,
2013-10-12 14:24:00,66.2,37.7,28.73,NW,315,4.9,4.9,35,0.00,CLR,,0.00,WeatherDisplay:10.37,2013-10-12 19:24:00,
2013-10-12 14:25:00,66.2,37.7,28.73,WSW,248,4.6,4.6,35,0.00,CLR,,0.00,WeatherDisplay:10.37,2013-10-12 19:25:00,
2013-10-12 14:26:00,66.4,38.6,28.73,NW,315,10.4,10.4,36,0.00,CLR,,0.00,WeatherDisplay:10.37,2013-10-12 19:26:00,
2013-10-12 14:27:00,66.0,37.6,28.73,WSW,248,10.4,10.4,35,0.00,CLR,,0.00,WeatherDisplay:10.37,2013-10-12 19:27:00,
2013-10-12 14:29:00,66.6,38.8,28.73,WSW,248,4.6,4.6,36,0.00,CLR,,0.00,WeatherDisplay:10.37,2013-10-12 19:29:00,
2013-10-12 14:30:00,66.7,38.9,28.73,WSW,248,4.6,4.6,36,0.00,CLR,,0.00,WeatherDisplay:10.37,2013-10-12 19:30:00,
2013-10-12 14:31:00,66.6,38.0,28.73,WSW,248,10.2,10.2,35,0.00,CLR,,0.00,WeatherDisplay:10.37,2013-10-12 19:31:00,
2013-10-12 14:32:00,66.2,37.7,28.73,NW,315,10.4,10.4,35,0.00,CLR,,0.00,WeatherDisplay:10.37,2013-10-12 19:32:00,
2013-10-12 14:34:00,66.4,37.9,28.73,WSW,248,9.2,9.2,35,0.00,CLR,,0.00,WeatherDisplay:10.37,2013-10-12 19:34:00,
2013-10-12 14:35:00,66.4,37.9,28.73,West,270,9.2,9.2,35,0.00,CLR,,0.00,WeatherDisplay:10.37,2013-10-12 19:35:00,
2013-10-12 14:36:00,66.4,37.9,28.73,West,270,8.1,8.1,35,0.00,CLR,,0.00,WeatherDisplay:10.37,2013-10-12 19:36:00,
2013-10-12 14:37:00,66.0,37.6,28.73,West,270,8.1,8.1,35,0.00,CLR,,0.00,WeatherDisplay:10.37,2013-10-12 19:37:00,
2013-10-12 14:39:00,66.2,37.7,28.73,WNW,292,6.9,6.9,35,0.00,CLR,,0.00,WeatherDisplay:10.37,2013-10-12 19:39:00,
2013-10-12 14:40:00,66.2,37.7,28.73,NW,315,10.7,10.7,35,0.00,CLR,,0.00,WeatherDisplay:10.37,2013-10-12 19:40:00,
2013-10-12 14:41:00,66.2,37.7,28.73,WSW,248,10.4,10.4,35,0.00,CLR,,0.00,WeatherDisplay:10.37,2013-10-12 19:41:00,
2013-10-12 14:42:00,66.2,37.7,28.73,North,0,6.9,6.9,35,0.00,CLR,,0.00,WeatherDisplay:10.37,2013-10-12 19:42:00,
2013-10-12 14:43:00,66.2,37.7,28.73,SSW,202,5.8,5.8,35,0.00,CLR,,0.00,WeatherDisplay:10.37,2013-10-12 19:43:00,
2013-10-12 14:44:00,66.4,37.9,28.73,SSW,202,5.8,5.8,35,0.00,CLR,,0.00,WeatherDisplay:10.37,2013-10-12 19:44:00,
2013-10-12 14:45:00,66.4,37.9,28.73,West,263,5.0,11.0,35,0.00,CLR,,0.00,WeatherDisplay:10.37,2013-10-12 19:45:00,
2013-10-12 14:46:00,66.2,37.7,28.73,WSW,248,9.2,9.2,35,0.00,CLR,,0.00,WeatherDisplay:10.37,2013-10-12 19:46:00,
2013-10-12 14:47:00,66.2,37.0,28.73,WSW,248,8.1,8.1,34,0.00,CLR,,0.00,WeatherDisplay:10.37,2013-10-12 19:47:00,
2013-10-12 14:48:00,66.4,37.9,28.73,WNW,292,8.1,8.1,35,0.00,CLR,,0.00,WeatherDisplay:10.37,2013-10-12 19:48:00,
2013-10-12 14:49:00,66.6,38.0,28.73,SSW,202,8.1,8.1,35,0.00,CLR,,0.00,WeatherDisplay:10.37,2013-10-12 19:49:00,
2013-10-12 14:50:00,66.4,37.9,28.73,WSW,248,7.6,7.6,35,0.00,CLR,,0.00,WeatherDisplay:10.37,2013-10-12 19:50:00,
2013-10-12 14:51:00,66.6,38.0,28.73,SSE,158,8.1,8.1,35,0.00,CLR,,0.00,WeatherDisplay:10.37,2013-10-12 19:51:00,
2013-10-12 14:52:00,66.6,38.0,28.73,WSW,248,6.9,6.9,35,0.00,CLR,,0.00,WeatherDisplay:10.37,2013-10-12 19:52:00,
2013-10-12 14:54:00,66.2,37.0,28.73,WNW,292,6.9,6.9,34,0.00,CLR,,0.00,WeatherDisplay:10.37,2013-10-12 19:54:00,
2013-10-12 14:55:00,66.2,37.0,28.73,NNE,22,6.9,6.9,34,0.00,CLR,,0.00,WeatherDisplay:10.37,2013-10-12 19:55:00,
2013-10-12 14:56:00,66.4,37.1,28.73,North,0,6.9,6.9,34,0.00,CLR,,0.00,WeatherDisplay:10.37,2013-10-12 19:56:00,
2013-10-12 14:57:00,66.7,38.2,28.73,SSE,158,5.8,5.8,35,0.00,CLR,,0.00,WeatherDisplay:10.37,2013-10-12 19:57:00,
2013-10-12 14:59:00,66.9,37.6,28.73,NW,315,7.8,7.8,34,0.00,CLR,,0.00,WeatherDisplay:10.37,2013-10-12 19:59:00,
2013-10-12 15:01:00,66.7,37.5,28.73,West,270,10.2,10.2,34,0.00,CLR,,0.00,WeatherDisplay:10.37,2013-10-12 20:01:00,
2013-10-12 15:02:00,66.6,36.5,28.73,NW,315,10.0,10.0,33,0.00,CLR,,0.00,WeatherDisplay:10.37,2013-10-12 20:02:00,
2013-10-12 15:04:00,66.0,36.8,28.73,WNW,292,12.7,12.7,34,0.00,CLR,,0.00,WeatherDisplay:10.37,2013-10-12 20:04:00,
2013-10-12 15:06:00,66.0,36.8,28.73,NW,315,12.7,12.7,34,0.00,CLR,,0.00,WeatherDisplay:10.37,2013-10-12 20:06:00,
2013-10-12 15:07:00,66.2,37.0,28.73,NW,315,6.9,6.9,34,0.00,CLR,,0.00,WeatherDisplay:10.37,2013-10-12 20:07:00,
2013-10-12 15:09:00,66.0,36.8,28.73,WNW,292,9.2,9.2,34,0.00,CLR,,0.00,WeatherDisplay:10.37,2013-10-12 20:09:00,
2013-10-12 15:10:00,66.0,36.8,28.74,WNW,292,7.0,13.0,34,0.00,CLR,,0.00,WeatherDisplay:10.37,2013-10-12 20:10:00,
2013-10-12 15:11:00,66.0,36.8,28.76,SSW,202,13.8,13.8,34,0.00,CLR,,0.00,WeatherDisplay:10.37,2013-10-12 20:11:00,
2013-10-12 15:12:00,66.0,36.8,28.76,West,270,13.8,13.8,34,0.00,CLR,,0.00,WeatherDisplay:10.37,2013-10-12 20:12:00,
2013-10-12 15:13:00,66.0,36.8,28.76,WNW,292,13.8,13.8,34,0.00,CLR,,0.00,WeatherDisplay:10.37,2013-10-12 20:13:00,
2013-10-12 15:14:00,66.0,36.8,28.76,SW,225,12.8,12.8,34,0.00,CLR,,0.00,WeatherDisplay:10.37,2013-10-12 20:14:00,
2013-10-12 15:15:00,66.0,36.8,28.76,West,281,6.0,14.0,34,0.00,CLR,,0.00,WeatherDisplay:10.37,2013-10-12 20:15:00,
2013-10-12 15:16:00,65.7,36.5,28.76,West,270,13.8,13.8,34,0.00,CLR,,0.00,WeatherDisplay:10.37,2013-10-12 20:16:00,
2013-10-12 15:17:00,65.7,36.5,28.76,West,270,9.2,9.2,34,0.00,CLR,,0.00,WeatherDisplay:10.37,2013-10-12 20:17:00,
2013-10-12 15:18:00,65.7,36.5,28.76,WSW,248,10.5,10.5,34,0.00,CLR,,0.00,WeatherDisplay:10.37,2013-10-12 20:18:00,
2013-10-12 15:20:00,65.3,36.2,28.76,ESE,112,19.6,19.6,34,0.00,CLR,,0.00,WeatherDisplay:10.37,2013-10-12 20:20:00,
2013-10-12 15:21:00,65.5,36.4,28.76,WSW,248,10.4,10.4,34,0.00,CLR,,0.00,WeatherDisplay:10.37,2013-10-12 20:21:00,
2013-10-12 15:22:00,65.5,36.4,28.76,West,270,15.0,15.0,34,0.00,CLR,,0.00,WeatherDisplay:10.37,2013-10-12 20:22:00,
2013-10-12 15:23:00,65.5,36.4,28.76,NW,315,11.5,11.5,34,0.00,CLR,,0.00,WeatherDisplay:10.37,2013-10-12 20:23:00,
2013-10-12 15:25:00,65.7,36.5,28.76,South,180,11.5,11.5,34,0.00,CLR,,0.00,WeatherDisplay:10.37,2013-10-12 20:25:00,
2013-10-12 15:26:00,65.7,36.5,28.76,West,270,11.5,11.5,34,0.00,CLR,,0.00,WeatherDisplay:10.37,2013-10-12 20:26:00,
2013-10-12 15:27:00,65.7,36.5,28.76,NW,315,5.8,5.8,34,0.00,CLR,,0.00,WeatherDisplay:10.37,2013-10-12 20:27:00,
2013-10-12 15:28:00,65.7,36.5,28.76,SW,225,5.8,5.8,34,0.00,CLR,,0.00,WeatherDisplay:10.37,2013-10-12 20:28:00,
2013-10-12 15:30:00,66.0,36.8,28.76,SW,225,5.4,5.4,34,0.00,CLR,,0.00,WeatherDisplay:10.37,2013-10-12 20:30:00,
2013-10-12 15:31:00,65.7,36.5,28.76,SSW,202,12.7,12.7,34,0.00,CLR,,0.00,WeatherDisplay:10.37,2013-10-12 20:31:00,
2013-10-12 15:32:00,65.7,36.5,28.76,South,180,8.1,8.1,34,0.00,CLR,,0.00,WeatherDisplay:10.37,2013-10-12 20:32:00,
2013-10-12 15:33:00,65.7,36.5,28.76,SSW,202,9.2,9.2,34,0.00,CLR,,0.00,WeatherDisplay:10.37,2013-10-12 20:33:00,
2013-10-12 15:34:00,65.7,36.5,28.76,NNW,338,10.4,10.4,34,0.00,CLR,,0.00,WeatherDisplay:10.37,2013-10-12 20:34:00,
2013-10-12 15:36:00,65.5,36.4,28.76,WSW,248,10.4,10.4,34,0.00,CLR,,0.00,WeatherDisplay:10.37,2013-10-12 20:36:00,
2013-10-12 15:37:00,65.5,36.4,28.76,WSW,248,10.4,10.4,34,0.00,CLR,,0.00,WeatherDisplay:10.37,2013-10-12 20:37:00,
2013-10-12 15:38:00,65.5,36.4,28.76,NW,315,6.9,6.9,34,0.00,CLR,,0.00,WeatherDisplay:10.37,2013-10-12 20:38:00,
2013-10-12 15:39:00,65.7,36.5,28.76,SE,135,6.9,6.9,34,0.00,CLR,,0.00,WeatherDisplay:10.37,2013-10-12 20:39:00,
2013-10-12 15:42:00,65.8,36.7,28.76,SW,225,11.5,11.5,34,0.00,CLR,,0.00,WeatherDisplay:10.37,2013-10-12 20:42:00,
2013-10-12 15:43:00,65.7,36.5,28.76,NW,315,13.0,13.0,34,0.00,CLR,,0.00,WeatherDisplay:10.37,2013-10-12 20:43:00,
2013-10-12 15:44:00,65.5,36.4,28.76,SW,225,12.7,12.7,34,0.00,CLR,,0.00,WeatherDisplay:10.37,2013-10-12 20:44:00,
2013-10-12 15:47:00,65.8,37.4,28.76,SSE,158,4.9,4.9,35,0.00,CLR,,0.00,WeatherDisplay:10.37,2013-10-12 20:47:00,
2013-10-12 15:48:00,65.8,37.4,28.76,NW,315,3.8,3.8,35,0.00,CLR,,0.00,WeatherDisplay:10.37,2013-10-12 20:48:00,
2013-10-12 15:49:00,66.0,36.8,28.76,West,270,8.7,8.7,34,0.00,CLR,,0.00,WeatherDisplay:10.37,2013-10-12 20:49:00,
2013-10-12 15:52:00,65.8,36.7,28.76,West,270,13.8,13.8,34,0.00,CLR,,0.00,WeatherDisplay:10.37,2013-10-12 20:52:00,
2013-10-12 15:53:00,65.7,36.5,28.76,SSW,202,9.2,9.2,34,0.00,CLR,,0.00,WeatherDisplay:10.37,2013-10-12 20:53:00,
2013-10-12 15:54:00,65.8,36.7,28.76,WSW,248,4.6,4.6,34,0.00,CLR,,0.00,WeatherDisplay:10.37,2013-10-12 20:54:00,
2013-10-12 15:55:00,65.8,36.6,28.77,West,265,2.0,14.0,34,0.00,CLR,,0.00,WeatherDisplay:10.37,2013-10-12 20:55:00,
2013-10-12 15:57:00,65.7,36.5,28.79,WSW,248,8.1,8.1,34,0.00,CLR,,0.00,WeatherDisplay:10.37,2013-10-12 20:57:00,
2013-10-12 15:58:00,65.7,36.5,28.79,East,90,8.1,8.1,34,0.00,CLR,,0.00,WeatherDisplay:10.37,2013-10-12 20:58:00,
2013-10-12 15:59:00,65.7,36.5,28.79,WSW,248,5.9,5.9,34,0.00,CLR,,0.00,WeatherDisplay:10.37,2013-10-12 20:59:00,
2013-10-12 16:00:00,65.7,36.5,28.79,NW,315,5.8,5.8,34,0.00,CLR,,0.00,WeatherDisplay:10.37,2013-10-12 21:00:00,
2013-10-12 16:03:00,65.8,36.7,28.79,SW,225,9.2,9.2,34,0.00,CLR,,0.00,WeatherDisplay:10.37,2013-10-12 21:03:00,
2013-10-12 16:04:00,65.7,36.5,28.79,WNW,292,6.9,6.9,34,0.00,CLR,,0.00,WeatherDisplay:10.37,2013-10-12 21:04:00,
2013-10-12 16:05:00,65.8,36.7,28.79,WSW,248,4.6,4.6,34,0.00,CLR,,0.00,WeatherDisplay:10.37,2013-10-12 21:05:00,
2013-10-12 16:08:00,65.5,36.4,28.79,West,270,10.4,10.4,34,0.00,CLR,,0.00,WeatherDisplay:10.37,2013-10-12 21:08:00,
2013-10-12 16:09:00,65.5,36.4,28.79,SSW,202,8.1,8.1,34,0.00,CLR,,0.00,WeatherDisplay:10.37,2013-10-12 21:09:00,
2013-10-12 16:10:00,65.5,36.4,28.79,SW,225,8.1,8.1,34,0.00,CLR,,0.00,WeatherDisplay:10.37,2013-10-12 21:10:00,
2013-10-12 16:11:00,65.5,36.4,28.79,SW,225,8.1,8.1,34,0.00,CLR,,0.00,WeatherDisplay:10.37,2013-10-12 21:11:00,
2013-10-12 16:13:00,64.9,35.9,28.79,WSW,248,12.3,12.3,34,0.00,CLR,,0.00,WeatherDisplay:10.37,2013-10-12 21:13:00,
2013-10-12 16:14:00,64.8,35.7,28.79,West,270,17.5,17.5,34,0.00,CLR,,0.00,WeatherDisplay:10.37,2013-10-12 21:14:00,
2013-10-12 16:15:00,64.4,34.6,28.79,WSW,248,17.3,17.3,33,0.00,CLR,,0.00,WeatherDisplay:10.37,2013-10-12 21:15:00,
2013-10-12 16:17:00,63.9,34.9,28.79,West,270,9.2,9.2,34,0.00,CLR,,0.00,WeatherDisplay:10.37,2013-10-12 21:17:00,
2013-10-12 16:19:00,63.1,34.3,28.79,West,270,8.1,8.1,34,0.00,CLR,,0.00,WeatherDisplay:10.37,2013-10-12 21:19:00,
2013-10-12 16:20:00,62.8,34.0,28.79,West,270,9.2,9.2,34,0.00,CLR,,0.00,WeatherDisplay:10.37,2013-10-12 21:20:00,
2013-10-12 16:21:00,62.8,34.0,28.79,West,270,10.9,10.9,34,0.00,CLR,,0.00,WeatherDisplay:10.37,2013-10-12 21:21:00,
2013-10-12 16:22:00,62.8,34.0,28.79,NW,315,12.7,12.7,34,0.00,CLR,,0.00,WeatherDisplay:10.37,2013-10-12 21:22:00,
2013-10-12 16:24:00,62.8,34.7,28.79,West,270,6.9,6.9,35,0.00,CLR,,0.00,WeatherDisplay:10.37,2013-10-12 21:24:00,
2013-10-12 16:25:00,63.0,34.9,28.82,North,0,9.2,9.2,35,0.00,CLR,,0.00,WeatherDisplay:10.37,2013-10-12 21:25:00,
2013-10-12 16:26:00,63.5,35.3,28.82,WNW,292,6.9,6.9,35,0.00,CLR,,0.00,WeatherDisplay:10.37,2013-10-12 21:26:00,
2013-10-12 16:27:00,64.0,35.8,28.82,WNW,292,5.8,5.8,35,0.00,CLR,,0.00,WeatherDisplay:10.37,2013-10-12 21:27:00,
2013-10-12 16:29:00,64.2,36.0,28.82,West,270,8.1,8.1,35,0.00,CLR,,0.00,WeatherDisplay:10.37,2013-10-12 21:29:00,
2013-10-12 16:30:00,64.0,35.8,28.82,West,270,17.3,17.3,35,0.00,CLR,,0.00,WeatherDisplay:10.37,2013-10-12 21:30:00,
2013-10-12 16:31:00,64.0,35.8,28.82,West,270,9.2,9.2,35,0.00,CLR,,0.00,WeatherDisplay:10.37,2013-10-12 21:31:00,
2013-10-12 16:32:00,63.9,35.7,28.82,WNW,292,12.8,12.8,35,0.00,CLR,,0.00,WeatherDisplay:10.37,2013-10-12 21:32:00,
2013-10-12 16:33:00,63.9,35.7,28.82,NW,315,12.7,12.7,35,0.00,CLR,,0.00,WeatherDisplay:10.37,2013-10-12 21:33:00,
2013-10-12 16:34:00,63.9,35.7,28.82,NNW,338,10.2,10.2,35,0.00,CLR,,0.00,WeatherDisplay:10.37,2013-10-12 21:34:00,
2013-10-12 16:35:00,63.9,35.7,28.82,SW,225,10.4,10.4,35,0.00,CLR,,0.00,WeatherDisplay:10.37,2013-10-12 21:35:00,
2013-10-12 16:36:00,63.7,35.5,28.82,NW,315,12.1,12.1,35,0.00,CLR,,0.00,WeatherDisplay:10.37,2013-10-12 21:36:00,
2013-10-12 16:37:00,63.7,35.5,28.82,WNW,292,13.8,13.8,35,0.00,CLR,,0.00,WeatherDisplay:10.37,2013-10-12 21:37:00,
2013-10-12 16:38:00,63.7,35.5,28.82,WSW,248,13.8,13.8,35,0.00,CLR,,0.00,WeatherDisplay:10.37,2013-10-12 21:38:00,
2013-10-12 16:40:00,63.1,35.0,28.79,NW,315,10.4,10.4,35,0.00,CLR,,0.00,WeatherDisplay:10.37,2013-10-12 21:40:00,
2013-10-12 16:41:00,62.8,34.7,28.79,NW,315,9.2,9.2,35,0.00,CLR,,0.00,WeatherDisplay:10.37,2013-10-12 21:41:00,
2013-10-12 16:43:00,62.8,34.7,28.79,West,270,6.2,6.2,35,0.00,CLR,,0.00,WeatherDisplay:10.37,2013-10-12 21:43:00,
2013-10-12 16:45:00,62.6,34.5,28.79,NW,315,5.8,5.8,35,0.00,CLR,,0.00,WeatherDisplay:10.37,2013-10-12 21:45:00,
2013-10-12 16:46:00,62.4,35.1,28.79,WNW,292,11.5,11.5,36,0.00,CLR,,0.00,WeatherDisplay:10.37,2013-10-12 21:46:00,
2013-10-12 16:48:00,62.4,35.1,28.79,WNW,292,5.8,5.8,36,0.00,CLR,,0.00,WeatherDisplay:10.37,2013-10-12 21:48:00,
2013-10-12 16:50:00,63.0,35.6,28.79,WNW,292,11.5,11.5,36,0.00,CLR,,0.00,WeatherDisplay:10.37,2013-10-12 21:50:00,
2013-10-12 16:51:00,63.0,35.6,28.79,WSW,248,12.7,12.7,36,0.00,CLR,,0.00,WeatherDisplay:10.37,2013-10-12 21:51:00,
2013-10-12 16:53:00,63.0,34.9,28.79,South,180,13.7,13.7,35,0.00,CLR,,0.00,WeatherDisplay:10.37,2013-10-12 21:53:00,
2013-10-12 16:55:00,62.6,34.5,28.79,NW,315,8.1,8.1,35,0.00,CLR,,0.00,WeatherDisplay:10.37,2013-10-12 21:55:00,
2013-10-12 16:56:00,62.4,35.1,28.79,West,270,7.8,7.8,36,0.00,CLR,,0.00,WeatherDisplay:10.37,2013-10-12 21:56:00,
2013-10-12 16:57:00,62.4,35.1,28.79,NNW,338,8.1,8.1,36,0.00,CLR,,0.00,WeatherDisplay:10.37,2013-10-12 21:57:00,
2013-10-12 17:00:00,62.1,34.8,28.79,North,0,4.6,4.6,36,0.00,CLR,,0.00,WeatherDisplay:10.37,2013-10-12 22:00:00,
2013-10-12 17:01:00,62.2,34.9,28.79,WSW,248,7.4,7.4,36,0.00,CLR,,0.00,WeatherDisplay:10.37,2013-10-12 22:01:00,
2013-10-12 17:02:00,62.2,34.9,28.79,WNW,292,5.8,5.8,36,0.00,CLR,,0.00,WeatherDisplay:10.37,2013-10-12 22:02:00,
2013-10-12 17:05:00,61.9,34.6,28.79,WSW,248,8.1,8.1,36,0.00,CLR,,0.00,WeatherDisplay:10.37,2013-10-12 22:05:00,
2013-10-12 17:06:00,61.9,34.6,28.79,West,270,8.1,8.1,36,0.00,CLR,,0.00,WeatherDisplay:10.37,2013-10-12 22:06:00,
2013-10-12 17:07:00,61.7,34.5,28.79,WSW,248,10.0,10.0,36,0.00,CLR,,0.00,WeatherDisplay:10.37,2013-10-12 22:07:00,
2013-10-12 17:10:00,61.3,34.1,28.79,West,270,9.2,9.2,36,0.00,CLR,,0.00,WeatherDisplay:10.37,2013-10-12 22:10:00,
2013-10-12 17:11:00,61.3,34.1,28.79,NNW,338,4.6,4.6,36,0.00,CLR,,0.00,WeatherDisplay:10.37,2013-10-12 22:11:00,
2013-10-12 17:12:00,61.2,34.7,28.79,North,0,3.5,3.5,37,0.00,CLR,,0.00,WeatherDisplay:10.37,2013-10-12 22:12:00,
2013-10-12 17:15:00,61.0,34.5,28.79,WSW,248,6.2,6.2,37,0.00,CLR,,0.00,WeatherDisplay:10.37,2013-10-12 22:15:00,
2013-10-12 17:16:00,61.0,34.5,28.79,WNW,292,6.2,6.2,37,0.00,CLR,,0.00,WeatherDisplay:10.37,2013-10-12 22:16:00,
2013-10-12 17:17:00,60.8,35.0,28.79,WNW,292,5.8,5.8,38,0.00,CLR,,0.00,WeatherDisplay:10.37,2013-10-12 22:17:00,
2013-10-12 17:18:00,60.8,35.0,28.79,SW,225,9.2,9.2,38,0.00,CLR,,0.00,WeatherDisplay:10.37,2013-10-12 22:18:00,
2013-10-12 17:21:00,60.6,34.9,28.79,WSW,248,6.9,6.9,38,0.00,CLR,,0.00,WeatherDisplay:10.37,2013-10-12 22:21:00,
2013-10-12 17:22:00,60.6,34.9,28.79,NW,315,5.8,5.8,38,0.00,CLR,,0.00,WeatherDisplay:10.37,2013-10-12 22:22:00,
2013-10-12 17:23:00,60.6,34.9,28.79,NNW,338,5.8,5.8,38,0.00,CLR,,0.00,WeatherDisplay:10.37,2013-10-12 22:23:00,
2013-10-12 17:26:00,61.2,35.3,28.79,WNW,292,7.6,7.6,38,0.00,CLR,,0.00,WeatherDisplay:10.37,2013-10-12 22:26:00,
2013-10-12 17:27:00,61.3,35.5,28.79,SW,225,8.1,8.1,38,0.00,CLR,,0.00,WeatherDisplay:10.37,2013-10-12 22:27:00,
2013-10-12 17:28:00,61.3,35.5,28.79,WSW,248,3.8,3.8,38,0.00,CLR,,0.00,WeatherDisplay:10.37,2013-10-12 22:28:00,
2013-10-12 17:29:00,61.2,35.3,28.79,SSW,202,6.9,6.9,38,0.00,CLR,,0.00,WeatherDisplay:10.37,2013-10-12 22:29:00,
2013-10-12 17:31:00,61.0,35.2,28.79,West,270,7.8,7.8,38,0.00,CLR,,0.00,WeatherDisplay:10.37,2013-10-12 22:31:00,
2013-10-12 17:32:00,61.0,35.2,28.79,West,270,8.1,8.1,38,0.00,CLR,,0.00,WeatherDisplay:10.37,2013-10-12 22:32:00,
2013-10-12 17:33:00,61.0,35.2,28.79,NE,45,5.8,5.8,38,0.00,CLR,,0.00,WeatherDisplay:10.37,2013-10-12 22:33:00,
2013-10-12 17:34:00,61.0,35.2,28.79,WSW,248,4.6,4.6,38,0.00,CLR,,0.00,WeatherDisplay:10.37,2013-10-12 22:34:00,
2013-10-12 17:35:00,61.0,35.2,28.79,NW,315,4.6,4.6,38,0.00,CLR,,0.00,WeatherDisplay:10.37,2013-10-12 22:35:00,
2013-10-12 17:36:00,60.8,35.0,28.79,West,270,8.1,8.1,38,0.00,CLR,,0.00,WeatherDisplay:10.37,2013-10-12 22:36:00,
2013-10-12 17:37:00,60.8,35.0,28.79,West,270,3.8,4.5,38,0.00,CLR,,0.00,WeatherDisplay:10.37,2013-10-12 22:37:00,
2013-10-12 17:38:00,60.6,35.5,28.79,SW,225,3.5,3.5,39,0.00,CLR,,0.00,WeatherDisplay:10.37,2013-10-12 22:38:00,
2013-10-12 17:39:00,60.6,35.5,28.79,West,270,5.8,5.8,39,0.00,CLR,,0.00,WeatherDisplay:10.37,2013-10-12 22:39:00,
2013-10-12 17:40:00,60.6,35.5,28.79,WSW,248,5.8,5.8,39,0.00,CLR,,0.00,WeatherDisplay:10.37,2013-10-12 22:40:00,
2013-10-12 17:41:00,60.4,35.3,28.79,West,270,5.9,5.9,39,0.00,CLR,,0.00,WeatherDisplay:10.37,2013-10-12 22:41:00,
2013-10-12 17:42:00,60.4,35.3,28.79,West,270,5.8,5.8,39,0.00,CLR,,0.00,WeatherDisplay:10.37,2013-10-12 22:42:00,
2013-10-12 17:43:00,60.3,35.2,28.79,SW,225,6.9,6.9,39,0.00,CLR,,0.00,WeatherDisplay:10.37,2013-10-12 22:43:00,
2013-10-12 17:44:00,60.1,35.0,28.79,West,270,6.9,6.9,39,0.00,CLR,,0.00,WeatherDisplay:10.37,2013-10-12 22:44:00,
2013-10-12 17:45:00,60.1,35.7,28.79,SSW,202,5.8,5.8,40,0.00,CLR,,0.00,WeatherDisplay:10.37,2013-10-12 22:45:00,
2013-10-12 17:47:00,59.9,35.5,28.79,NNW,338,5.8,5.8,40,0.00,CLR,,0.00,WeatherDisplay:10.37,2013-10-12 22:47:00,
2013-10-12 17:48:00,59.7,35.3,28.79,West,270,8.1,8.1,40,0.00,CLR,,0.00,WeatherDisplay:10.37,2013-10-12 22:48:00,
2013-10-12 17:49:00,59.5,35.2,28.79,SW,225,5.8,5.8,40,0.00,CLR,,0.00,WeatherDisplay:10.37,2013-10-12 22:49:00,
2013-10-12 17:51:00,59.5,35.2,28.79,SW,225,2.3,2.3,40,0.00,CLR,,0.00,WeatherDisplay:10.37,2013-10-12 22:51:00,
2013-10-12 17:52:00,59.4,35.0,28.79,SSW,202,2.4,2.4,40,0.00,CLR,,0.00,WeatherDisplay:10.37,2013-10-12 22:52:00,
2013-10-12 17:53:00,59.4,35.0,28.79,ESE,112,8.1,8.1,40,0.00,CLR,,0.00,WeatherDisplay:10.37,2013-10-12 22:53:00,
2013-10-12 17:54:00,59.2,35.5,28.82,WNW,292,3.5,3.5,41,0.00,CLR,,0.00,WeatherDisplay:10.37,2013-10-12 22:54:00,
2013-10-12 17:55:00,59.2,35.5,28.82,WNW,292,2.3,2.3,41,0.00,CLR,,0.00,WeatherDisplay:10.37,2013-10-12 22:55:00,
2013-10-12 17:56:00,59.2,35.5,28.82,WSW,248,2.3,2.3,41,0.00,CLR,,0.00,WeatherDisplay:10.37,2013-10-12 22:56:00,
2013-10-12 17:57:00,59.0,35.3,28.82,WNW,292,4.6,4.6,41,0.00,CLR,,0.00,WeatherDisplay:10.37,2013-10-12 22:57:00,
2013-10-12 17:58:00,58.8,35.8,28.82,NW,315,4.6,4.6,42,0.00,CLR,,0.00,WeatherDisplay:10.37,2013-10-12 22:58:00,
2013-10-12 18:00:00,58.8,35.8,28.82,NW,315,4.7,4.7,42,0.00,CLR,,0.00,WeatherDisplay:10.37,2013-10-12 23:00:00,
2013-10-12 18:01:00,58.8,35.8,28.82,WSW,248,10.4,10.4,42,0.00,CLR,,0.00,WeatherDisplay:10.37,2013-10-12 23:01:00,
2013-10-12 18:02:00,58.8,35.8,28.82,North,0,6.9,6.9,42,0.00,CLR,,0.00,WeatherDisplay:10.37,2013-10-12 23:02:00,
2013-10-12 18:03:00,58.8,35.8,28.82,WNW,292,6.9,6.9,42,0.00,CLR,,0.00,WeatherDisplay:10.37,2013-10-12 23:03:00,
2013-10-12 18:04:00,58.6,35.6,28.82,West,270,4.6,4.6,42,0.00,CLR,,0.00,WeatherDisplay:10.37,2013-10-12 23:04:00,
2013-10-12 18:05:00,58.6,35.6,28.82,NW,315,4.6,4.6,42,0.00,CLR,,0.00,WeatherDisplay:10.37,2013-10-12 23:05:00,
2013-10-12 18:06:00,58.5,35.4,28.82,West,270,3.5,3.5,42,0.00,CLR,,0.00,WeatherDisplay:10.37,2013-10-12 23:06:00,
2013-10-12 18:07:00,58.5,35.4,28.82,NW,315,3.5,3.5,42,0.00,CLR,,0.00,WeatherDisplay:10.37,2013-10-12 23:07:00,
2013-10-12 18:08:00,58.5,35.4,28.82,WNW,292,3.5,3.5,42,0.00,CLR,,0.00,WeatherDisplay:10.37,2013-10-12 23:08:00,
2013-10-12 18:09:00,58.5,36.0,28.82,SSW,202,4.6,4.6,43,0.00,CLR,,0.00,WeatherDisplay:10.37,2013-10-12 23:09:00,
2013-10-12 18:10:00,58.3,35.3,28.82,WSW,248,3.5,3.5,42,0.00,CLR,,0.00,WeatherDisplay:10.37,2013-10-12 23:10:00,
2013-10-12 18:11:00,58.1,35.1,28.82,WNW,292,2.3,2.3,42,0.00,CLR,,0.00,WeatherDisplay:10.37,2013-10-12 23:11:00,
2013-10-12 18:12:00,58.1,35.7,28.82,SE,135,2.3,2.3,43,0.00,CLR,,0.00,WeatherDisplay:10.37,2013-10-12 23:12:00,
2013-10-12 18:13:00,58.1,35.7,28.82,West,270,2.3,2.3,43,0.00,CLR,,0.00,WeatherDisplay:10.37,2013-10-12 23:13:00,
2013-10-12 18:14:00,57.9,35.5,28.82,WSW,248,2.6,2.6,43,0.00,CLR,,0.00,WeatherDisplay:10.37,2013-10-12 23:14:00,
2013-10-12 18:15:00,57.9,35.5,28.82,SSW,202,4.3,4.3,43,0.00,CLR,,0.00,WeatherDisplay:10.37,2013-10-12 23:15:00,
2013-10-12 18:17:00,57.9,35.5,28.82,West,270,2.3,2.3,43,0.00,CLR,,0.00,WeatherDisplay:10.37,2013-10-12 23:17:00,
2013-10-12 18:18:00,57.9,35.5,28.82,WNW,292,5.9,5.9,43,0.00,CLR,,0.00,WeatherDisplay:10.37,2013-10-12 23:18:00,
2013-10-12 18:20:00,57.7,35.4,28.82,WNW,292,6.9,6.9,43,0.00,CLR,,0.00,WeatherDisplay:10.37,2013-10-12 23:20:00,
2013-10-12 18:21:00,57.6,35.2,28.82,WSW,248,1.2,0.0,43,0.00,CLR,,0.00,WeatherDisplay:10.37,2013-10-12 23:21:00,
2013-10-12 18:23:00,57.6,35.2,28.82,SW,225,6.9,6.9,43,0.00,CLR,,0.00,WeatherDisplay:10.37,2013-10-12 23:23:00,
2013-10-12 18:24:00,57.6,35.2,28.82,WSW,248,6.9,6.9,43,0.00,CLR,,0.00,WeatherDisplay:10.37,2013-10-12 23:24:00,
2013-10-12 18:25:00,57.6,35.2,28.82,SW,225,3.5,3.5,43,0.00,CLR,,0.00,WeatherDisplay:10.37,2013-10-12 23:25:00,
2013-10-12 18:26:00,57.4,35.0,28.82,SW,225,2.4,2.4,43,0.00,CLR,,0.00,WeatherDisplay:10.37,2013-10-12 23:26:00,
2013-10-12 18:28:00,57.6,35.2,28.82,West,270,8.1,8.1,43,0.00,CLR,,0.00,WeatherDisplay:10.37,2013-10-12 23:28:00,
2013-10-12 18:29:00,57.6,35.2,28.82,SW,225,3.5,3.5,43,0.00,CLR,,0.00,WeatherDisplay:10.37,2013-10-12 23:29:00,
2013-10-12 18:30:00,57.4,35.0,28.82,SW,225,3.8,3.8,43,0.00,CLR,,0.00,WeatherDisplay:10.37,2013-10-12 23:30:00,
2013-10-12 18:31:00,57.4,34.5,28.82,WNW,292,3.5,3.5,42,0.00,CLR,,0.00,WeatherDisplay:10.37,2013-10-12 23:31:00,
2013-10-12 18:33:00,57.4,35.0,28.82,WSW,248,5.8,5.8,43,0.00,CLR,,0.00,WeatherDisplay:10.37,2013-10-12 23:33:00,
2013-10-12 18:34:00,57.4,35.0,28.82,WNW,292,5.8,5.8,43,0.00,CLR,,0.00,WeatherDisplay:10.37,2013-10-12 23:34:00,
2013-10-12 18:35:00,57.2,34.3,28.82,West,270,5.8,5.8,42,0.00,CLR,,0.00,WeatherDisplay:10.37,2013-10-12 23:35:00,
2013-10-12 18:37:00,57.2,34.3,28.82,SSW,202,3.5,3.5,42,0.00,CLR,,0.00,WeatherDisplay:10.37,2013-10-12 23:37:00,
2013-10-12 18:38:00,57.2,34.3,28.82,West,270,15.9,15.9,42,0.00,CLR,,0.00,WeatherDisplay:10.37,2013-10-12 23:38:00,
2013-10-12 18:39:00,57.2,32.4,28.82,WNW,292,16.1,16.1,39,0.00,CLR,,0.00,WeatherDisplay:10.37,2013-10-12 23:39:00,
2013-10-12 18:40:00,57.6,32.8,28.85,WSW,248,12.7,12.7,39,0.00,CLR,,0.00,WeatherDisplay:10.37,2013-10-12 23:40:00,
2013-10-12 18:42:00,57.7,32.9,28.85,NNE,22,8.1,8.1,39,0.00,CLR,,0.00,WeatherDisplay:10.37,2013-10-12 23:42:00,
2013-10-12 18:43:00,57.7,32.3,28.85,SE,135,6.9,6.9,38,0.00,CLR,,0.00,WeatherDisplay:10.37,2013-10-12 23:43:00,
2013-10-12 18:44:00,57.7,32.3,28.85,WSW,248,4.9,4.9,38,0.00,CLR,,0.00,WeatherDisplay:10.37,2013-10-12 23:44:00,
2013-10-12 18:45:00,57.6,32.1,28.85,WSW,248,5.8,5.8,38,0.00,CLR,,0.00,WeatherDisplay:10.37,2013-10-12 23:45:00,
2013-10-12 18:46:00,57.6,32.1,28.85,South,180,6.9,6.9,38,0.00,CLR,,0.00,WeatherDisplay:10.37,2013-10-12 23:46:00,
2013-10-12 18:48:00,57.6,32.1,28.85,SSE,158,4.6,4.6,38,0.00,CLR,,0.00,WeatherDisplay:10.37,2013-10-12 23:48:00,
2013-10-12 18:50:00,57.4,31.3,28.85,NW,315,9.2,9.2,37,0.00,CLR,,0.00,WeatherDisplay:10.37,2013-10-12 23:50:00,
2013-10-12 18:51:00,57.6,30.8,28.85,West,270,9.2,9.2,36,0.00,CLR,,0.00,WeatherDisplay:10.37,2013-10-12 23:51:00,
2013-10-12 18:52:00,57.4,30.6,28.85,NNW,338,9.2,9.2,36,0.00,CLR,,0.00,WeatherDisplay:10.37,2013-10-12 23:52:00,
2013-10-12 18:53:00,57.4,30.6,28.85,NW,315,5.8,5.8,36,0.00,CLR,,0.00,WeatherDisplay:10.37,2013-10-12 23:53:00,
2013-10-12 18:55:00,57.2,30.5,28.85,NW,315,4.0,4.0,36,0.00,CLR,,0.00,WeatherDisplay:10.37,2013-10-12 23:55:00,
2013-10-12 18:56:00,57.2,30.5,28.85,West,270,4.0,4.9,36,0.00,CLR,,0.00,WeatherDisplay:10.37,2013-10-12 23:56:00,
2013-10-12 18:57:00,57.2,30.5,28.85,WNW,292,11.5,11.5,36,0.00,CLR,,0.00,WeatherDisplay:10.37,2013-10-12 23:57:00,
2013-10-12 18:58:00,57.2,30.5,28.85,West,270,6.9,6.9,36,0.00,CLR,,0.00,WeatherDisplay:10.37,2013-10-12 23:58:00,
2013-10-12 18:59:00,57.2,29.8,28.85,NW,315,9.2,9.2,35,0.00,CLR,,0.00,WeatherDisplay:10.37,2013-10-12 23:59:00,
2013-10-12 19:01:00,57.2,29.8,28.85,West,270,13.8,13.8,35,0.00,CLR,,0.00,WeatherDisplay:10.37,2013-10-13 00:01:00,
2013-10-12 19:02:00,57.2,30.5,28.85,NW,315,8.1,8.1,36,0.00,CLR,,0.00,WeatherDisplay:10.37,2013-10-13 00:02:00,
2013-10-12 19:03:00,57.0,30.3,28.85,North,0,15.0,15.0,36,0.00,CLR,,0.00,WeatherDisplay:10.37,2013-10-13 00:03:00,
2013-10-12 19:04:00,57.0,30.3,28.85,NNW,338,12.7,12.7,36,0.00,CLR,,0.00,WeatherDisplay:10.37,2013-10-13 00:04:00,
2013-10-12 19:06:00,57.0,30.3,28.85,North,0,10.4,10.4,36,0.00,CLR,,0.00,WeatherDisplay:10.37,2013-10-13 00:06:00,
2013-10-12 19:07:00,57.0,30.3,28.85,WNW,292,10.4,10.4,36,0.00,CLR,,0.00,WeatherDisplay:10.37,2013-10-13 00:07:00,
2013-10-12 19:08:00,57.0,30.3,28.85,NNW,338,10.4,10.4,36,0.00,CLR,,0.00,WeatherDisplay:10.37,2013-10-13 00:08:00,
2013-10-12 19:09:00,56.8,30.1,28.85,NW,315,8.1,8.1,36,0.00,CLR,,0.00,WeatherDisplay:10.37,2013-10-13 00:09:00,
2013-10-12 19:12:00,56.8,30.1,28.85,SW,225,15.0,15.0,36,0.00,CLR,,0.00,WeatherDisplay:10.37,2013-10-13 00:12:00,
2013-10-12 19:13:00,56.8,30.1,28.85,West,270,11.5,11.5,36,0.00,CLR,,0.00,WeatherDisplay:10.37,2013-10-13 00:13:00,
2013-10-12 19:14:00,56.8,30.1,28.85,NW,315,4.6,4.6,36,0.00,CLR,,0.00,WeatherDisplay:10.37,2013-10-13 00:14:00,
2013-10-12 19:17:00,56.5,29.8,28.85,WNW,292,6.9,6.9,36,0.00,CLR,,0.00,WeatherDisplay:10.37,2013-10-13 00:17:00,
2013-10-12 19:18:00,56.5,29.8,28.85,NNW,338,5.8,5.8,36,0.00,CLR,,0.00,WeatherDisplay:10.37,2013-10-13 00:18:00,
2013-10-12 19:19:00,56.5,29.8,28.85,NNW,338,6.9,6.9,36,0.00,CLR,,0.00,WeatherDisplay:10.37,2013-10-13 00:19:00,
2013-10-12 19:22:00,56.3,29.7,28.85,WNW,292,5.8,5.8,36,0.00,CLR,,0.00,WeatherDisplay:10.37,2013-10-13 00:22:00,
2013-10-12 19:23:00,56.3,29.7,28.85,WNW,292,4.6,4.6,36,0.00,CLR,,0.00,WeatherDisplay:10.37,2013-10-13 00:23:00,
2013-10-12 19:24:00,56.1,29.5,28.85,West,270,6.0,6.0,36,0.00,CLR,,0.00,WeatherDisplay:10.37,2013-10-13 00:24:00,
2013-10-12 19:27:00,56.1,29.5,28.85,NNW,338,10.4,10.4,36,0.00,CLR,,0.00,WeatherDisplay:10.37,2013-10-13 00:27:00,
2013-10-12 19:28:00,55.9,29.3,28.85,North,0,6.9,6.9,36,0.00,CLR,,0.00,WeatherDisplay:10.37,2013-10-13 00:28:00,
2013-10-12 19:29:00,55.9,29.3,28.85,WSW,248,5.8,5.8,36,0.00,CLR,,0.00,WeatherDisplay:10.37,2013-10-13 00:29:00,
2013-10-12 19:30:00,55.8,29.2,28.85,NW,315,4.0,4.0,36,0.00,CLR,,0.00,WeatherDisplay:10.37,2013-10-13 00:30:00,
2013-10-12 19:32:00,55.8,29.2,28.85,North,0,8.1,8.1,36,0.00,CLR,,0.00,WeatherDisplay:10.37,2013-10-13 00:32:00,
2013-10-12 19:33:00,55.6,29.0,28.85,WNW,292,6.2,6.2,36,0.00,CLR,,0.00,WeatherDisplay:10.37,2013-10-13 00:33:00,
2013-10-12 19:34:00,55.6,29.0,28.85,NNW,338,7.1,7.1,36,0.00,CLR,,0.00,WeatherDisplay:10.37,2013-10-13 00:34:00,
2013-10-12 19:35:00,55.6,29.0,28.85,West,270,6.4,6.4,36,0.00,CLR,,0.00,WeatherDisplay:10.37,2013-10-13 00:35:00,
2013-10-12 19:38:00,55.6,29.0,28.85,NW,315,5.8,5.8,36,0.00,CLR,,0.00,WeatherDisplay:10.37,2013-10-13 00:38:00,
2013-10-12 19:39:00,55.4,28.9,28.85,NNW,338,5.8,5.8,36,0.00,CLR,,0.00,WeatherDisplay:10.37,2013-10-13 00:39:00,
2013-10-12 19:40:00,55.4,28.9,28.85,West,270,5.8,5.8,36,0.00,CLR,,0.00,WeatherDisplay:10.37,2013-10-13 00:40:00,
2013-10-12 19:43:00,55.2,29.4,28.85,WNW,292,6.9,6.9,37,0.00,CLR,,0.00,WeatherDisplay:10.37,2013-10-13 00:43:00,
2013-10-12 19:44:00,55.2,29.4,28.85,WNW,292,6.9,6.9,37,0.00,CLR,,0.00,WeatherDisplay:10.37,2013-10-13 00:44:00,
2013-10-12 19:45:00,55.0,29.2,28.85,West,270,7.8,7.8,37,0.00,CLR,,0.00,WeatherDisplay:10.37,2013-10-13 00:45:00,
2013-10-12 19:46:00,55.0,29.2,28.85,West,270,8.1,8.1,37,0.00,CLR,,0.00,WeatherDisplay:10.37,2013-10-13 00:46:00,
2013-10-12 19:48:00,54.9,29.1,28.85,NW,315,2.9,2.9,37,0.00,CLR,,0.00,WeatherDisplay:10.37,2013-10-13 00:48:00,
2013-10-12 19:50:00,54.7,28.9,28.85,NW,315,3.5,3.5,37,0.00,CLR,,0.00,WeatherDisplay:10.37,2013-10-13 00:50:00,
2013-10-12 19:51:00,54.5,28.7,28.85,West,270,5.8,5.8,37,0.00,CLR,,0.00,WeatherDisplay:10.37,2013-10-13 00:51:00,
2013-10-12 19:53:00,54.7,29.5,28.85,NW,315,6.9,6.9,38,0.00,CLR,,0.00,WeatherDisplay:10.37,2013-10-13 00:53:00,
2013-10-12 19:55:00,54.7,29.5,28.88,WSW,248,3.5,3.5,38,0.00,CLR,,0.00,WeatherDisplay:10.37,2013-10-13 00:55:00,
2013-10-12 19:56:00,54.5,29.4,28.88,NW,315,4.3,4.3,38,0.00,CLR,,0.00,WeatherDisplay:10.37,2013-10-13 00:56:00,
2013-10-12 19:57:00,54.5,29.4,28.88,WNW,292,4.6,4.6,38,0.00,CLR,,0.00,WeatherDisplay:10.37,2013-10-13 00:57:00,
2013-10-12 19:58:00,54.3,29.2,28.88,WSW,248,4.6,4.6,38,0.00,CLR,,0.00,WeatherDisplay:10.37,2013-10-13 00:58:00,
2013-10-12 20:00:00,54.3,29.2,28.88,North,0,3.5,3.5,38,0.00,CLR,,0.00,WeatherDisplay:10.37,2013-10-13 01:00:00,
2013-10-12 20:01:00,54.0,28.9,28.88,WNW,292,4.0,4.0,38,0.00,CLR,,0.00,WeatherDisplay:10.37,2013-10-13 01:01:00,
2013-10-12 20:02:00,54.0,28.9,28.88,West,270,4.6,4.6,38,0.00,CLR,,0.00,WeatherDisplay:10.37,2013-10-13 01:02:00,
2013-10-12 20:03:00,53.8,29.4,28.88,NNW,338,3.5,3.5,39,0.00,CLR,,0.00,WeatherDisplay:10.37,2013-10-13 01:03:00,
2013-10-12 20:05:00,53.8,29.4,28.88,West,270,3.5,3.5,39,0.00,CLR,,0.00,WeatherDisplay:10.37,2013-10-13 01:05:00,
2013-10-12 20:06:00,53.6,29.2,28.88,NW,315,3.8,3.8,39,0.00,CLR,,0.00,WeatherDisplay:10.37,2013-10-13 01:06:00,
2013-10-12 20:07:00,53.6,29.2,28.88,North,0,3.5,3.5,39,0.00,CLR,,0.00,WeatherDisplay:10.37,2013-10-13 01:07:00,
2013-10-12 20:08:00,53.4,29.7,28.88,NNW,338,2.3,2.3,40,0.00,CLR,,0.00,WeatherDisplay:10.37,2013-10-13 01:08:00,
2013-10-12 20:09:00,53.4,29.7,28.88,NNW,338,2.3,2.3,40,0.00,CLR,,0.00,WeatherDisplay:10.37,2013-10-13 01:09:00,
2013-10-12 20:10:00,53.2,29.5,28.88,NNW,338,3.5,3.5,40,0.00,CLR,,0.00,WeatherDisplay:10.37,2013-10-13 01:10:00,
2013-10-12 20:11:00,53.2,29.5,28.88,North,0,3.5,3.5,40,0.00,CLR,,0.00,WeatherDisplay:10.37,2013-10-13 01:11:00,
2013-10-12 20:13:00,53.1,29.4,28.88,North,0,3.5,3.5,40,0.00,CLR,,0.00,WeatherDisplay:10.37,2013-10-13 01:13:00,
2013-10-12 20:14:00,53.1,29.4,28.88,WSW,248,3.5,3.5,40,0.00,CLR,,0.00,WeatherDisplay:10.37,2013-10-13 01:14:00,
2013-10-12 20:15:00,52.9,29.2,28.88,WNW,292,2.3,2.3,40,0.00,CLR,,0.00,WeatherDisplay:10.37,2013-10-13 01:15:00,
2013-10-12 20:16:00,52.9,29.2,28.88,WNW,292,2.3,2.3,40,0.00,CLR,,0.00,WeatherDisplay:10.37,2013-10-13 01:16:00,
2013-10-12 20:17:00,52.7,29.6,28.88,WNW,292,2.3,2.3,41,0.00,CLR,,0.00,WeatherDisplay:10.37,2013-10-13 01:17:00,
2013-10-12 20:18:00,52.5,29.5,28.88,West,270,2.3,2.3,41,0.00,CLR,,0.00,WeatherDisplay:10.37,2013-10-13 01:18:00,
2013-10-12 20:19:00,52.3,29.3,28.88,SSW,202,2.0,0.0,41,0.00,CLR,,0.00,WeatherDisplay:10.37,2013-10-13 01:19:00,
2013-10-12 20:20:00,52.2,29.1,28.88,SW,225,2.3,2.3,41,0.00,CLR,,0.00,WeatherDisplay:10.37,2013-10-13 01:20:00,
2013-10-12 20:21:00,52.0,29.0,28.88,SW,225,1.2,0.0,41,0.00,CLR,,0.00,WeatherDisplay:10.37,2013-10-13 01:21:00,
2013-10-12 20:22:00,51.8,28.8,28.88,SSW,202,0.0,0.0,41,0.00,CLR,,0.00,WeatherDisplay:10.37,2013-10-13 01:22:00,
2013-10-12 20:23:00,51.6,28.7,28.88,SSW,202,0.0,0.0,41,0.00,CLR,,0.00,WeatherDisplay:10.37,2013-10-13 01:23:00,
2013-10-12 20:24:00,51.6,29.3,28.88,SSW,202,0.0,0.0,42,0.00,CLR,,0.00,WeatherDisplay:10.37,2013-10-13 01:24:00,
2013-10-12 20:25:00,51.4,29.1,28.88,SSW,202,0.0,0.0,42,0.00,CLR,,0.00,WeatherDisplay:10.37,2013-10-13 01:25:00,
2013-10-12 20:26:00,51.3,28.9,28.88,SW,225,0.0,0.0,42,0.00,CLR,,0.00,WeatherDisplay:10.37,2013-10-13 01:26:00,
2013-10-12 20:28:00,51.1,28.8,28.88,SSW,202,0.0,0.0,42,0.00,CLR,,0.00,WeatherDisplay:10.37,2013-10-13 01:28:00,
2013-10-12 20:29:00,51.1,28.8,28.88,SSW,202,0.0,0.0,42,0.00,CLR,,0.00,WeatherDisplay:10.37,2013-10-13 01:29:00,
2013-10-12 20:30:00,50.9,28.6,28.88,WSW,248,0.9,0.0,42,0.00,CLR,,0.00,WeatherDisplay:10.37,2013-10-13 01:30:00,
2013-10-12 20:31:00,50.9,28.6,28.88,WSW,248,0.9,0.0,42,0.00,CLR,,0.00,WeatherDisplay:10.37,2013-10-13 01:31:00,
2013-10-12 20:33:00,50.7,29.0,28.88,SW,225,1.4,1.4,43,0.00,CLR,,0.00,WeatherDisplay:10.37,2013-10-13 01:33:00,
2013-10-12 20:34:00,50.7,29.0,28.88,WSW,248,1.4,1.4,43,0.00,CLR,,0.00,WeatherDisplay:10.37,2013-10-13 01:34:00,
2013-10-12 20:35:00,50.5,28.8,28.88,SW,225,1.2,0.0,43,0.00,CLR,,0.00,WeatherDisplay:10.37,2013-10-13 01:35:00,
2013-10-12 20:36:00,50.5,28.8,28.88,SW,225,0.0,0.0,43,0.00,CLR,,0.00,WeatherDisplay:10.37,2013-10-13 01:36:00,
2013-10-12 20:38:00,50.2,28.5,28.88,WSW,248,0.0,0.0,43,0.00,CLR,,0.00,WeatherDisplay:10.37,2013-10-13 01:38:00,
2013-10-12 20:39:00,50.2,28.5,28.88,WSW,248,0.0,0.0,43,0.00,CLR,,0.00,WeatherDisplay:10.37,2013-10-13 01:39:00,
2013-10-12 20:41:00,50.0,28.9,28.88,WSW,248,0.0,0.0,44,0.00,CLR,,0.00,WeatherDisplay:10.37,2013-10-13 01:41:00,
2013-10-12 20:43:00,49.6,29.1,28.88,WSW,248,0.0,0.0,45,0.00,CLR,,0.00,WeatherDisplay:10.37,2013-10-13 01:43:00,
2013-10-12 20:44:00,49.6,29.1,28.88,WSW,248,0.0,0.0,45,0.00,CLR,,0.00,WeatherDisplay:10.37,2013-10-13 01:44:00,
2013-10-12 20:46:00,49.3,29.4,28.88,WSW,248,0.0,0.0,46,0.00,CLR,,0.00,WeatherDisplay:10.37,2013-10-13 01:46:00,
2013-10-12 20:49:00,49.1,29.2,28.88,WSW,248,0.0,0.0,46,0.00,CLR,,0.00,WeatherDisplay:10.37,2013-10-13 01:49:00,
2013-10-12 20:51:00,48.9,29.6,28.88,WSW,248,0.0,0.0,47,0.00,CLR,,0.00,WeatherDisplay:10.37,2013-10-13 01:51:00,
2013-10-12 20:54:00,48.4,29.6,28.88,WSW,248,0.0,0.0,48,0.00,CLR,,0.00,WeatherDisplay:10.37,2013-10-13 01:54:00,
2013-10-12 20:56:00,48.0,29.2,28.88,WSW,248,0.0,0.0,48,0.00,CLR,,0.00,WeatherDisplay:10.37,2013-10-13 01:56:00,
2013-10-12 20:57:00,47.8,29.6,28.88,WSW,248,0.0,0.0,49,0.00,CLR,,0.00,WeatherDisplay:10.37,2013-10-13 01:57:00,
2013-10-12 20:59:00,47.5,29.7,28.88,WSW,248,0.0,0.0,50,0.00,CLR,,0.00,WeatherDisplay:10.37,2013-10-13 01:59:00,
2013-10-12 21:00:00,47.5,29.7,28.88,WSW,248,0.0,0.0,50,0.00,CLR,,0.00,WeatherDisplay:10.37,2013-10-13 02:00:00,
2013-10-12 21:01:00,47.1,29.4,28.88,WSW,248,0.0,0.0,50,0.00,CLR,,0.00,WeatherDisplay:10.37,2013-10-13 02:01:00,
2013-10-12 21:02:00,47.1,29.9,28.88,WSW,248,0.0,0.0,51,0.00,CLR,,0.00,WeatherDisplay:10.37,2013-10-13 02:02:00,
2013-10-12 21:04:00,46.9,29.7,28.88,WSW,248,0.0,0.0,51,0.00,CLR,,0.00,WeatherDisplay:10.37,2013-10-13 02:04:00,
2013-10-12 21:05:00,46.8,29.6,28.88,WSW,248,0.0,0.0,51,0.00,CLR,,0.00,WeatherDisplay:10.37,2013-10-13 02:05:00,
2013-10-12 21:06:00,46.8,29.6,28.88,WSW,248,0.0,0.0,51,0.00,CLR,,0.00,WeatherDisplay:10.37,2013-10-13 02:06:00,
2013-10-12 21:07:00,46.6,29.9,28.88,WSW,248,0.0,0.0,52,0.00,CLR,,0.00,WeatherDisplay:10.37,2013-10-13 02:07:00,
2013-10-12 21:09:00,46.2,30.0,28.88,WSW,248,0.0,0.0,53,0.00,CLR,,0.00,WeatherDisplay:10.37,2013-10-13 02:09:00,
2013-10-12 21:10:00,46.0,29.4,28.91,WSW,248,0.0,0.0,52,0.00,CLR,,0.00,WeatherDisplay:10.37,2013-10-13 02:10:00,
2013-10-12 21:11:00,46.0,29.8,28.91,WSW,248,0.0,0.0,53,0.00,CLR,,0.00,WeatherDisplay:10.37,2013-10-13 02:11:00,
2013-10-12 21:12:00,45.7,29.5,28.91,WSW,248,0.0,0.0,53,0.00,CLR,,0.00,WeatherDisplay:10.37,2013-10-13 02:12:00,
2013-10-12 21:15:00,45.5,28.9,28.91,WNW,292,1.4,1.4,52,0.00,CLR,,0.00,WeatherDisplay:10.37,2013-10-13 02:15:00,
2013-10-12 21:16:00,45.5,29.3,28.91,WNW,292,1.6,1.6,53,0.00,CLR,,0.00,WeatherDisplay:10.37,2013-10-13 02:16:00,
2013-10-12 21:17:00,45.3,28.7,28.91,West,270,2.0,2.0,52,0.00,CLR,,0.00,WeatherDisplay:10.37,2013-10-13 02:17:00,
2013-10-12 21:20:00,45.1,29.5,28.91,WNW,292,1.2,1.2,54,0.00,CLR,,0.00,WeatherDisplay:10.37,2013-10-13 02:20:00,
2013-10-12 21:21:00,45.1,29.5,28.91,WNW,292,1.2,1.2,54,0.00,CLR,,0.00,WeatherDisplay:10.37,2013-10-13 02:21:00,
2013-10-12 21:22:00,45.1,29.9,28.91,WNW,292,1.2,0.0,55,0.00,CLR,,0.00,WeatherDisplay:10.37,2013-10-13 02:22:00,
2013-10-12 21:23:00,45.0,29.8,28.91,WNW,292,0.0,0.0,55,0.00,CLR,,0.00,WeatherDisplay:10.37,2013-10-13 02:23:00,
2013-10-12 21:25:00,44.8,30.0,28.91,WNW,292,0.0,0.0,56,0.00,CLR,,0.00,WeatherDisplay:10.37,2013-10-13 02:25:00,
2013-10-12 21:26:00,44.8,29.6,28.91,WNW,292,0.0,0.0,55,0.00,CLR,,0.00,WeatherDisplay:10.37,2013-10-13 02:26:00,
2013-10-12 21:27:00,44.8,29.6,28.91,WNW,292,0.0,0.0,55,0.00,CLR,,0.00,WeatherDisplay:10.37,2013-10-13 02:27:00,
2013-10-12 21:28:00,44.6,29.9,28.91,WNW,292,0.0,0.0,56,0.00,CLR,,0.00,WeatherDisplay:10.37,2013-10-13 02:28:00,
2013-10-12 21:31:00,44.4,30.1,28.91,WNW,292,1.6,1.6,57,0.00,CLR,,0.00,WeatherDisplay:10.37,2013-10-13 02:31:00,
2013-10-12 21:32:00,44.2,30.0,28.91,WNW,292,2.3,2.3,57,0.00,CLR,,0.00,WeatherDisplay:10.37,2013-10-13 02:32:00,
2013-10-12 21:33:00,44.2,30.0,28.91,West,270,2.9,2.9,57,0.00,CLR,,0.00,WeatherDisplay:10.37,2013-10-13 02:33:00,
2013-10-12 21:34:00,44.2,30.4,28.91,West,270,3.5,3.5,58,0.00,CLR,,0.00,WeatherDisplay:10.37,2013-10-13 02:34:00,
2013-10-12 21:36:00,44.4,31.4,28.91,West,270,2.3,2.3,60,0.00,CLR,,0.00,WeatherDisplay:10.37,2013-10-13 02:36:00,
2013-10-12 21:37:00,44.4,31.4,28.91,West,270,2.3,2.3,60,0.00,CLR,,0.00,WeatherDisplay:10.37,2013-10-13 02:37:00,
2013-10-12 21:38:00,44.2,31.6,28.91,West,270,1.2,1.2,61,0.00,CLR,,0.00,WeatherDisplay:10.37,2013-10-13 02:38:00,
2013-10-12 21:40:00,44.2,31.6,28.91,West,276,0.0,3.0,61,0.00,CLR,,0.00,WeatherDisplay:10.37,2013-10-13 02:40:00,
2013-10-12 21:41:00,44.1,31.1,28.91,NW,315,2.3,2.3,60,0.00,CLR,,0.00,WeatherDisplay:10.37,2013-10-13 02:41:00,
2013-10-12 21:42:00,43.9,30.9,28.91,NW,315,2.3,2.3,60,0.00,CLR,,0.00,WeatherDisplay:10.37,2013-10-13 02:42:00,
2013-10-12 21:43:00,43.7,30.7,28.91,WNW,292,2.3,2.3,60,0.00,CLR,,0.00,WeatherDisplay:10.37,2013-10-13 02:43:00,
2013-10-12 21:45:00,43.5,31.0,28.91,WNW,292,2.3,2.3,61,0.00,CLR,,0.00,WeatherDisplay:10.37,2013-10-13 02:45:00,
2013-10-12 21:47:00,43.5,31.4,28.91,WNW,292,1.2,0.0,62,0.00,CLR,,0.00,WeatherDisplay:10.37,2013-10-13 02:47:00,
2013-10-12 21:48:00,43.3,31.2,28.91,WNW,292,0.0,0.0,62,0.00,CLR,,0.00,WeatherDisplay:10.37,2013-10-13 02:48:00,
2013-10-12 21:49:00,43.2,31.8,28.91,WNW,292,0.0,0.0,64,0.00,CLR,,0.00,WeatherDisplay:10.37,2013-10-13 02:49:00,
2013-10-12 21:50:00,42.8,30.7,28.91,NNW,338,2.4,0.0,62,0.00,CLR,,0.00,WeatherDisplay:10.37,2013-10-13 02:50:00,
2013-10-12 21:52:00,42.8,30.7,28.91,WNW,292,2.3,2.3,62,0.00,CLR,,0.00,WeatherDisplay:10.37,2013-10-13 02:52:00,
2013-10-12 21:53:00,42.8,31.1,28.91,WNW,292,2.3,2.3,63,0.00,CLR,,0.00,WeatherDisplay:10.37,2013-10-13 02:53:00,
2013-10-12 21:54:00,42.6,31.3,28.91,WNW,292,2.3,2.3,64,0.00,CLR,,0.00,WeatherDisplay:10.37,2013-10-13 02:54:00,
2013-10-12 21:55:00,42.6,31.3,28.91,NW,315,2.3,2.3,64,0.00,CLR,,0.00,WeatherDisplay:10.37,2013-10-13 02:55:00,
2013-10-12 21:57:00,42.4,31.5,28.91,NNW,338,2.4,2.4,65,0.00,CLR,,0.00,WeatherDisplay:10.37,2013-10-13 02:57:00,
2013-10-12 21:58:00,42.4,31.9,28.91,NW,315,2.4,2.6,66,0.00,CLR,,0.00,WeatherDisplay:10.37,2013-10-13 02:58:00,
2013-10-12 21:59:00,42.4,32.6,28.91,NNW,338,2.4,2.4,68,0.00,CLR,,0.00,WeatherDisplay:10.37,2013-10-13 02:59:00,
2013-10-12 22:00:00,42.4,32.6,28.91,NW,315,2.4,2.4,68,0.00,CLR,,0.00,WeatherDisplay:10.37,2013-10-13 03:00:00,
2013-10-12 22:02:00,42.3,32.4,28.91,NW,315,2.3,2.3,68,0.00,CLR,,0.00,WeatherDisplay:10.37,2013-10-13 03:02:00,
2013-10-12 22:03:00,42.3,32.8,28.91,NW,315,1.2,1.2,69,0.00,CLR,,0.00,WeatherDisplay:10.37,2013-10-13 03:03:00,
2013-10-12 22:05:00,42.3,32.8,28.91,NW,315,1.0,2.0,69,0.00,CLR,,0.00,WeatherDisplay:10.37,2013-10-13 03:05:00,
2013-10-12 22:07:00,42.3,32.8,28.91,WNW,292,2.3,2.3,69,0.00,CLR,,0.00,WeatherDisplay:10.37,2013-10-13 03:07:00,
2013-10-12 22:08:00,42.3,32.8,28.91,WNW,292,2.3,2.3,69,0.00,CLR,,0.00,WeatherDisplay:10.37,2013-10-13 03:08:00,
2013-10-12 22:10:00,42.3,32.8,28.88,West,270,2.3,2.3,69,0.00,CLR,,0.00,WeatherDisplay:10.37,2013-10-13 03:10:00,
2013-10-12 22:11:00,42.3,32.8,28.88,West,270,2.3,2.3,69,0.00,CLR,,0.00,WeatherDisplay:10.37,2013-10-13 03:11:00,
2013-10-12 22:12:00,42.3,32.8,28.88,West,270,2.3,2.3,69,0.00,CLR,,0.00,WeatherDisplay:10.37,2013-10-13 03:12:00,
2013-10-12 22:13:00,42.3,32.8,28.88,West,270,2.3,2.3,69,0.00,CLR,,0.00,WeatherDisplay:10.37,2013-10-13 03:13:00,
2013-10-12 22:14:00,42.3,33.2,28.88,West,270,2.3,2.3,70,0.00,CLR,,0.00,WeatherDisplay:10.37,2013-10-13 03:14:00,
2013-10-12 22:15:00,42.4,33.3,28.88,West,270,0.0,0.0,70,0.00,CLR,,0.00,WeatherDisplay:10.37,2013-10-13 03:15:00,
2013-10-12 22:16:00,42.4,33.3,28.88,West,270,0.0,0.0,70,0.00,CLR,,0.00,WeatherDisplay:10.37,2013-10-13 03:16:00,
2013-10-12 22:17:00,42.4,33.3,28.88,West,270,0.0,0.0,70,0.00,CLR,,0.00,WeatherDisplay:10.37,2013-10-13 03:17:00,
2013-10-12 22:18:00,42.3,33.2,28.88,West,270,0.0,0.0,70,0.00,CLR,,0.00,WeatherDisplay:10.37,2013-10-13 03:18:00,
2013-10-12 22:19:00,42.3,33.2,28.88,West,270,0.0,0.0,70,0.00,CLR,,0.00,WeatherDisplay:10.37,2013-10-13 03:19:00,
2013-10-12 22:20:00,42.1,32.6,28.88,WNW,292,0.0,0.0,69,0.00,CLR,,0.00,WeatherDisplay:10.37,2013-10-13 03:20:00,
2013-10-12 22:21:00,42.1,32.6,28.88,WNW,292,0.0,0.0,69,0.00,CLR,,0.00,WeatherDisplay:10.37,2013-10-13 03:21:00,
2013-10-12 22:22:00,42.1,33.0,28.88,WNW,292,0.0,0.0,70,0.00,CLR,,0.00,WeatherDisplay:10.37,2013-10-13 03:22:00,
2013-10-12 22:23:00,42.1,33.0,28.88,WNW,292,0.0,0.0,70,0.00,CLR,,0.00,WeatherDisplay:10.37,2013-10-13 03:23:00,
2013-10-12 22:24:00,41.9,32.8,28.88,WNW,292,0.0,0.0,70,0.00,CLR,,0.00,WeatherDisplay:10.37,2013-10-13 03:24:00,
2013-10-12 22:25:00,41.9,32.8,28.91,WNW,292,0.0,0.0,70,0.00,CLR,,0.00,WeatherDisplay:10.37,2013-10-13 03:25:00,
2013-10-12 22:26:00,41.9,33.2,28.91,WNW,292,0.0,0.0,71,0.00,CLR,,0.00,WeatherDisplay:10.37,2013-10-13 03:26:00,
2013-10-12 22:28:00,41.9,32.8,28.91,SE,135,1.2,1.2,70,0.00,CLR,,0.00,WeatherDisplay:10.37,2013-10-13 03:28:00,
2013-10-12 22:29:00,41.9,32.8,28.91,SE,135,0.0,0.0,70,0.00,CLR,,0.00,WeatherDisplay:10.37,2013-10-13 03:29:00,
2013-10-12 22:31:00,41.7,32.7,28.91,SE,135,0.0,0.0,70,0.00,CLR,,0.00,WeatherDisplay:10.37,2013-10-13 03:31:00,
2013-10-12 22:33:00,41.7,33.0,28.91,SE,135,0.0,0.0,71,0.00,CLR,,0.00,WeatherDisplay:10.37,2013-10-13 03:33:00,
2013-10-12 22:35:00,41.5,32.8,28.91,SE,135,0.0,0.0,71,0.00,CLR,,0.00,WeatherDisplay:10.37,2013-10-13 03:35:00,
2013-10-12 22:36:00,41.5,32.8,28.91,SE,135,0.0,0.0,71,0.00,CLR,,0.00,WeatherDisplay:10.37,2013-10-13 03:36:00,
2013-10-12 22:38:00,41.2,32.1,28.91,NE,45,0.0,0.0,70,0.00,CLR,,0.00,WeatherDisplay:10.37,2013-10-13 03:38:00,
2013-10-12 22:39:00,41.2,32.1,28.91,NE,45,0.0,0.0,70,0.00,CLR,,0.00,WeatherDisplay:10.37,2013-10-13 03:39:00,
2013-10-12 22:40:00,41.2,32.5,28.91,NE,45,0.0,0.0,71,0.00,CLR,,0.00,WeatherDisplay:10.37,2013-10-13 03:40:00,
2013-10-12 22:41:00,41.0,32.3,28.91,NE,45,0.0,0.0,71,0.00,CLR,,0.00,WeatherDisplay:10.37,2013-10-13 03:41:00,
2013-10-12 22:44:00,40.8,32.5,28.91,NE,45,1.2,1.2,72,0.00,CLR,,0.00,WeatherDisplay:10.37,2013-10-13 03:44:00,
2013-10-12 22:45:00,40.8,32.5,28.91,NE,45,0.0,0.0,72,0.00,CLR,,0.00,WeatherDisplay:10.37,2013-10-13 03:45:00,
2013-10-12 22:46:00,40.6,32.7,28.91,NE,45,0.0,0.0,73,0.00,CLR,,0.00,WeatherDisplay:10.37,2013-10-13 03:46:00,
2013-10-12 22:47:00,40.6,32.7,28.91,NE,45,0.0,0.0,73,0.00,CLR,,0.00,WeatherDisplay:10.37,2013-10-13 03:47:00,
2013-10-12 22:49:00,40.5,32.5,28.91,NE,45,1.2,0.0,73,0.00,CLR,,0.00,WeatherDisplay:10.37,2013-10-13 03:49:00,
2013-10-12 22:50:00,40.5,32.5,28.91,NE,45,1.2,1.2,73,0.00,CLR,,0.00,WeatherDisplay:10.37,2013-10-13 03:50:00,
2013-10-12 22:51:00,40.5,32.5,28.91,NE,45,0.0,0.0,73,0.00,CLR,,0.00,WeatherDisplay:10.37,2013-10-13 03:51:00,
2013-10-12 22:52:00,40.5,32.5,28.91,NE,45,0.0,0.0,73,0.00,CLR,,0.00,WeatherDisplay:10.37,2013-10-13 03:52:00,
2013-10-12 22:54:00,40.5,32.1,28.91,NE,45,0.0,0.0,72,0.00,CLR,,0.00,WeatherDisplay:10.37,2013-10-13 03:54:00,
2013-10-12 22:55:00,40.3,32.3,28.94,NE,45,0.0,0.0,73,0.00,CLR,,0.00,WeatherDisplay:10.37,2013-10-13 03:55:00,
2013-10-12 22:56:00,40.3,32.3,28.94,NE,45,0.0,0.0,73,0.00,CLR,,0.00,WeatherDisplay:10.37,2013-10-13 03:56:00,
2013-10-12 22:58:00,40.1,32.5,28.94,NE,45,0.0,0.0,74,0.00,CLR,,0.00,WeatherDisplay:10.37,2013-10-13 03:58:00,
2013-10-12 22:59:00,39.9,32.6,28.94,NE,45,0.0,0.0,75,0.00,CLR,,0.00,WeatherDisplay:10.37,2013-10-13 03:59:00,
2013-10-12 23:00:00,39.9,32.6,28.94,NE,45,0.0,0.0,75,0.00,CLR,,0.00,WeatherDisplay:10.37,2013-10-13 04:00:00,
2013-10-12 23:01:00,39.9,32.6,28.94,NE,45,0.0,0.0,75,0.00,CLR,,0.00,WeatherDisplay:10.37,2013-10-13 04:01:00,
2013-10-12 23:02:00,39.9,32.6,28.94,NE,45,1.4,1.4,75,0.00,CLR,,0.00,WeatherDisplay:10.37,2013-10-13 04:02:00,
2013-10-12 23:06:00,39.7,32.1,28.94,NNE,22,2.3,2.3,74,0.00,CLR,,0.00,WeatherDisplay:10.37,2013-10-13 04:06:00,
2013-10-12 23:07:00,39.7,32.5,28.94,NNE,22,1.6,1.6,75,0.00,CLR,,0.00,WeatherDisplay:10.37,2013-10-13 04:07:00,
2013-10-12 23:11:00,39.6,32.6,28.97,NNE,22,2.3,2.3,76,0.00,CLR,,0.00,WeatherDisplay:10.37,2013-10-13 04:11:00,
2013-10-12 23:12:00,39.6,32.6,28.97,NNE,22,2.3,2.3,76,0.00,CLR,,0.00,WeatherDisplay:10.37,2013-10-13 04:12:00,
2013-10-12 23:13:00,39.4,32.1,28.97,NNE,22,2.0,2.0,75,0.00,CLR,,0.00,WeatherDisplay:10.37,2013-10-13 04:13:00,
2013-10-12 23:16:00,39.4,32.1,28.97,NW,315,2.3,2.3,75,0.00,CLR,,0.00,WeatherDisplay:10.37,2013-10-13 04:16:00,
2013-10-12 23:17:00,39.4,32.1,28.97,NW,315,2.3,2.3,75,0.00,CLR,,0.00,WeatherDisplay:10.37,2013-10-13 04:17:00,
2013-10-12 23:18:00,39.4,32.1,28.97,NW,315,2.3,2.3,75,0.00,CLR,,0.00,WeatherDisplay:10.37,2013-10-13 04:18:00,
2013-10-12 23:19:00,39.4,32.1,28.97,NW,315,2.3,2.3,75,0.00,CLR,,0.00,WeatherDisplay:10.37,2013-10-13 04:19:00,
2013-10-12 23:21:00,39.4,32.4,28.97,NW,315,2.3,2.3,76,0.00,CLR,,0.00,WeatherDisplay:10.37,2013-10-13 04:21:00,
2013-10-12 23:22:00,39.4,32.4,28.97,NW,315,2.3,2.3,76,0.00,CLR,,0.00,WeatherDisplay:10.37,2013-10-13 04:22:00,
2013-10-12 23:23:00,39.4,32.4,28.97,NW,315,2.3,2.3,76,0.00,CLR,,0.00,WeatherDisplay:10.37,2013-10-13 04:23:00,
2013-10-12 23:24:00,39.4,32.8,28.97,NNW,338,2.4,2.4,77,0.00,CLR,,0.00,WeatherDisplay:10.37,2013-10-13 04:24:00,
2013-10-12 23:26:00,39.4,32.8,28.97,NW,315,2.3,2.3,77,0.00,CLR,,0.00,WeatherDisplay:10.37,2013-10-13 04:26:00,
2013-10-12 23:28:00,39.4,32.8,28.97,NW,315,2.3,2.3,77,0.00,CLR,,0.00,WeatherDisplay:10.37,2013-10-13 04:28:00,
2013-10-12 23:29:00,39.6,33.3,28.97,NW,315,2.3,2.3,78,0.00,CLR,,0.00,WeatherDisplay:10.37,2013-10-13 04:29:00,
2013-10-12 23:31:00,39.6,33.3,28.97,NW,315,2.3,2.3,78,0.00,CLR,,0.00,WeatherDisplay:10.37,2013-10-13 04:31:00,
2013-10-12 23:33:00,39.6,33.3,28.97,NW,315,2.3,2.3,78,0.00,CLR,,0.00,WeatherDisplay:10.37,2013-10-13 04:33:00,
2013-10-12 23:34:00,39.6,33.3,28.97,NW,315,1.4,1.4,78,0.00,CLR,,0.00,WeatherDisplay:10.37,2013-10-13 04:34:00,
2013-10-12 23:36:00,39.4,33.4,28.97,NW,315,1.2,1.2,79,0.00,CLR,,0.00,WeatherDisplay:10.37,2013-10-13 04:36:00,
2013-10-12 23:37:00,39.4,33.4,28.97,NW,315,0.0,0.0,79,0.00,CLR,,0.00,WeatherDisplay:10.37,2013-10-13 04:37:00,
2013-10-12 23:38:00,39.4,33.4,28.97,NW,315,0.9,0.0,79,0.00,CLR,,0.00,WeatherDisplay:10.37,2013-10-13 04:38:00,
2013-10-12 23:39:00,39.4,33.4,28.97,NW,315,1.2,0.0,79,0.00,CLR,,0.00,WeatherDisplay:10.37,2013-10-13 04:39:00,
2013-10-12 23:40:00,39.4,33.1,28.97,NW,315,1.2,0.0,78,0.00,CLR,,0.00,WeatherDisplay:10.37,2013-10-13 04:40:00,
2013-10-12 23:41:00,39.2,33.2,28.97,NW,315,1.2,0.0,79,0.00,CLR,,0.00,WeatherDisplay:10.37,2013-10-13 04:41:00,
2013-10-12 23:42:00,39.2,33.2,28.97,NW,315,1.2,1.2,79,0.00,CLR,,0.00,WeatherDisplay:10.37,2013-10-13 04:42:00,
2013-10-12 23:43:00,39.2,33.2,28.97,NW,315,1.2,0.0,79,0.00,CLR,,0.00,WeatherDisplay:10.37,2013-10-13 04:43:00,
2013-10-12 23:44:00,39.2,33.2,28.97,NW,315,0.0,0.0,79,0.00,CLR,,0.00,WeatherDisplay:10.37,2013-10-13 04:44:00,
2013-10-12 23:45:00,39.2,33.2,28.97,NW,315,0.0,0.0,79,0.00,CLR,,0.00,WeatherDisplay:10.37,2013-10-13 04:45:00,
2013-10-12 23:47:00,39.0,33.1,28.97,WNW,292,2.3,2.3,79,0.00,CLR,,0.00,WeatherDisplay:10.37,2013-10-13 04:47:00,
2013-10-12 23:48:00,39.0,33.1,28.97,WNW,292,2.3,0.0,79,0.00,CLR,,0.00,WeatherDisplay:10.37,2013-10-13 04:48:00,
2013-10-12 23:50:00,39.0,33.4,28.97,WNW,292,0.0,0.0,80,0.00,CLR,,0.00,WeatherDisplay:10.37,2013-10-13 04:50:00,
2013-10-12 23:52:00,38.8,32.9,28.97,NW,315,2.3,2.3,79,0.00,CLR,,0.00,WeatherDisplay:10.37,2013-10-13 04:52:00,
2013-10-12 23:53:00,38.8,32.9,28.97,NW,315,2.3,2.3,79,0.00,CLR,,0.00,WeatherDisplay:10.37,2013-10-13 04:53:00,
2013-10-12 23:55:00,38.8,32.9,28.97,NW,315,1.6,0.0,79,0.00,CLR,,0.00,WeatherDisplay:10.37,2013-10-13 04:55:00,
2013-10-12 23:56:00,38.8,32.9,28.97,NW,315,1.2,1.2,79,0.00,CLR,,0.00,WeatherDisplay:10.37,2013-10-13 04:56:00,
2013-10-12 23:57:00,38.8,32.9,28.97,NW,315,1.2,0.0,79,0.00,CLR,,0.00,WeatherDisplay:10.37,2013-10-13 04:57:00,
2013-10-12 23:58:00,38.7,32.7,28.97,NW,315,1.2,0.0,79,0.00,CLR,,0.00,WeatherDisplay:10.37,2013-10-13 04:58:00,
2013-10-12 23:59:00,38.7,32.7,28.97,NW,315,1.4,1.4,79,0.00,CLR,,0.00,WeatherDisplay:10.37,2013-10-13 04:59:00,